<?xml version="1.0" encoding="UTF-8" standalone="no" ?>
<gpx xmlns="http://www.topografix.com/GPX/1/1" xmlns:xsi="http://www.w3.org/2001/XMLSchema-instance" xsi:schemaLocation="http://www.topografix.com/GPX/1/1 http://www.topografix.com/GPX/1/1/gpx.xsd" version="1.1" creator="VisuGPX - https://www.visugpx.com">
  <metadata>
    <name>JARLANDINE 2017</name>
    <desc><![CDATA[Une excellente rando dans le coin... 4h de roulage hors attente et ravitos. assez physique... pas un long fleuve tranquille...]]></desc>
  </metadata>
  <trk>
    <name><![CDATA[Saint-Auban Cyclisme]]></name>
    <trkseg>
      <trkpt lat="44.06768" lon="5.99185">
        <ele>462.79998779297</ele>
        <time>2017-05-21T05:32:33.000Z</time>
      </trkpt>
      <trkpt lat="44.06749" lon="5.99195">
        <ele>463.60000610352</ele>
        <time>2017-05-21T05:32:40.000Z</time>
      </trkpt>
      <trkpt lat="44.0673" lon="5.99203">
        <ele>463.79998779297</ele>
        <time>2017-05-21T05:32:45.000Z</time>
      </trkpt>
      <trkpt lat="44.06712" lon="5.99209">
        <ele>464</ele>
        <time>2017-05-21T05:32:50.000Z</time>
      </trkpt>
      <trkpt lat="44.06708" lon="5.99227">
        <ele>463.79998779297</ele>
        <time>2017-05-21T05:33:06.000Z</time>
      </trkpt>
      <trkpt lat="44.06718" lon="5.99252">
        <ele>463.39999389648</ele>
        <time>2017-05-21T05:33:14.000Z</time>
      </trkpt>
      <trkpt lat="44.06731" lon="5.9927">
        <ele>463</ele>
        <time>2017-05-21T05:33:21.000Z</time>
      </trkpt>
      <trkpt lat="44.06746" lon="5.99285">
        <ele>462.60000610352</ele>
        <time>2017-05-21T05:33:26.000Z</time>
      </trkpt>
      <trkpt lat="44.06754" lon="5.99299">
        <ele>462.39999389648</ele>
        <time>2017-05-21T05:33:30.000Z</time>
      </trkpt>
      <trkpt lat="44.06744" lon="5.99323">
        <ele>463</ele>
        <time>2017-05-21T05:33:36.000Z</time>
      </trkpt>
      <trkpt lat="44.06738" lon="5.99345">
        <ele>463.79998779297</ele>
        <time>2017-05-21T05:33:42.000Z</time>
      </trkpt>
      <trkpt lat="44.06741" lon="5.99371">
        <ele>464</ele>
        <time>2017-05-21T05:33:48.000Z</time>
      </trkpt>
      <trkpt lat="44.06745" lon="5.99395">
        <ele>464</ele>
        <time>2017-05-21T05:33:53.000Z</time>
      </trkpt>
      <trkpt lat="44.06748" lon="5.9942">
        <ele>464.39999389648</ele>
        <time>2017-05-21T05:33:58.000Z</time>
      </trkpt>
      <trkpt lat="44.06757" lon="5.99445">
        <ele>465</ele>
        <time>2017-05-21T05:34:03.000Z</time>
      </trkpt>
      <trkpt lat="44.06764" lon="5.99462">
        <ele>465.39999389648</ele>
        <time>2017-05-21T05:34:06.000Z</time>
      </trkpt>
      <trkpt lat="44.06772" lon="5.99488">
        <ele>465.39999389648</ele>
        <time>2017-05-21T05:34:11.000Z</time>
      </trkpt>
      <trkpt lat="44.0678" lon="5.99515">
        <ele>464.60000610352</ele>
        <time>2017-05-21T05:34:16.000Z</time>
      </trkpt>
      <trkpt lat="44.06787" lon="5.99543">
        <ele>464</ele>
        <time>2017-05-21T05:34:21.000Z</time>
      </trkpt>
      <trkpt lat="44.06796" lon="5.99567">
        <ele>463.60000610352</ele>
        <time>2017-05-21T05:34:26.000Z</time>
      </trkpt>
      <trkpt lat="44.06804" lon="5.99593">
        <ele>462.39999389648</ele>
        <time>2017-05-21T05:34:31.000Z</time>
      </trkpt>
      <trkpt lat="44.06808" lon="5.99618">
        <ele>459.79998779297</ele>
        <time>2017-05-21T05:34:36.000Z</time>
      </trkpt>
      <trkpt lat="44.06814" lon="5.99646">
        <ele>456.79998779297</ele>
        <time>2017-05-21T05:34:41.000Z</time>
      </trkpt>
      <trkpt lat="44.06818" lon="5.99671">
        <ele>454.39999389648</ele>
        <time>2017-05-21T05:34:46.000Z</time>
      </trkpt>
      <trkpt lat="44.06831" lon="5.99684">
        <ele>455</ele>
        <time>2017-05-21T05:34:53.000Z</time>
      </trkpt>
      <trkpt lat="44.06835" lon="5.99703">
        <ele>453</ele>
        <time>2017-05-21T05:34:58.000Z</time>
      </trkpt>
      <trkpt lat="44.06847" lon="5.99728">
        <ele>451.20001220703</ele>
        <time>2017-05-21T05:35:04.000Z</time>
      </trkpt>
      <trkpt lat="44.0686" lon="5.99748">
        <ele>449.39999389648</ele>
        <time>2017-05-21T05:35:09.000Z</time>
      </trkpt>
      <trkpt lat="44.06876" lon="5.99766">
        <ele>448.79998779297</ele>
        <time>2017-05-21T05:35:14.000Z</time>
      </trkpt>
      <trkpt lat="44.06892" lon="5.9978">
        <ele>449</ele>
        <time>2017-05-21T05:35:19.000Z</time>
      </trkpt>
      <trkpt lat="44.06909" lon="5.99793">
        <ele>449.79998779297</ele>
        <time>2017-05-21T05:35:24.000Z</time>
      </trkpt>
      <trkpt lat="44.06926" lon="5.99806">
        <ele>450.20001220703</ele>
        <time>2017-05-21T05:35:29.000Z</time>
      </trkpt>
      <trkpt lat="44.06943" lon="5.99818">
        <ele>450.79998779297</ele>
        <time>2017-05-21T05:35:34.000Z</time>
      </trkpt>
      <trkpt lat="44.06961" lon="5.99832">
        <ele>450.79998779297</ele>
        <time>2017-05-21T05:35:39.000Z</time>
      </trkpt>
      <trkpt lat="44.06978" lon="5.99844">
        <ele>451.20001220703</ele>
        <time>2017-05-21T05:35:44.000Z</time>
      </trkpt>
      <trkpt lat="44.06997" lon="5.9985">
        <ele>452.60000610352</ele>
        <time>2017-05-21T05:35:49.000Z</time>
      </trkpt>
      <trkpt lat="44.07016" lon="5.9986">
        <ele>453.39999389648</ele>
        <time>2017-05-21T05:35:54.000Z</time>
      </trkpt>
      <trkpt lat="44.07019" lon="5.99863">
        <ele>453.20001220703</ele>
        <time>2017-05-21T05:35:55.000Z</time>
      </trkpt>
      <trkpt lat="44.07037" lon="5.99879">
        <ele>452.60000610352</ele>
        <time>2017-05-21T05:36:00.000Z</time>
      </trkpt>
      <trkpt lat="44.07055" lon="5.99897">
        <ele>451.79998779297</ele>
        <time>2017-05-21T05:36:05.000Z</time>
      </trkpt>
      <trkpt lat="44.07071" lon="5.99909">
        <ele>451.39999389648</ele>
        <time>2017-05-21T05:36:09.000Z</time>
      </trkpt>
      <trkpt lat="44.07091" lon="5.99921">
        <ele>451.60000610352</ele>
        <time>2017-05-21T05:36:14.000Z</time>
      </trkpt>
      <trkpt lat="44.07107" lon="5.99931">
        <ele>451.79998779297</ele>
        <time>2017-05-21T05:36:18.000Z</time>
      </trkpt>
      <trkpt lat="44.0712" lon="5.99938">
        <ele>451.20001220703</ele>
        <time>2017-05-21T05:36:21.000Z</time>
      </trkpt>
      <trkpt lat="44.07139" lon="5.9995">
        <ele>450</ele>
        <time>2017-05-21T05:36:26.000Z</time>
      </trkpt>
      <trkpt lat="44.07159" lon="5.99959">
        <ele>449.39999389648</ele>
        <time>2017-05-21T05:36:31.000Z</time>
      </trkpt>
      <trkpt lat="44.07179" lon="5.99969">
        <ele>448.39999389648</ele>
        <time>2017-05-21T05:36:36.000Z</time>
      </trkpt>
      <trkpt lat="44.072" lon="5.99977">
        <ele>447.39999389648</ele>
        <time>2017-05-21T05:36:41.000Z</time>
      </trkpt>
      <trkpt lat="44.07222" lon="5.99979">
        <ele>446.20001220703</ele>
        <time>2017-05-21T05:36:46.000Z</time>
      </trkpt>
      <trkpt lat="44.07241" lon="5.99964">
        <ele>448.60000610352</ele>
        <time>2017-05-21T05:36:51.000Z</time>
      </trkpt>
      <trkpt lat="44.07249" lon="5.9995">
        <ele>451.20001220703</ele>
        <time>2017-05-21T05:36:54.000Z</time>
      </trkpt>
      <trkpt lat="44.07263" lon="5.99926">
        <ele>457.60000610352</ele>
        <time>2017-05-21T05:36:59.000Z</time>
      </trkpt>
      <trkpt lat="44.0728" lon="5.99908">
        <ele>462.60000610352</ele>
        <time>2017-05-21T05:37:04.000Z</time>
      </trkpt>
      <trkpt lat="44.07297" lon="5.99892">
        <ele>463.39999389648</ele>
        <time>2017-05-21T05:37:09.000Z</time>
      </trkpt>
      <trkpt lat="44.07312" lon="5.99877">
        <ele>461.60000610352</ele>
        <time>2017-05-21T05:37:14.000Z</time>
      </trkpt>
      <trkpt lat="44.07326" lon="5.99854">
        <ele>460.39999389648</ele>
        <time>2017-05-21T05:37:19.000Z</time>
      </trkpt>
      <trkpt lat="44.07334" lon="5.99838">
        <ele>463.20001220703</ele>
        <time>2017-05-21T05:37:22.000Z</time>
      </trkpt>
      <trkpt lat="44.07339" lon="5.99819">
        <ele>466.60000610352</ele>
        <time>2017-05-21T05:37:25.000Z</time>
      </trkpt>
      <trkpt lat="44.07343" lon="5.99789">
        <ele>468.20001220703</ele>
        <time>2017-05-21T05:37:30.000Z</time>
      </trkpt>
      <trkpt lat="44.07346" lon="5.99764">
        <ele>468.79998779297</ele>
        <time>2017-05-21T05:37:34.000Z</time>
      </trkpt>
      <trkpt lat="44.07348" lon="5.99739">
        <ele>469.60000610352</ele>
        <time>2017-05-21T05:37:38.000Z</time>
      </trkpt>
      <trkpt lat="44.07352" lon="5.99713">
        <ele>470</ele>
        <time>2017-05-21T05:37:42.000Z</time>
      </trkpt>
      <trkpt lat="44.07355" lon="5.99687">
        <ele>470</ele>
        <time>2017-05-21T05:37:46.000Z</time>
      </trkpt>
      <trkpt lat="44.07358" lon="5.99656">
        <ele>470</ele>
        <time>2017-05-21T05:37:51.000Z</time>
      </trkpt>
      <trkpt lat="44.07361" lon="5.99626">
        <ele>470</ele>
        <time>2017-05-21T05:37:56.000Z</time>
      </trkpt>
      <trkpt lat="44.07364" lon="5.99598">
        <ele>470</ele>
        <time>2017-05-21T05:38:00.000Z</time>
      </trkpt>
      <trkpt lat="44.07368" lon="5.99572">
        <ele>470</ele>
        <time>2017-05-21T05:38:04.000Z</time>
      </trkpt>
      <trkpt lat="44.0737" lon="5.99546">
        <ele>470.20001220703</ele>
        <time>2017-05-21T05:38:08.000Z</time>
      </trkpt>
      <trkpt lat="44.07372" lon="5.9952">
        <ele>470.20001220703</ele>
        <time>2017-05-21T05:38:12.000Z</time>
      </trkpt>
      <trkpt lat="44.07375" lon="5.9949">
        <ele>470.20001220703</ele>
        <time>2017-05-21T05:38:16.000Z</time>
      </trkpt>
      <trkpt lat="44.07379" lon="5.99461">
        <ele>470.79998779297</ele>
        <time>2017-05-21T05:38:20.000Z</time>
      </trkpt>
      <trkpt lat="44.07383" lon="5.99436">
        <ele>471.60000610352</ele>
        <time>2017-05-21T05:38:24.000Z</time>
      </trkpt>
      <trkpt lat="44.07386" lon="5.99409">
        <ele>472</ele>
        <time>2017-05-21T05:38:28.000Z</time>
      </trkpt>
      <trkpt lat="44.07389" lon="5.99379">
        <ele>472.20001220703</ele>
        <time>2017-05-21T05:38:32.000Z</time>
      </trkpt>
      <trkpt lat="44.07392" lon="5.99349">
        <ele>472.60000610352</ele>
        <time>2017-05-21T05:38:37.000Z</time>
      </trkpt>
      <trkpt lat="44.07394" lon="5.99324">
        <ele>473.20001220703</ele>
        <time>2017-05-21T05:38:42.000Z</time>
      </trkpt>
      <trkpt lat="44.074" lon="5.99299">
        <ele>473.79998779297</ele>
        <time>2017-05-21T05:38:47.000Z</time>
      </trkpt>
      <trkpt lat="44.0741" lon="5.99278">
        <ele>473.39999389648</ele>
        <time>2017-05-21T05:38:51.000Z</time>
      </trkpt>
      <trkpt lat="44.07424" lon="5.99255">
        <ele>474.39999389648</ele>
        <time>2017-05-21T05:38:56.000Z</time>
      </trkpt>
      <trkpt lat="44.07435" lon="5.99237">
        <ele>475.39999389648</ele>
        <time>2017-05-21T05:39:07.000Z</time>
      </trkpt>
      <trkpt lat="44.07451" lon="5.99219">
        <ele>476</ele>
        <time>2017-05-21T05:39:41.000Z</time>
      </trkpt>
      <trkpt lat="44.07453" lon="5.99217">
        <ele>476</ele>
        <time>2017-05-21T05:39:42.000Z</time>
      </trkpt>
      <trkpt lat="44.07468" lon="5.99231">
        <ele>476.20001220703</ele>
        <time>2017-05-21T05:39:47.000Z</time>
      </trkpt>
      <trkpt lat="44.07484" lon="5.99251">
        <ele>476.39999389648</ele>
        <time>2017-05-21T05:39:53.000Z</time>
      </trkpt>
      <trkpt lat="44.07497" lon="5.99268">
        <ele>476.60000610352</ele>
        <time>2017-05-21T05:39:58.000Z</time>
      </trkpt>
      <trkpt lat="44.07512" lon="5.99289">
        <ele>476.79998779297</ele>
        <time>2017-05-21T05:40:04.000Z</time>
      </trkpt>
      <trkpt lat="44.07526" lon="5.99308">
        <ele>477</ele>
        <time>2017-05-21T05:40:10.000Z</time>
      </trkpt>
      <trkpt lat="44.07539" lon="5.99326">
        <ele>477.20001220703</ele>
        <time>2017-05-21T05:40:15.000Z</time>
      </trkpt>
      <trkpt lat="44.07554" lon="5.99344">
        <ele>477.60000610352</ele>
        <time>2017-05-21T05:40:20.000Z</time>
      </trkpt>
      <trkpt lat="44.07568" lon="5.99364">
        <ele>477.79998779297</ele>
        <time>2017-05-21T05:40:26.000Z</time>
      </trkpt>
      <trkpt lat="44.07583" lon="5.99383">
        <ele>478.20001220703</ele>
        <time>2017-05-21T05:40:32.000Z</time>
      </trkpt>
      <trkpt lat="44.07599" lon="5.99403">
        <ele>478.39999389648</ele>
        <time>2017-05-21T05:40:38.000Z</time>
      </trkpt>
      <trkpt lat="44.07612" lon="5.99421">
        <ele>478.39999389648</ele>
        <time>2017-05-21T05:40:43.000Z</time>
      </trkpt>
      <trkpt lat="44.07626" lon="5.99437">
        <ele>478.60000610352</ele>
        <time>2017-05-21T05:40:48.000Z</time>
      </trkpt>
      <trkpt lat="44.07645" lon="5.99446">
        <ele>479.39999389648</ele>
        <time>2017-05-21T05:40:53.000Z</time>
      </trkpt>
      <trkpt lat="44.07657" lon="5.99452">
        <ele>479.79998779297</ele>
        <time>2017-05-21T05:41:00.000Z</time>
      </trkpt>
      <trkpt lat="44.07669" lon="5.99452">
        <ele>480.39999389648</ele>
        <time>2017-05-21T05:41:04.000Z</time>
      </trkpt>
      <trkpt lat="44.07688" lon="5.99447">
        <ele>480.60000610352</ele>
        <time>2017-05-21T05:41:10.000Z</time>
      </trkpt>
      <trkpt lat="44.07704" lon="5.9943">
        <ele>478.60000610352</ele>
        <time>2017-05-21T05:41:16.000Z</time>
      </trkpt>
      <trkpt lat="44.07719" lon="5.99416">
        <ele>475.79998779297</ele>
        <time>2017-05-21T05:41:22.000Z</time>
      </trkpt>
      <trkpt lat="44.07734" lon="5.994">
        <ele>477.79998779297</ele>
        <time>2017-05-21T05:41:27.000Z</time>
      </trkpt>
      <trkpt lat="44.07752" lon="5.99388">
        <ele>478.60000610352</ele>
        <time>2017-05-21T05:41:32.000Z</time>
      </trkpt>
      <trkpt lat="44.0777" lon="5.99381">
        <ele>478.39999389648</ele>
        <time>2017-05-21T05:41:36.000Z</time>
      </trkpt>
      <trkpt lat="44.07792" lon="5.99378">
        <ele>478.20001220703</ele>
        <time>2017-05-21T05:41:42.000Z</time>
      </trkpt>
      <trkpt lat="44.07813" lon="5.99378">
        <ele>477.60000610352</ele>
        <time>2017-05-21T05:41:48.000Z</time>
      </trkpt>
      <trkpt lat="44.07831" lon="5.99373">
        <ele>477.20001220703</ele>
        <time>2017-05-21T05:41:59.000Z</time>
      </trkpt>
      <trkpt lat="44.07853" lon="5.99371">
        <ele>477.60000610352</ele>
        <time>2017-05-21T05:42:06.000Z</time>
      </trkpt>
      <trkpt lat="44.07867" lon="5.99355">
        <ele>480</ele>
        <time>2017-05-21T05:42:12.000Z</time>
      </trkpt>
      <trkpt lat="44.07882" lon="5.99339">
        <ele>481.60000610352</ele>
        <time>2017-05-21T05:42:18.000Z</time>
      </trkpt>
      <trkpt lat="44.07893" lon="5.99317">
        <ele>485</ele>
        <time>2017-05-21T05:42:26.000Z</time>
      </trkpt>
      <trkpt lat="44.0791" lon="5.99301">
        <ele>487</ele>
        <time>2017-05-21T05:42:35.000Z</time>
      </trkpt>
      <trkpt lat="44.0792" lon="5.99302">
        <ele>486.79998779297</ele>
        <time>2017-05-21T05:42:39.000Z</time>
      </trkpt>
      <trkpt lat="44.07939" lon="5.99304">
        <ele>486.39999389648</ele>
        <time>2017-05-21T05:42:47.000Z</time>
      </trkpt>
      <trkpt lat="44.07947" lon="5.99304">
        <ele>486.39999389648</ele>
        <time>2017-05-21T05:42:52.000Z</time>
      </trkpt>
      <trkpt lat="44.07946" lon="5.99294">
        <ele>487.79998779297</ele>
        <time>2017-05-21T05:42:59.000Z</time>
      </trkpt>
      <trkpt lat="44.07937" lon="5.99277">
        <ele>490.39999389648</ele>
        <time>2017-05-21T05:43:09.000Z</time>
      </trkpt>
      <trkpt lat="44.07937" lon="5.99262">
        <ele>492.39999389648</ele>
        <time>2017-05-21T05:43:13.000Z</time>
      </trkpt>
      <trkpt lat="44.07936" lon="5.99233">
        <ele>496.60000610352</ele>
        <time>2017-05-21T05:43:21.000Z</time>
      </trkpt>
      <trkpt lat="44.07935" lon="5.99218">
        <ele>498.79998779297</ele>
        <time>2017-05-21T05:43:27.000Z</time>
      </trkpt>
      <trkpt lat="44.07939" lon="5.99199">
        <ele>501.79998779297</ele>
        <time>2017-05-21T05:43:35.000Z</time>
      </trkpt>
      <trkpt lat="44.07944" lon="5.99192">
        <ele>503</ele>
        <time>2017-05-21T05:43:39.000Z</time>
      </trkpt>
      <trkpt lat="44.07946" lon="5.99189">
        <ele>503.20001220703</ele>
        <time>2017-05-21T05:43:41.000Z</time>
      </trkpt>
      <trkpt lat="44.07954" lon="5.99178">
        <ele>504</ele>
        <time>2017-05-21T05:43:45.000Z</time>
      </trkpt>
      <trkpt lat="44.07963" lon="5.99168">
        <ele>504.60000610352</ele>
        <time>2017-05-21T05:43:48.000Z</time>
      </trkpt>
      <trkpt lat="44.07976" lon="5.99183">
        <ele>500.60000610352</ele>
        <time>2017-05-21T05:43:54.000Z</time>
      </trkpt>
      <trkpt lat="44.0798" lon="5.99176">
        <ele>501.20001220703</ele>
        <time>2017-05-21T05:43:58.000Z</time>
      </trkpt>
      <trkpt lat="44.07983" lon="5.99173">
        <ele>501.60000610352</ele>
        <time>2017-05-21T05:44:00.000Z</time>
      </trkpt>
      <trkpt lat="44.08" lon="5.99185">
        <ele>497.79998779297</ele>
        <time>2017-05-21T05:44:07.000Z</time>
      </trkpt>
      <trkpt lat="44.08019" lon="5.99191">
        <ele>495</ele>
        <time>2017-05-21T05:44:11.000Z</time>
      </trkpt>
      <trkpt lat="44.0803" lon="5.99201">
        <ele>492.39999389648</ele>
        <time>2017-05-21T05:44:13.000Z</time>
      </trkpt>
      <trkpt lat="44.08034" lon="5.99209">
        <ele>490.79998779297</ele>
        <time>2017-05-21T05:44:14.000Z</time>
      </trkpt>
      <trkpt lat="44.08049" lon="5.99225">
        <ele>487.20001220703</ele>
        <time>2017-05-21T05:44:17.000Z</time>
      </trkpt>
      <trkpt lat="44.08064" lon="5.99241">
        <ele>488.39999389648</ele>
        <time>2017-05-21T05:44:20.000Z</time>
      </trkpt>
      <trkpt lat="44.08062" lon="5.99265">
        <ele>490.20001220703</ele>
        <time>2017-05-21T05:44:27.000Z</time>
      </trkpt>
      <trkpt lat="44.08045" lon="5.9927">
        <ele>486.79998779297</ele>
        <time>2017-05-21T05:45:15.000Z</time>
      </trkpt>
      <trkpt lat="44.0804" lon="5.99295">
        <ele>483.60000610352</ele>
        <time>2017-05-21T05:45:23.000Z</time>
      </trkpt>
      <trkpt lat="44.08034" lon="5.99319">
        <ele>482.79998779297</ele>
        <time>2017-05-21T05:45:29.000Z</time>
      </trkpt>
      <trkpt lat="44.08025" lon="5.99341">
        <ele>480</ele>
        <time>2017-05-21T05:45:35.000Z</time>
      </trkpt>
      <trkpt lat="44.08014" lon="5.99364">
        <ele>481</ele>
        <time>2017-05-21T05:45:43.000Z</time>
      </trkpt>
      <trkpt lat="44.08007" lon="5.99388">
        <ele>478.60000610352</ele>
        <time>2017-05-21T05:45:51.000Z</time>
      </trkpt>
      <trkpt lat="44.08007" lon="5.99414">
        <ele>479</ele>
        <time>2017-05-21T05:46:00.000Z</time>
      </trkpt>
      <trkpt lat="44.08012" lon="5.9944">
        <ele>480.79998779297</ele>
        <time>2017-05-21T05:46:09.000Z</time>
      </trkpt>
      <trkpt lat="44.08013" lon="5.99466">
        <ele>481.79998779297</ele>
        <time>2017-05-21T05:46:17.000Z</time>
      </trkpt>
      <trkpt lat="44.08024" lon="5.99487">
        <ele>483.79998779297</ele>
        <time>2017-05-21T05:46:24.000Z</time>
      </trkpt>
      <trkpt lat="44.08036" lon="5.99507">
        <ele>485.79998779297</ele>
        <time>2017-05-21T05:46:31.000Z</time>
      </trkpt>
      <trkpt lat="44.08047" lon="5.99526">
        <ele>487.39999389648</ele>
        <time>2017-05-21T05:46:37.000Z</time>
      </trkpt>
      <trkpt lat="44.08057" lon="5.99548">
        <ele>489.20001220703</ele>
        <time>2017-05-21T05:46:45.000Z</time>
      </trkpt>
      <trkpt lat="44.08063" lon="5.99562">
        <ele>489.60000610352</ele>
        <time>2017-05-21T05:46:51.000Z</time>
      </trkpt>
      <trkpt lat="44.08081" lon="5.99565">
        <ele>491.20001220703</ele>
        <time>2017-05-21T05:47:00.000Z</time>
      </trkpt>
      <trkpt lat="44.08101" lon="5.99574">
        <ele>492.39999389648</ele>
        <time>2017-05-21T05:47:09.000Z</time>
      </trkpt>
      <trkpt lat="44.08118" lon="5.99582">
        <ele>493.60000610352</ele>
        <time>2017-05-21T05:47:17.000Z</time>
      </trkpt>
      <trkpt lat="44.08135" lon="5.99592">
        <ele>494.20001220703</ele>
        <time>2017-05-21T05:47:25.000Z</time>
      </trkpt>
      <trkpt lat="44.08152" lon="5.99602">
        <ele>494.79998779297</ele>
        <time>2017-05-21T05:47:33.000Z</time>
      </trkpt>
      <trkpt lat="44.0817" lon="5.99609">
        <ele>496.79998779297</ele>
        <time>2017-05-21T05:47:41.000Z</time>
      </trkpt>
      <trkpt lat="44.08188" lon="5.9962">
        <ele>498</ele>
        <time>2017-05-21T05:47:50.000Z</time>
      </trkpt>
      <trkpt lat="44.08206" lon="5.99628">
        <ele>499.20001220703</ele>
        <time>2017-05-21T05:47:59.000Z</time>
      </trkpt>
      <trkpt lat="44.08222" lon="5.9963">
        <ele>501</ele>
        <time>2017-05-21T05:48:15.000Z</time>
      </trkpt>
      <trkpt lat="44.08225" lon="5.99658">
        <ele>498.39999389648</ele>
        <time>2017-05-21T05:48:21.000Z</time>
      </trkpt>
      <trkpt lat="44.08231" lon="5.9967">
        <ele>498.60000610352</ele>
        <time>2017-05-21T05:48:26.000Z</time>
      </trkpt>
      <trkpt lat="44.08247" lon="5.99682">
        <ele>500.20001220703</ele>
        <time>2017-05-21T05:48:36.000Z</time>
      </trkpt>
      <trkpt lat="44.08266" lon="5.9969">
        <ele>502.20001220703</ele>
        <time>2017-05-21T05:48:46.000Z</time>
      </trkpt>
      <trkpt lat="44.08282" lon="5.99701">
        <ele>503.79998779297</ele>
        <time>2017-05-21T05:48:55.000Z</time>
      </trkpt>
      <trkpt lat="44.08302" lon="5.99703">
        <ele>505.79998779297</ele>
        <time>2017-05-21T05:49:04.000Z</time>
      </trkpt>
      <trkpt lat="44.0832" lon="5.99702">
        <ele>507.79998779297</ele>
        <time>2017-05-21T05:49:13.000Z</time>
      </trkpt>
      <trkpt lat="44.08331" lon="5.99705">
        <ele>508.79998779297</ele>
        <time>2017-05-21T05:49:20.000Z</time>
      </trkpt>
      <trkpt lat="44.0835" lon="5.99699">
        <ele>512.79998779297</ele>
        <time>2017-05-21T05:49:29.000Z</time>
      </trkpt>
      <trkpt lat="44.08369" lon="5.99704">
        <ele>515.40002441406</ele>
        <time>2017-05-21T05:49:38.000Z</time>
      </trkpt>
      <trkpt lat="44.08376" lon="5.99708">
        <ele>515.79998779297</ele>
        <time>2017-05-21T05:49:42.000Z</time>
      </trkpt>
      <trkpt lat="44.08392" lon="5.99698">
        <ele>519.40002441406</ele>
        <time>2017-05-21T05:49:55.000Z</time>
      </trkpt>
      <trkpt lat="44.08396" lon="5.99696">
        <ele>520.40002441406</ele>
        <time>2017-05-21T05:49:59.000Z</time>
      </trkpt>
      <trkpt lat="44.08404" lon="5.9969">
        <ele>522.40002441406</ele>
        <time>2017-05-21T05:50:28.000Z</time>
      </trkpt>
      <trkpt lat="44.0841" lon="5.99681">
        <ele>523.79998779297</ele>
        <time>2017-05-21T05:51:29.000Z</time>
      </trkpt>
      <trkpt lat="44.08428" lon="5.99674">
        <ele>526</ele>
        <time>2017-05-21T05:51:37.000Z</time>
      </trkpt>
      <trkpt lat="44.0844" lon="5.99667">
        <ele>527.59997558594</ele>
        <time>2017-05-21T05:51:43.000Z</time>
      </trkpt>
      <trkpt lat="44.08436" lon="5.99642">
        <ele>529.40002441406</ele>
        <time>2017-05-21T05:51:55.000Z</time>
      </trkpt>
      <trkpt lat="44.08437" lon="5.99642">
        <ele>529.40002441406</ele>
        <time>2017-05-21T05:51:56.000Z</time>
      </trkpt>
      <trkpt lat="44.08454" lon="5.9963">
        <ele>532</ele>
        <time>2017-05-21T05:52:07.000Z</time>
      </trkpt>
      <trkpt lat="44.0847" lon="5.99617">
        <ele>534.40002441406</ele>
        <time>2017-05-21T05:52:17.000Z</time>
      </trkpt>
      <trkpt lat="44.08488" lon="5.99609">
        <ele>536.79998779297</ele>
        <time>2017-05-21T05:52:29.000Z</time>
      </trkpt>
      <trkpt lat="44.08507" lon="5.99607">
        <ele>538.59997558594</ele>
        <time>2017-05-21T05:52:40.000Z</time>
      </trkpt>
      <trkpt lat="44.08526" lon="5.99609">
        <ele>540.20001220703</ele>
        <time>2017-05-21T05:52:51.000Z</time>
      </trkpt>
      <trkpt lat="44.08545" lon="5.9961">
        <ele>543.40002441406</ele>
        <time>2017-05-21T05:53:03.000Z</time>
      </trkpt>
      <trkpt lat="44.08554" lon="5.99609">
        <ele>545.20001220703</ele>
        <time>2017-05-21T05:53:11.000Z</time>
      </trkpt>
      <trkpt lat="44.08561" lon="5.99598">
        <ele>546.79998779297</ele>
        <time>2017-05-21T05:53:42.000Z</time>
      </trkpt>
      <trkpt lat="44.08569" lon="5.99582">
        <ele>547</ele>
        <time>2017-05-21T05:53:46.000Z</time>
      </trkpt>
      <trkpt lat="44.08585" lon="5.99592">
        <ele>549</ele>
        <time>2017-05-21T05:53:57.000Z</time>
      </trkpt>
      <trkpt lat="44.08591" lon="5.99602">
        <ele>550</ele>
        <time>2017-05-21T05:54:03.000Z</time>
      </trkpt>
      <trkpt lat="44.08598" lon="5.99597">
        <ele>550.40002441406</ele>
        <time>2017-05-21T05:54:09.000Z</time>
      </trkpt>
      <trkpt lat="44.08613" lon="5.99577">
        <ele>550.79998779297</ele>
        <time>2017-05-21T05:54:17.000Z</time>
      </trkpt>
      <trkpt lat="44.0863" lon="5.99568">
        <ele>553.20001220703</ele>
        <time>2017-05-21T05:54:24.000Z</time>
      </trkpt>
      <trkpt lat="44.08649" lon="5.99559">
        <ele>554.59997558594</ele>
        <time>2017-05-21T05:54:32.000Z</time>
      </trkpt>
      <trkpt lat="44.08667" lon="5.99558">
        <ele>557.20001220703</ele>
        <time>2017-05-21T05:54:41.000Z</time>
      </trkpt>
      <trkpt lat="44.08686" lon="5.99557">
        <ele>560</ele>
        <time>2017-05-21T05:54:51.000Z</time>
      </trkpt>
      <trkpt lat="44.08704" lon="5.99562">
        <ele>563</ele>
        <time>2017-05-21T05:55:04.000Z</time>
      </trkpt>
      <trkpt lat="44.08722" lon="5.99562">
        <ele>565</ele>
        <time>2017-05-21T05:55:16.000Z</time>
      </trkpt>
      <trkpt lat="44.08724" lon="5.99559">
        <ele>564.79998779297</ele>
        <time>2017-05-21T05:55:18.000Z</time>
      </trkpt>
      <trkpt lat="44.08731" lon="5.99556">
        <ele>565.40002441406</ele>
        <time>2017-05-21T05:55:24.000Z</time>
      </trkpt>
      <trkpt lat="44.08733" lon="5.99555">
        <ele>565.59997558594</ele>
        <time>2017-05-21T05:55:25.000Z</time>
      </trkpt>
      <trkpt lat="44.08747" lon="5.99545">
        <ele>566.79998779297</ele>
        <time>2017-05-21T05:55:36.000Z</time>
      </trkpt>
      <trkpt lat="44.08751" lon="5.99546">
        <ele>567.40002441406</ele>
        <time>2017-05-21T05:55:38.000Z</time>
      </trkpt>
      <trkpt lat="44.08768" lon="5.99554">
        <ele>569.79998779297</ele>
        <time>2017-05-21T05:55:49.000Z</time>
      </trkpt>
      <trkpt lat="44.08788" lon="5.99556">
        <ele>572</ele>
        <time>2017-05-21T05:56:06.000Z</time>
      </trkpt>
      <trkpt lat="44.08808" lon="5.99552">
        <ele>573.59997558594</ele>
        <time>2017-05-21T05:56:14.000Z</time>
      </trkpt>
      <trkpt lat="44.08827" lon="5.99555">
        <ele>576</ele>
        <time>2017-05-21T05:56:22.000Z</time>
      </trkpt>
      <trkpt lat="44.08847" lon="5.99557">
        <ele>578.40002441406</ele>
        <time>2017-05-21T05:56:29.000Z</time>
      </trkpt>
      <trkpt lat="44.08865" lon="5.99563">
        <ele>581.20001220703</ele>
        <time>2017-05-21T05:56:38.000Z</time>
      </trkpt>
      <trkpt lat="44.0887" lon="5.99564">
        <ele>581.59997558594</ele>
        <time>2017-05-21T05:56:42.000Z</time>
      </trkpt>
      <trkpt lat="44.08888" lon="5.99575">
        <ele>584.79998779297</ele>
        <time>2017-05-21T05:56:52.000Z</time>
      </trkpt>
      <trkpt lat="44.08906" lon="5.99582">
        <ele>587</ele>
        <time>2017-05-21T05:57:02.000Z</time>
      </trkpt>
      <trkpt lat="44.08926" lon="5.99578">
        <ele>586.79998779297</ele>
        <time>2017-05-21T05:57:12.000Z</time>
      </trkpt>
      <trkpt lat="44.08933" lon="5.99578">
        <ele>587</ele>
        <time>2017-05-21T05:57:17.000Z</time>
      </trkpt>
      <trkpt lat="44.08942" lon="5.99574">
        <ele>586.59997558594</ele>
        <time>2017-05-21T05:57:21.000Z</time>
      </trkpt>
      <trkpt lat="44.0896" lon="5.99565">
        <ele>585.59997558594</ele>
        <time>2017-05-21T05:57:27.000Z</time>
      </trkpt>
      <trkpt lat="44.08979" lon="5.99562">
        <ele>586</ele>
        <time>2017-05-21T05:57:33.000Z</time>
      </trkpt>
      <trkpt lat="44.08999" lon="5.99557">
        <ele>586.20001220703</ele>
        <time>2017-05-21T05:57:40.000Z</time>
      </trkpt>
      <trkpt lat="44.09017" lon="5.99546">
        <ele>585.20001220703</ele>
        <time>2017-05-21T05:57:45.000Z</time>
      </trkpt>
      <trkpt lat="44.09037" lon="5.99546">
        <ele>585.40002441406</ele>
        <time>2017-05-21T05:57:51.000Z</time>
      </trkpt>
      <trkpt lat="44.09055" lon="5.99549">
        <ele>585</ele>
        <time>2017-05-21T05:57:56.000Z</time>
      </trkpt>
      <trkpt lat="44.09072" lon="5.99545">
        <ele>583.40002441406</ele>
        <time>2017-05-21T05:58:00.000Z</time>
      </trkpt>
      <trkpt lat="44.0909" lon="5.9955">
        <ele>583.40002441406</ele>
        <time>2017-05-21T05:58:03.000Z</time>
      </trkpt>
      <trkpt lat="44.091" lon="5.99555">
        <ele>583.79998779297</ele>
        <time>2017-05-21T05:58:05.000Z</time>
      </trkpt>
      <trkpt lat="44.09116" lon="5.99563">
        <ele>583.59997558594</ele>
        <time>2017-05-21T05:58:08.000Z</time>
      </trkpt>
      <trkpt lat="44.09132" lon="5.99574">
        <ele>582.59997558594</ele>
        <time>2017-05-21T05:58:11.000Z</time>
      </trkpt>
      <trkpt lat="44.09146" lon="5.99582">
        <ele>581.79998779297</ele>
        <time>2017-05-21T05:58:15.000Z</time>
      </trkpt>
      <trkpt lat="44.09164" lon="5.99584">
        <ele>580.40002441406</ele>
        <time>2017-05-21T05:58:20.000Z</time>
      </trkpt>
      <trkpt lat="44.09182" lon="5.99582">
        <ele>578.79998779297</ele>
        <time>2017-05-21T05:58:28.000Z</time>
      </trkpt>
      <trkpt lat="44.092" lon="5.99585">
        <ele>576.59997558594</ele>
        <time>2017-05-21T05:58:52.000Z</time>
      </trkpt>
      <trkpt lat="44.09203" lon="5.99585">
        <ele>575.79998779297</ele>
        <time>2017-05-21T05:58:53.000Z</time>
      </trkpt>
      <trkpt lat="44.09216" lon="5.99603">
        <ele>573.59997558594</ele>
        <time>2017-05-21T05:59:01.000Z</time>
      </trkpt>
      <trkpt lat="44.09215" lon="5.99625">
        <ele>574.59997558594</ele>
        <time>2017-05-21T05:59:33.000Z</time>
      </trkpt>
      <trkpt lat="44.09225" lon="5.99638">
        <ele>573.20001220703</ele>
        <time>2017-05-21T05:59:38.000Z</time>
      </trkpt>
      <trkpt lat="44.09239" lon="5.99654">
        <ele>571</ele>
        <time>2017-05-21T05:59:47.000Z</time>
      </trkpt>
      <trkpt lat="44.09258" lon="5.99663">
        <ele>567.59997558594</ele>
        <time>2017-05-21T06:00:05.000Z</time>
      </trkpt>
      <trkpt lat="44.09268" lon="5.99669">
        <ele>566</ele>
        <time>2017-05-21T06:00:08.000Z</time>
      </trkpt>
      <trkpt lat="44.09279" lon="5.99691">
        <ele>564.79998779297</ele>
        <time>2017-05-21T06:00:13.000Z</time>
      </trkpt>
      <trkpt lat="44.093" lon="5.99698">
        <ele>560</ele>
        <time>2017-05-21T06:00:18.000Z</time>
      </trkpt>
      <trkpt lat="44.09312" lon="5.99716">
        <ele>557.79998779297</ele>
        <time>2017-05-21T06:00:24.000Z</time>
      </trkpt>
      <trkpt lat="44.09313" lon="5.99719">
        <ele>558</ele>
        <time>2017-05-21T06:00:25.000Z</time>
      </trkpt>
      <trkpt lat="44.09322" lon="5.99734">
        <ele>556.59997558594</ele>
        <time>2017-05-21T06:01:02.000Z</time>
      </trkpt>
      <trkpt lat="44.09324" lon="5.99735">
        <ele>556.20001220703</ele>
        <time>2017-05-21T06:01:03.000Z</time>
      </trkpt>
      <trkpt lat="44.0934" lon="5.99743">
        <ele>552.59997558594</ele>
        <time>2017-05-21T06:01:10.000Z</time>
      </trkpt>
      <trkpt lat="44.09352" lon="5.99755">
        <ele>550.20001220703</ele>
        <time>2017-05-21T06:01:14.000Z</time>
      </trkpt>
      <trkpt lat="44.09371" lon="5.9977">
        <ele>546.40002441406</ele>
        <time>2017-05-21T06:01:21.000Z</time>
      </trkpt>
      <trkpt lat="44.09379" lon="5.99793">
        <ele>545.79998779297</ele>
        <time>2017-05-21T06:01:27.000Z</time>
      </trkpt>
      <trkpt lat="44.0939" lon="5.99813">
        <ele>543.79998779297</ele>
        <time>2017-05-21T06:01:33.000Z</time>
      </trkpt>
      <trkpt lat="44.09403" lon="5.99837">
        <ele>539.20001220703</ele>
        <time>2017-05-21T06:01:38.000Z</time>
      </trkpt>
      <trkpt lat="44.09405" lon="5.99844">
        <ele>538.40002441406</ele>
        <time>2017-05-21T06:01:39.000Z</time>
      </trkpt>
      <trkpt lat="44.0941" lon="5.99874">
        <ele>536.79998779297</ele>
        <time>2017-05-21T06:01:43.000Z</time>
      </trkpt>
      <trkpt lat="44.09412" lon="5.9988">
        <ele>536.40002441406</ele>
        <time>2017-05-21T06:01:44.000Z</time>
      </trkpt>
      <trkpt lat="44.09424" lon="5.99896">
        <ele>532.40002441406</ele>
        <time>2017-05-21T06:01:48.000Z</time>
      </trkpt>
      <trkpt lat="44.09437" lon="5.99909">
        <ele>527</ele>
        <time>2017-05-21T06:01:55.000Z</time>
      </trkpt>
      <trkpt lat="44.09444" lon="5.99927">
        <ele>523.20001220703</ele>
        <time>2017-05-21T06:02:45.000Z</time>
      </trkpt>
      <trkpt lat="44.09463" lon="5.99933">
        <ele>520</ele>
        <time>2017-05-21T06:02:48.000Z</time>
      </trkpt>
      <trkpt lat="44.09487" lon="5.99949">
        <ele>515</ele>
        <time>2017-05-21T06:02:51.000Z</time>
      </trkpt>
      <trkpt lat="44.09494" lon="5.99954">
        <ele>513.59997558594</ele>
        <time>2017-05-21T06:02:52.000Z</time>
      </trkpt>
      <trkpt lat="44.09514" lon="5.99951">
        <ele>510.39999389648</ele>
        <time>2017-05-21T06:02:56.000Z</time>
      </trkpt>
      <trkpt lat="44.09509" lon="5.99924">
        <ele>512.59997558594</ele>
        <time>2017-05-21T06:03:02.000Z</time>
      </trkpt>
      <trkpt lat="44.09507" lon="5.9992">
        <ele>513.20001220703</ele>
        <time>2017-05-21T06:03:03.000Z</time>
      </trkpt>
      <trkpt lat="44.09496" lon="5.99898">
        <ele>516.20001220703</ele>
        <time>2017-05-21T06:03:09.000Z</time>
      </trkpt>
      <trkpt lat="44.09484" lon="5.99876">
        <ele>519.40002441406</ele>
        <time>2017-05-21T06:03:16.000Z</time>
      </trkpt>
      <trkpt lat="44.09479" lon="5.99852">
        <ele>521.40002441406</ele>
        <time>2017-05-21T06:03:23.000Z</time>
      </trkpt>
      <trkpt lat="44.0948" lon="5.99837">
        <ele>522.20001220703</ele>
        <time>2017-05-21T06:03:26.000Z</time>
      </trkpt>
      <trkpt lat="44.09492" lon="5.99827">
        <ele>521</ele>
        <time>2017-05-21T06:03:30.000Z</time>
      </trkpt>
      <trkpt lat="44.09511" lon="5.99822">
        <ele>518.59997558594</ele>
        <time>2017-05-21T06:03:35.000Z</time>
      </trkpt>
      <trkpt lat="44.09515" lon="5.9982">
        <ele>518</ele>
        <time>2017-05-21T06:03:36.000Z</time>
      </trkpt>
      <trkpt lat="44.09534" lon="5.99812">
        <ele>516</ele>
        <time>2017-05-21T06:03:40.000Z</time>
      </trkpt>
      <trkpt lat="44.09555" lon="5.99799">
        <ele>515</ele>
        <time>2017-05-21T06:03:44.000Z</time>
      </trkpt>
      <trkpt lat="44.09571" lon="5.99781">
        <ele>514.59997558594</ele>
        <time>2017-05-21T06:03:48.000Z</time>
      </trkpt>
      <trkpt lat="44.09579" lon="5.99773">
        <ele>514.40002441406</ele>
        <time>2017-05-21T06:03:50.000Z</time>
      </trkpt>
      <trkpt lat="44.09597" lon="5.99759">
        <ele>514.40002441406</ele>
        <time>2017-05-21T06:03:54.000Z</time>
      </trkpt>
      <trkpt lat="44.09619" lon="5.99756">
        <ele>513</ele>
        <time>2017-05-21T06:03:58.000Z</time>
      </trkpt>
      <trkpt lat="44.0963" lon="5.99754">
        <ele>512</ele>
        <time>2017-05-21T06:04:00.000Z</time>
      </trkpt>
      <trkpt lat="44.09651" lon="5.99746">
        <ele>510.79998779297</ele>
        <time>2017-05-21T06:04:04.000Z</time>
      </trkpt>
      <trkpt lat="44.09669" lon="5.9974">
        <ele>509.79998779297</ele>
        <time>2017-05-21T06:04:08.000Z</time>
      </trkpt>
      <trkpt lat="44.09688" lon="5.99741">
        <ele>508.20001220703</ele>
        <time>2017-05-21T06:04:12.000Z</time>
      </trkpt>
      <trkpt lat="44.09704" lon="5.99739">
        <ele>507.20001220703</ele>
        <time>2017-05-21T06:04:15.000Z</time>
      </trkpt>
      <trkpt lat="44.09723" lon="5.99732">
        <ele>506.79998779297</ele>
        <time>2017-05-21T06:04:18.000Z</time>
      </trkpt>
      <trkpt lat="44.09729" lon="5.99729">
        <ele>506.60000610352</ele>
        <time>2017-05-21T06:04:19.000Z</time>
      </trkpt>
      <trkpt lat="44.09749" lon="5.99719">
        <ele>506.39999389648</ele>
        <time>2017-05-21T06:04:22.000Z</time>
      </trkpt>
      <trkpt lat="44.09769" lon="5.99709">
        <ele>506</ele>
        <time>2017-05-21T06:04:25.000Z</time>
      </trkpt>
      <trkpt lat="44.09788" lon="5.99697">
        <ele>506.20001220703</ele>
        <time>2017-05-21T06:04:28.000Z</time>
      </trkpt>
      <trkpt lat="44.09806" lon="5.99685">
        <ele>506.39999389648</ele>
        <time>2017-05-21T06:04:31.000Z</time>
      </trkpt>
      <trkpt lat="44.09823" lon="5.99671">
        <ele>506.60000610352</ele>
        <time>2017-05-21T06:04:34.000Z</time>
      </trkpt>
      <trkpt lat="44.0984" lon="5.99657">
        <ele>506.39999389648</ele>
        <time>2017-05-21T06:04:37.000Z</time>
      </trkpt>
      <trkpt lat="44.09856" lon="5.99645">
        <ele>506</ele>
        <time>2017-05-21T06:04:40.000Z</time>
      </trkpt>
      <trkpt lat="44.09871" lon="5.99633">
        <ele>505.39999389648</ele>
        <time>2017-05-21T06:04:43.000Z</time>
      </trkpt>
      <trkpt lat="44.09882" lon="5.99612">
        <ele>505.20001220703</ele>
        <time>2017-05-21T06:04:46.000Z</time>
      </trkpt>
      <trkpt lat="44.09884" lon="5.99604">
        <ele>505.39999389648</ele>
        <time>2017-05-21T06:04:47.000Z</time>
      </trkpt>
      <trkpt lat="44.09893" lon="5.99578">
        <ele>505.39999389648</ele>
        <time>2017-05-21T06:04:51.000Z</time>
      </trkpt>
      <trkpt lat="44.09895" lon="5.99566">
        <ele>505.39999389648</ele>
        <time>2017-05-21T06:04:53.000Z</time>
      </trkpt>
      <trkpt lat="44.09901" lon="5.9954">
        <ele>505.39999389648</ele>
        <time>2017-05-21T06:04:58.000Z</time>
      </trkpt>
      <trkpt lat="44.09918" lon="5.99538">
        <ele>503.60000610352</ele>
        <time>2017-05-21T06:05:03.000Z</time>
      </trkpt>
      <trkpt lat="44.09937" lon="5.9954">
        <ele>502.39999389648</ele>
        <time>2017-05-21T06:05:08.000Z</time>
      </trkpt>
      <trkpt lat="44.09956" lon="5.99543">
        <ele>501.79998779297</ele>
        <time>2017-05-21T06:05:12.000Z</time>
      </trkpt>
      <trkpt lat="44.09975" lon="5.99547">
        <ele>501.79998779297</ele>
        <time>2017-05-21T06:05:16.000Z</time>
      </trkpt>
      <trkpt lat="44.09986" lon="5.99547">
        <ele>501.60000610352</ele>
        <time>2017-05-21T06:05:18.000Z</time>
      </trkpt>
      <trkpt lat="44.10005" lon="5.99538">
        <ele>502.20001220703</ele>
        <time>2017-05-21T06:05:22.000Z</time>
      </trkpt>
      <trkpt lat="44.10012" lon="5.99531">
        <ele>502.60000610352</ele>
        <time>2017-05-21T06:05:24.000Z</time>
      </trkpt>
      <trkpt lat="44.10028" lon="5.99511">
        <ele>503.79998779297</ele>
        <time>2017-05-21T06:05:29.000Z</time>
      </trkpt>
      <trkpt lat="44.10037" lon="5.99488">
        <ele>505.20001220703</ele>
        <time>2017-05-21T06:05:34.000Z</time>
      </trkpt>
      <trkpt lat="44.1004" lon="5.9946">
        <ele>506.79998779297</ele>
        <time>2017-05-21T06:05:40.000Z</time>
      </trkpt>
      <trkpt lat="44.10042" lon="5.99434">
        <ele>508.20001220703</ele>
        <time>2017-05-21T06:05:46.000Z</time>
      </trkpt>
      <trkpt lat="44.10044" lon="5.99427">
        <ele>508.60000610352</ele>
        <time>2017-05-21T06:05:48.000Z</time>
      </trkpt>
      <trkpt lat="44.10052" lon="5.99418">
        <ele>509.20001220703</ele>
        <time>2017-05-21T06:05:52.000Z</time>
      </trkpt>
      <trkpt lat="44.10071" lon="5.99417">
        <ele>509.20001220703</ele>
        <time>2017-05-21T06:05:58.000Z</time>
      </trkpt>
      <trkpt lat="44.10093" lon="5.9942">
        <ele>509</ele>
        <time>2017-05-21T06:06:04.000Z</time>
      </trkpt>
      <trkpt lat="44.10112" lon="5.99422">
        <ele>508.79998779297</ele>
        <time>2017-05-21T06:06:09.000Z</time>
      </trkpt>
      <trkpt lat="44.10132" lon="5.99423">
        <ele>508.79998779297</ele>
        <time>2017-05-21T06:06:14.000Z</time>
      </trkpt>
      <trkpt lat="44.10153" lon="5.99425">
        <ele>508.60000610352</ele>
        <time>2017-05-21T06:06:19.000Z</time>
      </trkpt>
      <trkpt lat="44.10171" lon="5.99426">
        <ele>508.60000610352</ele>
        <time>2017-05-21T06:06:23.000Z</time>
      </trkpt>
      <trkpt lat="44.10189" lon="5.99427">
        <ele>508.39999389648</ele>
        <time>2017-05-21T06:06:27.000Z</time>
      </trkpt>
      <trkpt lat="44.10211" lon="5.99427">
        <ele>508</ele>
        <time>2017-05-21T06:06:32.000Z</time>
      </trkpt>
      <trkpt lat="44.10231" lon="5.99427">
        <ele>507.60000610352</ele>
        <time>2017-05-21T06:06:37.000Z</time>
      </trkpt>
      <trkpt lat="44.10253" lon="5.99426">
        <ele>507.79998779297</ele>
        <time>2017-05-21T06:06:42.000Z</time>
      </trkpt>
      <trkpt lat="44.10275" lon="5.99424">
        <ele>507.79998779297</ele>
        <time>2017-05-21T06:06:47.000Z</time>
      </trkpt>
      <trkpt lat="44.10296" lon="5.99424">
        <ele>508.79998779297</ele>
        <time>2017-05-21T06:06:52.000Z</time>
      </trkpt>
      <trkpt lat="44.10318" lon="5.99421">
        <ele>510.20001220703</ele>
        <time>2017-05-21T06:06:57.000Z</time>
      </trkpt>
      <trkpt lat="44.10338" lon="5.99417">
        <ele>511.60000610352</ele>
        <time>2017-05-21T06:07:02.000Z</time>
      </trkpt>
      <trkpt lat="44.10359" lon="5.99412">
        <ele>513</ele>
        <time>2017-05-21T06:07:07.000Z</time>
      </trkpt>
      <trkpt lat="44.10378" lon="5.99405">
        <ele>513.59997558594</ele>
        <time>2017-05-21T06:07:12.000Z</time>
      </trkpt>
      <trkpt lat="44.10398" lon="5.99397">
        <ele>514</ele>
        <time>2017-05-21T06:07:17.000Z</time>
      </trkpt>
      <trkpt lat="44.10419" lon="5.9939">
        <ele>514.40002441406</ele>
        <time>2017-05-21T06:07:22.000Z</time>
      </trkpt>
      <trkpt lat="44.10439" lon="5.99382">
        <ele>515</ele>
        <time>2017-05-21T06:07:27.000Z</time>
      </trkpt>
      <trkpt lat="44.10458" lon="5.99373">
        <ele>515.79998779297</ele>
        <time>2017-05-21T06:07:32.000Z</time>
      </trkpt>
      <trkpt lat="44.10478" lon="5.99364">
        <ele>516</ele>
        <time>2017-05-21T06:07:37.000Z</time>
      </trkpt>
      <trkpt lat="44.10498" lon="5.99354">
        <ele>516.20001220703</ele>
        <time>2017-05-21T06:07:42.000Z</time>
      </trkpt>
      <trkpt lat="44.10518" lon="5.99342">
        <ele>515.79998779297</ele>
        <time>2017-05-21T06:07:47.000Z</time>
      </trkpt>
      <trkpt lat="44.10537" lon="5.99329">
        <ele>515.40002441406</ele>
        <time>2017-05-21T06:07:52.000Z</time>
      </trkpt>
      <trkpt lat="44.10555" lon="5.99317">
        <ele>514.59997558594</ele>
        <time>2017-05-21T06:07:57.000Z</time>
      </trkpt>
      <trkpt lat="44.10574" lon="5.99303">
        <ele>514.40002441406</ele>
        <time>2017-05-21T06:08:02.000Z</time>
      </trkpt>
      <trkpt lat="44.10592" lon="5.99288">
        <ele>515</ele>
        <time>2017-05-21T06:08:07.000Z</time>
      </trkpt>
      <trkpt lat="44.10608" lon="5.99272">
        <ele>516</ele>
        <time>2017-05-21T06:08:12.000Z</time>
      </trkpt>
      <trkpt lat="44.10624" lon="5.99256">
        <ele>517.59997558594</ele>
        <time>2017-05-21T06:08:17.000Z</time>
      </trkpt>
      <trkpt lat="44.10639" lon="5.9924">
        <ele>518.40002441406</ele>
        <time>2017-05-21T06:08:22.000Z</time>
      </trkpt>
      <trkpt lat="44.10655" lon="5.99226">
        <ele>518.20001220703</ele>
        <time>2017-05-21T06:08:27.000Z</time>
      </trkpt>
      <trkpt lat="44.1067" lon="5.99211">
        <ele>519.40002441406</ele>
        <time>2017-05-21T06:08:32.000Z</time>
      </trkpt>
      <trkpt lat="44.10686" lon="5.99197">
        <ele>520.20001220703</ele>
        <time>2017-05-21T06:08:37.000Z</time>
      </trkpt>
      <trkpt lat="44.10701" lon="5.99184">
        <ele>521.59997558594</ele>
        <time>2017-05-21T06:08:42.000Z</time>
      </trkpt>
      <trkpt lat="44.10717" lon="5.9917">
        <ele>523.79998779297</ele>
        <time>2017-05-21T06:08:47.000Z</time>
      </trkpt>
      <trkpt lat="44.10733" lon="5.99155">
        <ele>523.79998779297</ele>
        <time>2017-05-21T06:08:52.000Z</time>
      </trkpt>
      <trkpt lat="44.1075" lon="5.9914">
        <ele>523.59997558594</ele>
        <time>2017-05-21T06:08:57.000Z</time>
      </trkpt>
      <trkpt lat="44.10767" lon="5.99122">
        <ele>523.79998779297</ele>
        <time>2017-05-21T06:09:02.000Z</time>
      </trkpt>
      <trkpt lat="44.10781" lon="5.99104">
        <ele>524.20001220703</ele>
        <time>2017-05-21T06:09:07.000Z</time>
      </trkpt>
      <trkpt lat="44.10794" lon="5.99082">
        <ele>526</ele>
        <time>2017-05-21T06:09:13.000Z</time>
      </trkpt>
      <trkpt lat="44.10795" lon="5.99057">
        <ele>527.40002441406</ele>
        <time>2017-05-21T06:09:20.000Z</time>
      </trkpt>
      <trkpt lat="44.10783" lon="5.99037">
        <ele>530.59997558594</ele>
        <time>2017-05-21T06:09:29.000Z</time>
      </trkpt>
      <trkpt lat="44.10768" lon="5.99022">
        <ele>534</ele>
        <time>2017-05-21T06:09:40.000Z</time>
      </trkpt>
      <trkpt lat="44.10758" lon="5.99011">
        <ele>536.20001220703</ele>
        <time>2017-05-21T06:09:47.000Z</time>
      </trkpt>
      <trkpt lat="44.10749" lon="5.98988">
        <ele>539.40002441406</ele>
        <time>2017-05-21T06:09:57.000Z</time>
      </trkpt>
      <trkpt lat="44.10734" lon="5.98971">
        <ele>542.59997558594</ele>
        <time>2017-05-21T06:10:06.000Z</time>
      </trkpt>
      <trkpt lat="44.10722" lon="5.9895">
        <ele>544.20001220703</ele>
        <time>2017-05-21T06:10:14.000Z</time>
      </trkpt>
      <trkpt lat="44.10713" lon="5.98928">
        <ele>545.40002441406</ele>
        <time>2017-05-21T06:10:20.000Z</time>
      </trkpt>
      <trkpt lat="44.107" lon="5.98909">
        <ele>547.20001220703</ele>
        <time>2017-05-21T06:10:25.000Z</time>
      </trkpt>
      <trkpt lat="44.10683" lon="5.98891">
        <ele>549.79998779297</ele>
        <time>2017-05-21T06:10:30.000Z</time>
      </trkpt>
      <trkpt lat="44.10668" lon="5.98875">
        <ele>551</ele>
        <time>2017-05-21T06:10:35.000Z</time>
      </trkpt>
      <trkpt lat="44.1065" lon="5.98858">
        <ele>552.59997558594</ele>
        <time>2017-05-21T06:10:40.000Z</time>
      </trkpt>
      <trkpt lat="44.10639" lon="5.98829">
        <ele>552</ele>
        <time>2017-05-21T06:10:44.000Z</time>
      </trkpt>
      <trkpt lat="44.10644" lon="5.98808">
        <ele>549.40002441406</ele>
        <time>2017-05-21T06:10:49.000Z</time>
      </trkpt>
      <trkpt lat="44.10661" lon="5.98818">
        <ele>547.20001220703</ele>
        <time>2017-05-21T06:10:57.000Z</time>
      </trkpt>
      <trkpt lat="44.10668" lon="5.98815">
        <ele>545.79998779297</ele>
        <time>2017-05-21T06:11:00.000Z</time>
      </trkpt>
      <trkpt lat="44.10676" lon="5.98803">
        <ele>544.20001220703</ele>
        <time>2017-05-21T06:11:07.000Z</time>
      </trkpt>
      <trkpt lat="44.10675" lon="5.98777">
        <ele>546</ele>
        <time>2017-05-21T06:11:17.000Z</time>
      </trkpt>
      <trkpt lat="44.10682" lon="5.98752">
        <ele>546.79998779297</ele>
        <time>2017-05-21T06:11:26.000Z</time>
      </trkpt>
      <trkpt lat="44.10692" lon="5.98731">
        <ele>546.79998779297</ele>
        <time>2017-05-21T06:11:34.000Z</time>
      </trkpt>
      <trkpt lat="44.10701" lon="5.98707">
        <ele>548.79998779297</ele>
        <time>2017-05-21T06:11:44.000Z</time>
      </trkpt>
      <trkpt lat="44.10718" lon="5.98702">
        <ele>549.40002441406</ele>
        <time>2017-05-21T06:11:53.000Z</time>
      </trkpt>
      <trkpt lat="44.10737" lon="5.98699">
        <ele>549.79998779297</ele>
        <time>2017-05-21T06:12:01.000Z</time>
      </trkpt>
      <trkpt lat="44.10754" lon="5.98685">
        <ele>551.40002441406</ele>
        <time>2017-05-21T06:12:10.000Z</time>
      </trkpt>
      <trkpt lat="44.1077" lon="5.98674">
        <ele>553</ele>
        <time>2017-05-21T06:12:20.000Z</time>
      </trkpt>
      <trkpt lat="44.10789" lon="5.98663">
        <ele>553.79998779297</ele>
        <time>2017-05-21T06:12:28.000Z</time>
      </trkpt>
      <trkpt lat="44.10805" lon="5.98647">
        <ele>554.40002441406</ele>
        <time>2017-05-21T06:12:35.000Z</time>
      </trkpt>
      <trkpt lat="44.10817" lon="5.98639">
        <ele>554.40002441406</ele>
        <time>2017-05-21T06:12:39.000Z</time>
      </trkpt>
      <trkpt lat="44.10833" lon="5.98627">
        <ele>554.20001220703</ele>
        <time>2017-05-21T06:12:43.000Z</time>
      </trkpt>
      <trkpt lat="44.10838" lon="5.98603">
        <ele>555.40002441406</ele>
        <time>2017-05-21T06:12:48.000Z</time>
      </trkpt>
      <trkpt lat="44.10835" lon="5.98589">
        <ele>556.59997558594</ele>
        <time>2017-05-21T06:12:52.000Z</time>
      </trkpt>
      <trkpt lat="44.10832" lon="5.98562">
        <ele>558.40002441406</ele>
        <time>2017-05-21T06:13:00.000Z</time>
      </trkpt>
      <trkpt lat="44.10828" lon="5.98553">
        <ele>559.20001220703</ele>
        <time>2017-05-21T06:13:03.000Z</time>
      </trkpt>
      <trkpt lat="44.10836" lon="5.9853">
        <ele>559.40002441406</ele>
        <time>2017-05-21T06:13:09.000Z</time>
      </trkpt>
      <trkpt lat="44.10846" lon="5.98523">
        <ele>559.20001220703</ele>
        <time>2017-05-21T06:13:13.000Z</time>
      </trkpt>
      <trkpt lat="44.10862" lon="5.9854">
        <ele>557.20001220703</ele>
        <time>2017-05-21T06:13:22.000Z</time>
      </trkpt>
      <trkpt lat="44.10871" lon="5.98563">
        <ele>556.20001220703</ele>
        <time>2017-05-21T06:13:28.000Z</time>
      </trkpt>
      <trkpt lat="44.10881" lon="5.98586">
        <ele>554.79998779297</ele>
        <time>2017-05-21T06:13:35.000Z</time>
      </trkpt>
      <trkpt lat="44.10888" lon="5.9861">
        <ele>553.59997558594</ele>
        <time>2017-05-21T06:13:41.000Z</time>
      </trkpt>
      <trkpt lat="44.10897" lon="5.98633">
        <ele>552.40002441406</ele>
        <time>2017-05-21T06:13:47.000Z</time>
      </trkpt>
      <trkpt lat="44.10908" lon="5.98653">
        <ele>551.20001220703</ele>
        <time>2017-05-21T06:13:52.000Z</time>
      </trkpt>
      <trkpt lat="44.10921" lon="5.98674">
        <ele>550.20001220703</ele>
        <time>2017-05-21T06:13:57.000Z</time>
      </trkpt>
      <trkpt lat="44.10939" lon="5.98686">
        <ele>549.59997558594</ele>
        <time>2017-05-21T06:14:02.000Z</time>
      </trkpt>
      <trkpt lat="44.10948" lon="5.98684">
        <ele>549.79998779297</ele>
        <time>2017-05-21T06:14:04.000Z</time>
      </trkpt>
      <trkpt lat="44.10967" lon="5.98672">
        <ele>550.20001220703</ele>
        <time>2017-05-21T06:14:09.000Z</time>
      </trkpt>
      <trkpt lat="44.10986" lon="5.98658">
        <ele>551.40002441406</ele>
        <time>2017-05-21T06:14:14.000Z</time>
      </trkpt>
      <trkpt lat="44.11004" lon="5.98652">
        <ele>552</ele>
        <time>2017-05-21T06:14:18.000Z</time>
      </trkpt>
      <trkpt lat="44.11022" lon="5.98646">
        <ele>552.59997558594</ele>
        <time>2017-05-21T06:14:23.000Z</time>
      </trkpt>
      <trkpt lat="44.11042" lon="5.98644">
        <ele>552</ele>
        <time>2017-05-21T06:14:27.000Z</time>
      </trkpt>
      <trkpt lat="44.11048" lon="5.98644">
        <ele>551.79998779297</ele>
        <time>2017-05-21T06:14:28.000Z</time>
      </trkpt>
      <trkpt lat="44.11069" lon="5.98638">
        <ele>551.40002441406</ele>
        <time>2017-05-21T06:14:32.000Z</time>
      </trkpt>
      <trkpt lat="44.1109" lon="5.98639">
        <ele>550.40002441406</ele>
        <time>2017-05-21T06:14:36.000Z</time>
      </trkpt>
      <trkpt lat="44.11113" lon="5.98644">
        <ele>548.40002441406</ele>
        <time>2017-05-21T06:14:40.000Z</time>
      </trkpt>
      <trkpt lat="44.11132" lon="5.9864">
        <ele>548</ele>
        <time>2017-05-21T06:14:43.000Z</time>
      </trkpt>
      <trkpt lat="44.11145" lon="5.98633">
        <ele>548.20001220703</ele>
        <time>2017-05-21T06:14:45.000Z</time>
      </trkpt>
      <trkpt lat="44.11162" lon="5.98622">
        <ele>548.79998779297</ele>
        <time>2017-05-21T06:14:48.000Z</time>
      </trkpt>
      <trkpt lat="44.11171" lon="5.98616">
        <ele>549</ele>
        <time>2017-05-21T06:14:50.000Z</time>
      </trkpt>
      <trkpt lat="44.11191" lon="5.98607">
        <ele>548.79998779297</ele>
        <time>2017-05-21T06:14:55.000Z</time>
      </trkpt>
      <trkpt lat="44.112" lon="5.98599">
        <ele>549</ele>
        <time>2017-05-21T06:14:58.000Z</time>
      </trkpt>
      <trkpt lat="44.11212" lon="5.98589">
        <ele>549</ele>
        <time>2017-05-21T06:15:01.000Z</time>
      </trkpt>
      <trkpt lat="44.11233" lon="5.98583">
        <ele>548.40002441406</ele>
        <time>2017-05-21T06:15:05.000Z</time>
      </trkpt>
      <trkpt lat="44.11252" lon="5.98574">
        <ele>548.20001220703</ele>
        <time>2017-05-21T06:15:09.000Z</time>
      </trkpt>
      <trkpt lat="44.11271" lon="5.98567">
        <ele>548</ele>
        <time>2017-05-21T06:15:13.000Z</time>
      </trkpt>
      <trkpt lat="44.1128" lon="5.98566">
        <ele>547.40002441406</ele>
        <time>2017-05-21T06:15:15.000Z</time>
      </trkpt>
      <trkpt lat="44.11297" lon="5.98565">
        <ele>546</ele>
        <time>2017-05-21T06:15:18.000Z</time>
      </trkpt>
      <trkpt lat="44.1132" lon="5.98563">
        <ele>544.59997558594</ele>
        <time>2017-05-21T06:15:22.000Z</time>
      </trkpt>
      <trkpt lat="44.11338" lon="5.98561">
        <ele>543.40002441406</ele>
        <time>2017-05-21T06:15:25.000Z</time>
      </trkpt>
      <trkpt lat="44.11358" lon="5.98561">
        <ele>541.59997558594</ele>
        <time>2017-05-21T06:15:28.000Z</time>
      </trkpt>
      <trkpt lat="44.11376" lon="5.98562">
        <ele>539.40002441406</ele>
        <time>2017-05-21T06:15:31.000Z</time>
      </trkpt>
      <trkpt lat="44.11398" lon="5.98554">
        <ele>537.20001220703</ele>
        <time>2017-05-21T06:15:35.000Z</time>
      </trkpt>
      <trkpt lat="44.11403" lon="5.98553">
        <ele>536.59997558594</ele>
        <time>2017-05-21T06:15:36.000Z</time>
      </trkpt>
      <trkpt lat="44.11428" lon="5.98551">
        <ele>533.20001220703</ele>
        <time>2017-05-21T06:15:40.000Z</time>
      </trkpt>
      <trkpt lat="44.11448" lon="5.98544">
        <ele>532.20001220703</ele>
        <time>2017-05-21T06:15:43.000Z</time>
      </trkpt>
      <trkpt lat="44.1147" lon="5.98534">
        <ele>532.40002441406</ele>
        <time>2017-05-21T06:15:46.000Z</time>
      </trkpt>
      <trkpt lat="44.1149" lon="5.98524">
        <ele>532.59997558594</ele>
        <time>2017-05-21T06:15:49.000Z</time>
      </trkpt>
      <trkpt lat="44.11501" lon="5.98519">
        <ele>531.20001220703</ele>
        <time>2017-05-21T06:15:51.000Z</time>
      </trkpt>
      <trkpt lat="44.11519" lon="5.9851">
        <ele>528.59997558594</ele>
        <time>2017-05-21T06:15:55.000Z</time>
      </trkpt>
      <trkpt lat="44.11524" lon="5.98506">
        <ele>528</ele>
        <time>2017-05-21T06:15:56.000Z</time>
      </trkpt>
      <trkpt lat="44.11535" lon="5.98479">
        <ele>528.79998779297</ele>
        <time>2017-05-21T06:16:00.000Z</time>
      </trkpt>
      <trkpt lat="44.11532" lon="5.98449">
        <ele>531</ele>
        <time>2017-05-21T06:16:04.000Z</time>
      </trkpt>
      <trkpt lat="44.11546" lon="5.9844">
        <ele>529.79998779297</ele>
        <time>2017-05-21T06:16:10.000Z</time>
      </trkpt>
      <trkpt lat="44.11552" lon="5.98444">
        <ele>528.59997558594</ele>
        <time>2017-05-21T06:16:12.000Z</time>
      </trkpt>
      <trkpt lat="44.11571" lon="5.98453">
        <ele>525.20001220703</ele>
        <time>2017-05-21T06:16:17.000Z</time>
      </trkpt>
      <trkpt lat="44.11583" lon="5.98455">
        <ele>523.40002441406</ele>
        <time>2017-05-21T06:16:20.000Z</time>
      </trkpt>
      <trkpt lat="44.11603" lon="5.98447">
        <ele>521.79998779297</ele>
        <time>2017-05-21T06:16:24.000Z</time>
      </trkpt>
      <trkpt lat="44.11621" lon="5.98429">
        <ele>522.59997558594</ele>
        <time>2017-05-21T06:16:28.000Z</time>
      </trkpt>
      <trkpt lat="44.11638" lon="5.98407">
        <ele>523.40002441406</ele>
        <time>2017-05-21T06:16:32.000Z</time>
      </trkpt>
      <trkpt lat="44.11655" lon="5.98384">
        <ele>523</ele>
        <time>2017-05-21T06:16:36.000Z</time>
      </trkpt>
      <trkpt lat="44.11676" lon="5.98371">
        <ele>522.40002441406</ele>
        <time>2017-05-21T06:16:40.000Z</time>
      </trkpt>
      <trkpt lat="44.11694" lon="5.98362">
        <ele>521.20001220703</ele>
        <time>2017-05-21T06:16:45.000Z</time>
      </trkpt>
      <trkpt lat="44.11695" lon="5.98358">
        <ele>521.59997558594</ele>
        <time>2017-05-21T06:16:46.000Z</time>
      </trkpt>
      <trkpt lat="44.11701" lon="5.98343">
        <ele>522.79998779297</ele>
        <time>2017-05-21T06:16:52.000Z</time>
      </trkpt>
      <trkpt lat="44.11702" lon="5.98339">
        <ele>523</ele>
        <time>2017-05-21T06:22:18.000Z</time>
      </trkpt>
      <trkpt lat="44.11696" lon="5.98322">
        <ele>525.40002441406</ele>
        <time>2017-05-21T06:23:52.000Z</time>
      </trkpt>
      <trkpt lat="44.11697" lon="5.98306">
        <ele>526.59997558594</ele>
        <time>2017-05-21T06:24:00.000Z</time>
      </trkpt>
      <trkpt lat="44.11707" lon="5.98282">
        <ele>527</ele>
        <time>2017-05-21T06:24:07.000Z</time>
      </trkpt>
      <trkpt lat="44.11721" lon="5.9826">
        <ele>526.79998779297</ele>
        <time>2017-05-21T06:24:13.000Z</time>
      </trkpt>
      <trkpt lat="44.11728" lon="5.98251">
        <ele>526.40002441406</ele>
        <time>2017-05-21T06:24:15.000Z</time>
      </trkpt>
      <trkpt lat="44.11745" lon="5.98236">
        <ele>524.40002441406</ele>
        <time>2017-05-21T06:24:19.000Z</time>
      </trkpt>
      <trkpt lat="44.11758" lon="5.98223">
        <ele>523.20001220703</ele>
        <time>2017-05-21T06:24:22.000Z</time>
      </trkpt>
      <trkpt lat="44.11762" lon="5.98219">
        <ele>522.79998779297</ele>
        <time>2017-05-21T06:24:23.000Z</time>
      </trkpt>
      <trkpt lat="44.11781" lon="5.98204">
        <ele>520</ele>
        <time>2017-05-21T06:24:26.000Z</time>
      </trkpt>
      <trkpt lat="44.11798" lon="5.98187">
        <ele>517.79998779297</ele>
        <time>2017-05-21T06:24:29.000Z</time>
      </trkpt>
      <trkpt lat="44.11804" lon="5.98179">
        <ele>517.20001220703</ele>
        <time>2017-05-21T06:24:30.000Z</time>
      </trkpt>
      <trkpt lat="44.11822" lon="5.9816">
        <ele>515</ele>
        <time>2017-05-21T06:24:33.000Z</time>
      </trkpt>
      <trkpt lat="44.11843" lon="5.9815">
        <ele>512.40002441406</ele>
        <time>2017-05-21T06:24:37.000Z</time>
      </trkpt>
      <trkpt lat="44.11856" lon="5.9815">
        <ele>510.39999389648</ele>
        <time>2017-05-21T06:24:40.000Z</time>
      </trkpt>
      <trkpt lat="44.11862" lon="5.98151">
        <ele>509.60000610352</ele>
        <time>2017-05-21T06:24:41.000Z</time>
      </trkpt>
      <trkpt lat="44.11881" lon="5.98134">
        <ele>507.20001220703</ele>
        <time>2017-05-21T06:24:45.000Z</time>
      </trkpt>
      <trkpt lat="44.11884" lon="5.9812">
        <ele>506.60000610352</ele>
        <time>2017-05-21T06:24:47.000Z</time>
      </trkpt>
      <trkpt lat="44.11888" lon="5.98105">
        <ele>505.79998779297</ele>
        <time>2017-05-21T06:24:49.000Z</time>
      </trkpt>
      <trkpt lat="44.11887" lon="5.98078">
        <ele>505.60000610352</ele>
        <time>2017-05-21T06:24:53.000Z</time>
      </trkpt>
      <trkpt lat="44.11899" lon="5.98052">
        <ele>502.79998779297</ele>
        <time>2017-05-21T06:24:57.000Z</time>
      </trkpt>
      <trkpt lat="44.11905" lon="5.98046">
        <ele>502</ele>
        <time>2017-05-21T06:24:58.000Z</time>
      </trkpt>
      <trkpt lat="44.11908" lon="5.98039">
        <ele>501.20001220703</ele>
        <time>2017-05-21T06:24:59.000Z</time>
      </trkpt>
      <trkpt lat="44.11901" lon="5.98018">
        <ele>502.20001220703</ele>
        <time>2017-05-21T06:25:04.000Z</time>
      </trkpt>
      <trkpt lat="44.11896" lon="5.98013">
        <ele>503</ele>
        <time>2017-05-21T06:25:06.000Z</time>
      </trkpt>
      <trkpt lat="44.1188" lon="5.98001">
        <ele>505.20001220703</ele>
        <time>2017-05-21T06:25:12.000Z</time>
      </trkpt>
      <trkpt lat="44.11868" lon="5.97994">
        <ele>507</ele>
        <time>2017-05-21T06:25:19.000Z</time>
      </trkpt>
      <trkpt lat="44.11857" lon="5.97973">
        <ele>509.20001220703</ele>
        <time>2017-05-21T06:25:57.000Z</time>
      </trkpt>
      <trkpt lat="44.11855" lon="5.97966">
        <ele>509.79998779297</ele>
        <time>2017-05-21T06:26:01.000Z</time>
      </trkpt>
      <trkpt lat="44.11847" lon="5.97943">
        <ele>512.79998779297</ele>
        <time>2017-05-21T06:26:26.000Z</time>
      </trkpt>
      <trkpt lat="44.11843" lon="5.97942">
        <ele>514</ele>
        <time>2017-05-21T06:26:29.000Z</time>
      </trkpt>
      <trkpt lat="44.11838" lon="5.97945">
        <ele>516</ele>
        <time>2017-05-21T06:26:36.000Z</time>
      </trkpt>
      <trkpt lat="44.11836" lon="5.97924">
        <ele>516.79998779297</ele>
        <time>2017-05-21T06:26:50.000Z</time>
      </trkpt>
      <trkpt lat="44.11838" lon="5.97905">
        <ele>516.20001220703</ele>
        <time>2017-05-21T06:27:03.000Z</time>
      </trkpt>
      <trkpt lat="44.11835" lon="5.97881">
        <ele>516.59997558594</ele>
        <time>2017-05-21T06:27:14.000Z</time>
      </trkpt>
      <trkpt lat="44.11848" lon="5.97871">
        <ele>512.40002441406</ele>
        <time>2017-05-21T06:27:52.000Z</time>
      </trkpt>
      <trkpt lat="44.11866" lon="5.97868">
        <ele>508.60000610352</ele>
        <time>2017-05-21T06:27:56.000Z</time>
      </trkpt>
      <trkpt lat="44.11874" lon="5.97866">
        <ele>507.20001220703</ele>
        <time>2017-05-21T06:27:58.000Z</time>
      </trkpt>
      <trkpt lat="44.1189" lon="5.97876">
        <ele>503.39999389648</ele>
        <time>2017-05-21T06:28:03.000Z</time>
      </trkpt>
      <trkpt lat="44.11903" lon="5.9789">
        <ele>500.20001220703</ele>
        <time>2017-05-21T06:28:10.000Z</time>
      </trkpt>
      <trkpt lat="44.11911" lon="5.97895">
        <ele>498.79998779297</ele>
        <time>2017-05-21T06:28:12.000Z</time>
      </trkpt>
      <trkpt lat="44.11926" lon="5.979">
        <ele>495.79998779297</ele>
        <time>2017-05-21T06:28:20.000Z</time>
      </trkpt>
      <trkpt lat="44.11929" lon="5.97904">
        <ele>495.39999389648</ele>
        <time>2017-05-21T06:28:24.000Z</time>
      </trkpt>
      <trkpt lat="44.11948" lon="5.97895">
        <ele>491.20001220703</ele>
        <time>2017-05-21T06:28:32.000Z</time>
      </trkpt>
      <trkpt lat="44.11955" lon="5.97892">
        <ele>489.79998779297</ele>
        <time>2017-05-21T06:28:34.000Z</time>
      </trkpt>
      <trkpt lat="44.11959" lon="5.97889">
        <ele>488.79998779297</ele>
        <time>2017-05-21T06:28:36.000Z</time>
      </trkpt>
      <trkpt lat="44.11963" lon="5.97882">
        <ele>487.79998779297</ele>
        <time>2017-05-21T06:28:40.000Z</time>
      </trkpt>
      <trkpt lat="44.11979" lon="5.97869">
        <ele>484.20001220703</ele>
        <time>2017-05-21T06:28:48.000Z</time>
      </trkpt>
      <trkpt lat="44.11983" lon="5.97859">
        <ele>483.20001220703</ele>
        <time>2017-05-21T06:28:51.000Z</time>
      </trkpt>
      <trkpt lat="44.11991" lon="5.97835">
        <ele>481.79998779297</ele>
        <time>2017-05-21T06:28:57.000Z</time>
      </trkpt>
      <trkpt lat="44.11995" lon="5.97808">
        <ele>482</ele>
        <time>2017-05-21T06:29:03.000Z</time>
      </trkpt>
      <trkpt lat="44.11996" lon="5.978">
        <ele>481.20001220703</ele>
        <time>2017-05-21T06:29:05.000Z</time>
      </trkpt>
      <trkpt lat="44.12003" lon="5.97789">
        <ele>479</ele>
        <time>2017-05-21T06:29:26.000Z</time>
      </trkpt>
      <trkpt lat="44.12011" lon="5.97799">
        <ele>478.60000610352</ele>
        <time>2017-05-21T06:29:32.000Z</time>
      </trkpt>
      <trkpt lat="44.1202" lon="5.97824">
        <ele>477.79998779297</ele>
        <time>2017-05-21T06:29:40.000Z</time>
      </trkpt>
      <trkpt lat="44.12021" lon="5.9785">
        <ele>476.79998779297</ele>
        <time>2017-05-21T06:29:46.000Z</time>
      </trkpt>
      <trkpt lat="44.12018" lon="5.97875">
        <ele>476.79998779297</ele>
        <time>2017-05-21T06:29:52.000Z</time>
      </trkpt>
      <trkpt lat="44.12017" lon="5.97881">
        <ele>476.79998779297</ele>
        <time>2017-05-21T06:29:53.000Z</time>
      </trkpt>
      <trkpt lat="44.12013" lon="5.97905">
        <ele>478.39999389648</ele>
        <time>2017-05-21T06:29:57.000Z</time>
      </trkpt>
      <trkpt lat="44.12023" lon="5.97929">
        <ele>477.20001220703</ele>
        <time>2017-05-21T06:30:04.000Z</time>
      </trkpt>
      <trkpt lat="44.12038" lon="5.97941">
        <ele>475.79998779297</ele>
        <time>2017-05-21T06:30:13.000Z</time>
      </trkpt>
      <trkpt lat="44.12039" lon="5.97927">
        <ele>475.20001220703</ele>
        <time>2017-05-21T06:30:19.000Z</time>
      </trkpt>
      <trkpt lat="44.12041" lon="5.97909">
        <ele>474.60000610352</ele>
        <time>2017-05-21T06:30:25.000Z</time>
      </trkpt>
      <trkpt lat="44.12051" lon="5.97918">
        <ele>474</ele>
        <time>2017-05-21T06:30:32.000Z</time>
      </trkpt>
      <trkpt lat="44.12065" lon="5.97937">
        <ele>473.39999389648</ele>
        <time>2017-05-21T06:30:40.000Z</time>
      </trkpt>
      <trkpt lat="44.12082" lon="5.97947">
        <ele>472.39999389648</ele>
        <time>2017-05-21T06:30:48.000Z</time>
      </trkpt>
      <trkpt lat="44.12101" lon="5.97949">
        <ele>473.79998779297</ele>
        <time>2017-05-21T06:30:57.000Z</time>
      </trkpt>
      <trkpt lat="44.12121" lon="5.97941">
        <ele>475.39999389648</ele>
        <time>2017-05-21T06:31:06.000Z</time>
      </trkpt>
      <trkpt lat="44.12138" lon="5.97931">
        <ele>476.20001220703</ele>
        <time>2017-05-21T06:31:16.000Z</time>
      </trkpt>
      <trkpt lat="44.12156" lon="5.97923">
        <ele>478.39999389648</ele>
        <time>2017-05-21T06:31:26.000Z</time>
      </trkpt>
      <trkpt lat="44.12173" lon="5.97916">
        <ele>481.60000610352</ele>
        <time>2017-05-21T06:31:35.000Z</time>
      </trkpt>
      <trkpt lat="44.12191" lon="5.97915">
        <ele>483.39999389648</ele>
        <time>2017-05-21T06:31:43.000Z</time>
      </trkpt>
      <trkpt lat="44.12211" lon="5.97912">
        <ele>484.20001220703</ele>
        <time>2017-05-21T06:31:52.000Z</time>
      </trkpt>
      <trkpt lat="44.1223" lon="5.97904">
        <ele>486.39999389648</ele>
        <time>2017-05-21T06:32:02.000Z</time>
      </trkpt>
      <trkpt lat="44.12249" lon="5.97901">
        <ele>487.39999389648</ele>
        <time>2017-05-21T06:32:11.000Z</time>
      </trkpt>
      <trkpt lat="44.12268" lon="5.97897">
        <ele>488.39999389648</ele>
        <time>2017-05-21T06:32:22.000Z</time>
      </trkpt>
      <trkpt lat="44.12287" lon="5.97894">
        <ele>489.20001220703</ele>
        <time>2017-05-21T06:32:31.000Z</time>
      </trkpt>
      <trkpt lat="44.12303" lon="5.97878">
        <ele>491.79998779297</ele>
        <time>2017-05-21T06:32:41.000Z</time>
      </trkpt>
      <trkpt lat="44.12314" lon="5.97855">
        <ele>496</ele>
        <time>2017-05-21T06:32:49.000Z</time>
      </trkpt>
      <trkpt lat="44.12316" lon="5.9783">
        <ele>499.79998779297</ele>
        <time>2017-05-21T06:32:56.000Z</time>
      </trkpt>
      <trkpt lat="44.12317" lon="5.97804">
        <ele>503</ele>
        <time>2017-05-21T06:33:02.000Z</time>
      </trkpt>
      <trkpt lat="44.1232" lon="5.97778">
        <ele>505</ele>
        <time>2017-05-21T06:33:09.000Z</time>
      </trkpt>
      <trkpt lat="44.12324" lon="5.97752">
        <ele>506.79998779297</ele>
        <time>2017-05-21T06:33:17.000Z</time>
      </trkpt>
      <trkpt lat="44.1233" lon="5.97728">
        <ele>508.20001220703</ele>
        <time>2017-05-21T06:33:25.000Z</time>
      </trkpt>
      <trkpt lat="44.12332" lon="5.97703">
        <ele>508.39999389648</ele>
        <time>2017-05-21T06:33:35.000Z</time>
      </trkpt>
      <trkpt lat="44.12319" lon="5.97685">
        <ele>509.39999389648</ele>
        <time>2017-05-21T06:33:45.000Z</time>
      </trkpt>
      <trkpt lat="44.12303" lon="5.9767">
        <ele>510.79998779297</ele>
        <time>2017-05-21T06:33:54.000Z</time>
      </trkpt>
      <trkpt lat="44.12286" lon="5.9766">
        <ele>512.20001220703</ele>
        <time>2017-05-21T06:34:03.000Z</time>
      </trkpt>
      <trkpt lat="44.12271" lon="5.97647">
        <ele>512.20001220703</ele>
        <time>2017-05-21T06:34:11.000Z</time>
      </trkpt>
      <trkpt lat="44.1227" lon="5.9762">
        <ele>512.40002441406</ele>
        <time>2017-05-21T06:34:19.000Z</time>
      </trkpt>
      <trkpt lat="44.12276" lon="5.97595">
        <ele>514</ele>
        <time>2017-05-21T06:34:27.000Z</time>
      </trkpt>
      <trkpt lat="44.12286" lon="5.97572">
        <ele>514.40002441406</ele>
        <time>2017-05-21T06:34:36.000Z</time>
      </trkpt>
      <trkpt lat="44.12295" lon="5.97548">
        <ele>516.20001220703</ele>
        <time>2017-05-21T06:34:45.000Z</time>
      </trkpt>
      <trkpt lat="44.123" lon="5.97523">
        <ele>519.20001220703</ele>
        <time>2017-05-21T06:34:54.000Z</time>
      </trkpt>
      <trkpt lat="44.12307" lon="5.97499">
        <ele>522</ele>
        <time>2017-05-21T06:35:04.000Z</time>
      </trkpt>
      <trkpt lat="44.12318" lon="5.97483">
        <ele>523.20001220703</ele>
        <time>2017-05-21T06:35:28.000Z</time>
      </trkpt>
      <trkpt lat="44.12322" lon="5.97456">
        <ele>527</ele>
        <time>2017-05-21T06:35:37.000Z</time>
      </trkpt>
      <trkpt lat="44.12326" lon="5.97431">
        <ele>530.59997558594</ele>
        <time>2017-05-21T06:35:44.000Z</time>
      </trkpt>
      <trkpt lat="44.12332" lon="5.97406">
        <ele>532.79998779297</ele>
        <time>2017-05-21T06:35:52.000Z</time>
      </trkpt>
      <trkpt lat="44.12343" lon="5.97386">
        <ele>533.59997558594</ele>
        <time>2017-05-21T06:35:59.000Z</time>
      </trkpt>
      <trkpt lat="44.12355" lon="5.97367">
        <ele>534.20001220703</ele>
        <time>2017-05-21T06:36:05.000Z</time>
      </trkpt>
      <trkpt lat="44.12363" lon="5.97344">
        <ele>535.79998779297</ele>
        <time>2017-05-21T06:36:10.000Z</time>
      </trkpt>
      <trkpt lat="44.12365" lon="5.97322">
        <ele>537.20001220703</ele>
        <time>2017-05-21T06:36:14.000Z</time>
      </trkpt>
      <trkpt lat="44.12365" lon="5.97298">
        <ele>538.59997558594</ele>
        <time>2017-05-21T06:36:18.000Z</time>
      </trkpt>
      <trkpt lat="44.12375" lon="5.97277">
        <ele>537.59997558594</ele>
        <time>2017-05-21T06:36:22.000Z</time>
      </trkpt>
      <trkpt lat="44.12378" lon="5.97273">
        <ele>537.20001220703</ele>
        <time>2017-05-21T06:36:23.000Z</time>
      </trkpt>
      <trkpt lat="44.1239" lon="5.97252">
        <ele>536</ele>
        <time>2017-05-21T06:36:28.000Z</time>
      </trkpt>
      <trkpt lat="44.12398" lon="5.97228">
        <ele>536</ele>
        <time>2017-05-21T06:36:34.000Z</time>
      </trkpt>
      <trkpt lat="44.12405" lon="5.97218">
        <ele>535</ele>
        <time>2017-05-21T06:37:36.000Z</time>
      </trkpt>
      <trkpt lat="44.12423" lon="5.97227">
        <ele>532.20001220703</ele>
        <time>2017-05-21T06:37:40.000Z</time>
      </trkpt>
      <trkpt lat="44.12441" lon="5.97234">
        <ele>529</ele>
        <time>2017-05-21T06:37:44.000Z</time>
      </trkpt>
      <trkpt lat="44.12459" lon="5.97237">
        <ele>529.59997558594</ele>
        <time>2017-05-21T06:37:51.000Z</time>
      </trkpt>
      <trkpt lat="44.12473" lon="5.97254">
        <ele>530</ele>
        <time>2017-05-21T06:37:59.000Z</time>
      </trkpt>
      <trkpt lat="44.1249" lon="5.9725">
        <ele>531</ele>
        <time>2017-05-21T06:38:09.000Z</time>
      </trkpt>
      <trkpt lat="44.12494" lon="5.97256">
        <ele>531</ele>
        <time>2017-05-21T06:38:14.000Z</time>
      </trkpt>
      <trkpt lat="44.1249" lon="5.97266">
        <ele>530.79998779297</ele>
        <time>2017-05-21T06:38:18.000Z</time>
      </trkpt>
      <trkpt lat="44.12498" lon="5.97289">
        <ele>530.40002441406</ele>
        <time>2017-05-21T06:38:28.000Z</time>
      </trkpt>
      <trkpt lat="44.12514" lon="5.97283">
        <ele>531.59997558594</ele>
        <time>2017-05-21T06:38:50.000Z</time>
      </trkpt>
      <trkpt lat="44.12533" lon="5.97282">
        <ele>530.40002441406</ele>
        <time>2017-05-21T06:39:01.000Z</time>
      </trkpt>
      <trkpt lat="44.12537" lon="5.97285">
        <ele>529</ele>
        <time>2017-05-21T06:39:36.000Z</time>
      </trkpt>
      <trkpt lat="44.12529" lon="5.973">
        <ele>531.40002441406</ele>
        <time>2017-05-21T06:40:13.000Z</time>
      </trkpt>
      <trkpt lat="44.12526" lon="5.97325">
        <ele>529.79998779297</ele>
        <time>2017-05-21T06:40:16.000Z</time>
      </trkpt>
      <trkpt lat="44.1252" lon="5.97351">
        <ele>526.20001220703</ele>
        <time>2017-05-21T06:40:19.000Z</time>
      </trkpt>
      <trkpt lat="44.12511" lon="5.97377">
        <ele>522.40002441406</ele>
        <time>2017-05-21T06:40:23.000Z</time>
      </trkpt>
      <trkpt lat="44.1251" lon="5.97385">
        <ele>522</ele>
        <time>2017-05-21T06:40:24.000Z</time>
      </trkpt>
      <trkpt lat="44.12503" lon="5.97412">
        <ele>517.59997558594</ele>
        <time>2017-05-21T06:40:27.000Z</time>
      </trkpt>
      <trkpt lat="44.12499" lon="5.9742">
        <ele>515.79998779297</ele>
        <time>2017-05-21T06:40:28.000Z</time>
      </trkpt>
      <trkpt lat="44.12487" lon="5.97445">
        <ele>512</ele>
        <time>2017-05-21T06:40:31.000Z</time>
      </trkpt>
      <trkpt lat="44.12485" lon="5.97451">
        <ele>512</ele>
        <time>2017-05-21T06:40:32.000Z</time>
      </trkpt>
      <trkpt lat="44.1247" lon="5.97465">
        <ele>513</ele>
        <time>2017-05-21T06:40:36.000Z</time>
      </trkpt>
      <trkpt lat="44.12461" lon="5.97486">
        <ele>512.79998779297</ele>
        <time>2017-05-21T06:40:40.000Z</time>
      </trkpt>
      <trkpt lat="44.12468" lon="5.9751">
        <ele>510</ele>
        <time>2017-05-21T06:40:43.000Z</time>
      </trkpt>
      <trkpt lat="44.12473" lon="5.97542">
        <ele>506.39999389648</ele>
        <time>2017-05-21T06:40:46.000Z</time>
      </trkpt>
      <trkpt lat="44.12473" lon="5.97553">
        <ele>505.39999389648</ele>
        <time>2017-05-21T06:40:47.000Z</time>
      </trkpt>
      <trkpt lat="44.1247" lon="5.97582">
        <ele>503.20001220703</ele>
        <time>2017-05-21T06:40:50.000Z</time>
      </trkpt>
      <trkpt lat="44.12468" lon="5.97595">
        <ele>502.60000610352</ele>
        <time>2017-05-21T06:40:52.000Z</time>
      </trkpt>
      <trkpt lat="44.12461" lon="5.97622">
        <ele>502</ele>
        <time>2017-05-21T06:40:56.000Z</time>
      </trkpt>
      <trkpt lat="44.12455" lon="5.97637">
        <ele>501.79998779297</ele>
        <time>2017-05-21T06:40:59.000Z</time>
      </trkpt>
      <trkpt lat="44.12448" lon="5.97656">
        <ele>502</ele>
        <time>2017-05-21T06:41:23.000Z</time>
      </trkpt>
      <trkpt lat="44.1245" lon="5.97658">
        <ele>501.60000610352</ele>
        <time>2017-05-21T06:41:25.000Z</time>
      </trkpt>
      <trkpt lat="44.12469" lon="5.97644">
        <ele>499.60000610352</ele>
        <time>2017-05-21T06:41:32.000Z</time>
      </trkpt>
      <trkpt lat="44.12485" lon="5.97631">
        <ele>498.20001220703</ele>
        <time>2017-05-21T06:41:36.000Z</time>
      </trkpt>
      <trkpt lat="44.12489" lon="5.97629">
        <ele>497.79998779297</ele>
        <time>2017-05-21T06:41:37.000Z</time>
      </trkpt>
      <trkpt lat="44.12508" lon="5.97626">
        <ele>495.39999389648</ele>
        <time>2017-05-21T06:41:43.000Z</time>
      </trkpt>
      <trkpt lat="44.12524" lon="5.97617">
        <ele>494.39999389648</ele>
        <time>2017-05-21T06:41:49.000Z</time>
      </trkpt>
      <trkpt lat="44.12527" lon="5.97632">
        <ele>492.79998779297</ele>
        <time>2017-05-21T06:41:54.000Z</time>
      </trkpt>
      <trkpt lat="44.12528" lon="5.97642">
        <ele>491.79998779297</ele>
        <time>2017-05-21T06:41:56.000Z</time>
      </trkpt>
      <trkpt lat="44.12542" lon="5.97636">
        <ele>488</ele>
        <time>2017-05-21T06:42:00.000Z</time>
      </trkpt>
      <trkpt lat="44.1256" lon="5.9762">
        <ele>484</ele>
        <time>2017-05-21T06:42:03.000Z</time>
      </trkpt>
      <trkpt lat="44.12581" lon="5.97601">
        <ele>479.20001220703</ele>
        <time>2017-05-21T06:42:06.000Z</time>
      </trkpt>
      <trkpt lat="44.12598" lon="5.97584">
        <ele>475.60000610352</ele>
        <time>2017-05-21T06:42:09.000Z</time>
      </trkpt>
      <trkpt lat="44.12606" lon="5.97578">
        <ele>473.60000610352</ele>
        <time>2017-05-21T06:42:11.000Z</time>
      </trkpt>
      <trkpt lat="44.12619" lon="5.97582">
        <ele>471.60000610352</ele>
        <time>2017-05-21T06:42:15.000Z</time>
      </trkpt>
      <trkpt lat="44.12624" lon="5.97581">
        <ele>471.60000610352</ele>
        <time>2017-05-21T06:42:17.000Z</time>
      </trkpt>
      <trkpt lat="44.12637" lon="5.97563">
        <ele>471.60000610352</ele>
        <time>2017-05-21T06:42:27.000Z</time>
      </trkpt>
      <trkpt lat="44.12648" lon="5.97542">
        <ele>472.39999389648</ele>
        <time>2017-05-21T06:42:35.000Z</time>
      </trkpt>
      <trkpt lat="44.12656" lon="5.97517">
        <ele>474</ele>
        <time>2017-05-21T06:42:42.000Z</time>
      </trkpt>
      <trkpt lat="44.12664" lon="5.97494">
        <ele>473.60000610352</ele>
        <time>2017-05-21T06:42:48.000Z</time>
      </trkpt>
      <trkpt lat="44.12673" lon="5.9747">
        <ele>473.39999389648</ele>
        <time>2017-05-21T06:42:55.000Z</time>
      </trkpt>
      <trkpt lat="44.12683" lon="5.97449">
        <ele>473.39999389648</ele>
        <time>2017-05-21T06:43:01.000Z</time>
      </trkpt>
      <trkpt lat="44.12694" lon="5.97425">
        <ele>473</ele>
        <time>2017-05-21T06:43:07.000Z</time>
      </trkpt>
      <trkpt lat="44.12707" lon="5.97402">
        <ele>473.79998779297</ele>
        <time>2017-05-21T06:43:13.000Z</time>
      </trkpt>
      <trkpt lat="44.12717" lon="5.9738">
        <ele>474.39999389648</ele>
        <time>2017-05-21T06:43:18.000Z</time>
      </trkpt>
      <trkpt lat="44.12726" lon="5.97356">
        <ele>475.20001220703</ele>
        <time>2017-05-21T06:43:24.000Z</time>
      </trkpt>
      <trkpt lat="44.12735" lon="5.97329">
        <ele>476</ele>
        <time>2017-05-21T06:43:30.000Z</time>
      </trkpt>
      <trkpt lat="44.12743" lon="5.97302">
        <ele>477.20001220703</ele>
        <time>2017-05-21T06:43:36.000Z</time>
      </trkpt>
      <trkpt lat="44.1275" lon="5.97276">
        <ele>479.60000610352</ele>
        <time>2017-05-21T06:43:42.000Z</time>
      </trkpt>
      <trkpt lat="44.12757" lon="5.97249">
        <ele>481.39999389648</ele>
        <time>2017-05-21T06:43:49.000Z</time>
      </trkpt>
      <trkpt lat="44.12764" lon="5.97223">
        <ele>483.20001220703</ele>
        <time>2017-05-21T06:43:57.000Z</time>
      </trkpt>
      <trkpt lat="44.12776" lon="5.97202">
        <ele>484.79998779297</ele>
        <time>2017-05-21T06:44:05.000Z</time>
      </trkpt>
      <trkpt lat="44.12793" lon="5.97187">
        <ele>485.60000610352</ele>
        <time>2017-05-21T06:44:14.000Z</time>
      </trkpt>
      <trkpt lat="44.12808" lon="5.97172">
        <ele>486.39999389648</ele>
        <time>2017-05-21T06:44:23.000Z</time>
      </trkpt>
      <trkpt lat="44.12821" lon="5.97155">
        <ele>485.60000610352</ele>
        <time>2017-05-21T06:44:30.000Z</time>
      </trkpt>
      <trkpt lat="44.12832" lon="5.97133">
        <ele>485.79998779297</ele>
        <time>2017-05-21T06:44:36.000Z</time>
      </trkpt>
      <trkpt lat="44.12841" lon="5.97108">
        <ele>487.20001220703</ele>
        <time>2017-05-21T06:44:41.000Z</time>
      </trkpt>
      <trkpt lat="44.12851" lon="5.97087">
        <ele>486.60000610352</ele>
        <time>2017-05-21T06:44:46.000Z</time>
      </trkpt>
      <trkpt lat="44.12865" lon="5.97068">
        <ele>486</ele>
        <time>2017-05-21T06:44:51.000Z</time>
      </trkpt>
      <trkpt lat="44.1288" lon="5.9705">
        <ele>486.20001220703</ele>
        <time>2017-05-21T06:44:56.000Z</time>
      </trkpt>
      <trkpt lat="44.12895" lon="5.97032">
        <ele>486</ele>
        <time>2017-05-21T06:45:01.000Z</time>
      </trkpt>
      <trkpt lat="44.1291" lon="5.97017">
        <ele>485.60000610352</ele>
        <time>2017-05-21T06:45:05.000Z</time>
      </trkpt>
      <trkpt lat="44.12927" lon="5.96999">
        <ele>484.79998779297</ele>
        <time>2017-05-21T06:45:10.000Z</time>
      </trkpt>
      <trkpt lat="44.1294" lon="5.96977">
        <ele>484.20001220703</ele>
        <time>2017-05-21T06:45:15.000Z</time>
      </trkpt>
      <trkpt lat="44.12952" lon="5.96957">
        <ele>484.20001220703</ele>
        <time>2017-05-21T06:45:20.000Z</time>
      </trkpt>
      <trkpt lat="44.12963" lon="5.96934">
        <ele>484.39999389648</ele>
        <time>2017-05-21T06:45:26.000Z</time>
      </trkpt>
      <trkpt lat="44.1297" lon="5.96908">
        <ele>485</ele>
        <time>2017-05-21T06:45:35.000Z</time>
      </trkpt>
      <trkpt lat="44.12974" lon="5.96881">
        <ele>486.20001220703</ele>
        <time>2017-05-21T06:45:46.000Z</time>
      </trkpt>
      <trkpt lat="44.12972" lon="5.96861">
        <ele>487.79998779297</ele>
        <time>2017-05-21T06:45:55.000Z</time>
      </trkpt>
      <trkpt lat="44.12976" lon="5.96838">
        <ele>489.20001220703</ele>
        <time>2017-05-21T06:46:06.000Z</time>
      </trkpt>
      <trkpt lat="44.12982" lon="5.96816">
        <ele>490.20001220703</ele>
        <time>2017-05-21T06:46:18.000Z</time>
      </trkpt>
      <trkpt lat="44.12978" lon="5.96794">
        <ele>492.39999389648</ele>
        <time>2017-05-21T06:46:31.000Z</time>
      </trkpt>
      <trkpt lat="44.12977" lon="5.96773">
        <ele>494.60000610352</ele>
        <time>2017-05-21T06:46:45.000Z</time>
      </trkpt>
      <trkpt lat="44.12986" lon="5.96749">
        <ele>496.39999389648</ele>
        <time>2017-05-21T06:47:35.000Z</time>
      </trkpt>
      <trkpt lat="44.12997" lon="5.96722">
        <ele>498.60000610352</ele>
        <time>2017-05-21T06:47:39.000Z</time>
      </trkpt>
      <trkpt lat="44.13009" lon="5.96697">
        <ele>501</ele>
        <time>2017-05-21T06:47:43.000Z</time>
      </trkpt>
      <trkpt lat="44.13017" lon="5.96673">
        <ele>502.60000610352</ele>
        <time>2017-05-21T06:47:46.000Z</time>
      </trkpt>
      <trkpt lat="44.13025" lon="5.96642">
        <ele>505.20001220703</ele>
        <time>2017-05-21T06:47:49.000Z</time>
      </trkpt>
      <trkpt lat="44.13034" lon="5.96608">
        <ele>502.60000610352</ele>
        <time>2017-05-21T06:47:52.000Z</time>
      </trkpt>
      <trkpt lat="44.1304" lon="5.96585">
        <ele>500.60000610352</ele>
        <time>2017-05-21T06:47:55.000Z</time>
      </trkpt>
      <trkpt lat="44.13034" lon="5.96562">
        <ele>502.20001220703</ele>
        <time>2017-05-21T06:48:03.000Z</time>
      </trkpt>
      <trkpt lat="44.13022" lon="5.96542">
        <ele>502</ele>
        <time>2017-05-21T06:48:11.000Z</time>
      </trkpt>
      <trkpt lat="44.13007" lon="5.96533">
        <ele>501.60000610352</ele>
        <time>2017-05-21T06:48:19.000Z</time>
      </trkpt>
      <trkpt lat="44.12987" lon="5.96534">
        <ele>503.39999389648</ele>
        <time>2017-05-21T06:48:29.000Z</time>
      </trkpt>
      <trkpt lat="44.12968" lon="5.96538">
        <ele>505.60000610352</ele>
        <time>2017-05-21T06:48:39.000Z</time>
      </trkpt>
      <trkpt lat="44.12949" lon="5.96538">
        <ele>507.20001220703</ele>
        <time>2017-05-21T06:48:48.000Z</time>
      </trkpt>
      <trkpt lat="44.12929" lon="5.96534">
        <ele>511.39999389648</ele>
        <time>2017-05-21T06:48:57.000Z</time>
      </trkpt>
      <trkpt lat="44.12911" lon="5.96527">
        <ele>514.79998779297</ele>
        <time>2017-05-21T06:49:07.000Z</time>
      </trkpt>
      <trkpt lat="44.12906" lon="5.96518">
        <ele>515.20001220703</ele>
        <time>2017-05-21T06:49:13.000Z</time>
      </trkpt>
      <trkpt lat="44.12904" lon="5.96517">
        <ele>515.40002441406</ele>
        <time>2017-05-21T06:49:15.000Z</time>
      </trkpt>
      <trkpt lat="44.129" lon="5.9649">
        <ele>512.20001220703</ele>
        <time>2017-05-21T06:49:22.000Z</time>
      </trkpt>
      <trkpt lat="44.12892" lon="5.96463">
        <ele>510.79998779297</ele>
        <time>2017-05-21T06:49:27.000Z</time>
      </trkpt>
      <trkpt lat="44.12889" lon="5.96457">
        <ele>510.79998779297</ele>
        <time>2017-05-21T06:49:28.000Z</time>
      </trkpt>
      <trkpt lat="44.12885" lon="5.96431">
        <ele>509.20001220703</ele>
        <time>2017-05-21T06:49:32.000Z</time>
      </trkpt>
      <trkpt lat="44.12874" lon="5.96411">
        <ele>510.20001220703</ele>
        <time>2017-05-21T06:49:36.000Z</time>
      </trkpt>
      <trkpt lat="44.12871" lon="5.96404">
        <ele>510.39999389648</ele>
        <time>2017-05-21T06:49:38.000Z</time>
      </trkpt>
      <trkpt lat="44.1286" lon="5.96383">
        <ele>511.60000610352</ele>
        <time>2017-05-21T06:49:47.000Z</time>
      </trkpt>
      <trkpt lat="44.12851" lon="5.96359">
        <ele>511.39999389648</ele>
        <time>2017-05-21T06:49:55.000Z</time>
      </trkpt>
      <trkpt lat="44.12845" lon="5.96336">
        <ele>510.79998779297</ele>
        <time>2017-05-21T06:50:06.000Z</time>
      </trkpt>
      <trkpt lat="44.12844" lon="5.96318">
        <ele>509.79998779297</ele>
        <time>2017-05-21T06:50:15.000Z</time>
      </trkpt>
      <trkpt lat="44.12835" lon="5.96313">
        <ele>511</ele>
        <time>2017-05-21T06:50:21.000Z</time>
      </trkpt>
      <trkpt lat="44.12815" lon="5.96306">
        <ele>514</ele>
        <time>2017-05-21T06:50:31.000Z</time>
      </trkpt>
      <trkpt lat="44.12808" lon="5.96302">
        <ele>514.79998779297</ele>
        <time>2017-05-21T06:50:33.000Z</time>
      </trkpt>
      <trkpt lat="44.128" lon="5.96293">
        <ele>515.20001220703</ele>
        <time>2017-05-21T06:50:35.000Z</time>
      </trkpt>
      <trkpt lat="44.1279" lon="5.9627">
        <ele>514.20001220703</ele>
        <time>2017-05-21T06:50:39.000Z</time>
      </trkpt>
      <trkpt lat="44.12778" lon="5.96252">
        <ele>514</ele>
        <time>2017-05-21T06:50:47.000Z</time>
      </trkpt>
      <trkpt lat="44.12762" lon="5.96247">
        <ele>515</ele>
        <time>2017-05-21T06:50:58.000Z</time>
      </trkpt>
      <trkpt lat="44.12758" lon="5.96249">
        <ele>515.59997558594</ele>
        <time>2017-05-21T06:50:59.000Z</time>
      </trkpt>
      <trkpt lat="44.12747" lon="5.96254">
        <ele>517</ele>
        <time>2017-05-21T06:51:01.000Z</time>
      </trkpt>
      <trkpt lat="44.12729" lon="5.96251">
        <ele>518.40002441406</ele>
        <time>2017-05-21T06:51:05.000Z</time>
      </trkpt>
      <trkpt lat="44.1271" lon="5.96255">
        <ele>521.40002441406</ele>
        <time>2017-05-21T06:51:13.000Z</time>
      </trkpt>
      <trkpt lat="44.1269" lon="5.96256">
        <ele>524.79998779297</ele>
        <time>2017-05-21T06:51:22.000Z</time>
      </trkpt>
      <trkpt lat="44.1268" lon="5.96253">
        <ele>525.40002441406</ele>
        <time>2017-05-21T06:51:29.000Z</time>
      </trkpt>
      <trkpt lat="44.12687" lon="5.96233">
        <ele>520.59997558594</ele>
        <time>2017-05-21T06:51:48.000Z</time>
      </trkpt>
      <trkpt lat="44.12692" lon="5.96211">
        <ele>517.59997558594</ele>
        <time>2017-05-21T06:52:26.000Z</time>
      </trkpt>
      <trkpt lat="44.1268" lon="5.96221">
        <ele>519.40002441406</ele>
        <time>2017-05-21T06:53:48.000Z</time>
      </trkpt>
      <trkpt lat="44.12665" lon="5.96228">
        <ele>522.20001220703</ele>
        <time>2017-05-21T06:54:12.000Z</time>
      </trkpt>
      <trkpt lat="44.12656" lon="5.96236">
        <ele>524.79998779297</ele>
        <time>2017-05-21T06:54:14.000Z</time>
      </trkpt>
      <trkpt lat="44.12639" lon="5.9624">
        <ele>527.79998779297</ele>
        <time>2017-05-21T06:54:19.000Z</time>
      </trkpt>
      <trkpt lat="44.12637" lon="5.96222">
        <ele>524.59997558594</ele>
        <time>2017-05-21T06:54:26.000Z</time>
      </trkpt>
      <trkpt lat="44.12645" lon="5.96199">
        <ele>521.79998779297</ele>
        <time>2017-05-21T06:55:43.000Z</time>
      </trkpt>
      <trkpt lat="44.12656" lon="5.96177">
        <ele>518.79998779297</ele>
        <time>2017-05-21T06:55:50.000Z</time>
      </trkpt>
      <trkpt lat="44.12659" lon="5.96167">
        <ele>518.20001220703</ele>
        <time>2017-05-21T06:55:53.000Z</time>
      </trkpt>
      <trkpt lat="44.1265" lon="5.96165">
        <ele>518.79998779297</ele>
        <time>2017-05-21T06:55:57.000Z</time>
      </trkpt>
      <trkpt lat="44.12628" lon="5.96167">
        <ele>521</ele>
        <time>2017-05-21T06:56:02.000Z</time>
      </trkpt>
      <trkpt lat="44.12623" lon="5.96165">
        <ele>521.40002441406</ele>
        <time>2017-05-21T06:56:03.000Z</time>
      </trkpt>
      <trkpt lat="44.1262" lon="5.96138">
        <ele>520</ele>
        <time>2017-05-21T06:56:10.000Z</time>
      </trkpt>
      <trkpt lat="44.12621" lon="5.96121">
        <ele>519.40002441406</ele>
        <time>2017-05-21T06:56:18.000Z</time>
      </trkpt>
      <trkpt lat="44.12615" lon="5.96097">
        <ele>519</ele>
        <time>2017-05-21T06:56:28.000Z</time>
      </trkpt>
      <trkpt lat="44.12605" lon="5.96072">
        <ele>518.79998779297</ele>
        <time>2017-05-21T06:56:36.000Z</time>
      </trkpt>
      <trkpt lat="44.12592" lon="5.96051">
        <ele>518.20001220703</ele>
        <time>2017-05-21T06:56:41.000Z</time>
      </trkpt>
      <trkpt lat="44.12588" lon="5.96046">
        <ele>517.79998779297</ele>
        <time>2017-05-21T06:56:42.000Z</time>
      </trkpt>
      <trkpt lat="44.12569" lon="5.96043">
        <ele>518.59997558594</ele>
        <time>2017-05-21T06:56:51.000Z</time>
      </trkpt>
      <trkpt lat="44.12557" lon="5.96044">
        <ele>519.40002441406</ele>
        <time>2017-05-21T06:56:54.000Z</time>
      </trkpt>
      <trkpt lat="44.12538" lon="5.9604">
        <ele>520</ele>
        <time>2017-05-21T06:56:58.000Z</time>
      </trkpt>
      <trkpt lat="44.12521" lon="5.96028">
        <ele>519.40002441406</ele>
        <time>2017-05-21T06:57:09.000Z</time>
      </trkpt>
      <trkpt lat="44.12513" lon="5.96027">
        <ele>519.59997558594</ele>
        <time>2017-05-21T06:57:15.000Z</time>
      </trkpt>
      <trkpt lat="44.12509" lon="5.96023">
        <ele>519.40002441406</ele>
        <time>2017-05-21T06:57:18.000Z</time>
      </trkpt>
      <trkpt lat="44.12505" lon="5.96014">
        <ele>518.20001220703</ele>
        <time>2017-05-21T06:57:23.000Z</time>
      </trkpt>
      <trkpt lat="44.12494" lon="5.96009">
        <ele>518.20001220703</ele>
        <time>2017-05-21T06:57:29.000Z</time>
      </trkpt>
      <trkpt lat="44.12474" lon="5.96003">
        <ele>518.40002441406</ele>
        <time>2017-05-21T06:57:35.000Z</time>
      </trkpt>
      <trkpt lat="44.12455" lon="5.96008">
        <ele>518.59997558594</ele>
        <time>2017-05-21T06:57:40.000Z</time>
      </trkpt>
      <trkpt lat="44.12437" lon="5.96009">
        <ele>518.40002441406</ele>
        <time>2017-05-21T06:57:47.000Z</time>
      </trkpt>
      <trkpt lat="44.12419" lon="5.96005">
        <ele>518</ele>
        <time>2017-05-21T06:57:55.000Z</time>
      </trkpt>
      <trkpt lat="44.12402" lon="5.96014">
        <ele>518.40002441406</ele>
        <time>2017-05-21T06:58:05.000Z</time>
      </trkpt>
      <trkpt lat="44.12384" lon="5.96028">
        <ele>519.79998779297</ele>
        <time>2017-05-21T06:58:12.000Z</time>
      </trkpt>
      <trkpt lat="44.12376" lon="5.9605">
        <ele>522</ele>
        <time>2017-05-21T06:58:16.000Z</time>
      </trkpt>
      <trkpt lat="44.12369" lon="5.96075">
        <ele>525.20001220703</ele>
        <time>2017-05-21T06:58:23.000Z</time>
      </trkpt>
      <trkpt lat="44.12362" lon="5.96088">
        <ele>527.20001220703</ele>
        <time>2017-05-21T06:58:28.000Z</time>
      </trkpt>
      <trkpt lat="44.12353" lon="5.96077">
        <ele>526.40002441406</ele>
        <time>2017-05-21T06:58:32.000Z</time>
      </trkpt>
      <trkpt lat="44.1235" lon="5.96066">
        <ele>525</ele>
        <time>2017-05-21T06:58:34.000Z</time>
      </trkpt>
      <trkpt lat="44.12345" lon="5.96047">
        <ele>522.79998779297</ele>
        <time>2017-05-21T06:58:39.000Z</time>
      </trkpt>
      <trkpt lat="44.12331" lon="5.96031">
        <ele>521.59997558594</ele>
        <time>2017-05-21T06:58:51.000Z</time>
      </trkpt>
      <trkpt lat="44.12312" lon="5.96027">
        <ele>522.59997558594</ele>
        <time>2017-05-21T06:58:59.000Z</time>
      </trkpt>
      <trkpt lat="44.12307" lon="5.96032">
        <ele>523.79998779297</ele>
        <time>2017-05-21T06:59:01.000Z</time>
      </trkpt>
      <trkpt lat="44.12296" lon="5.96055">
        <ele>528</ele>
        <time>2017-05-21T06:59:06.000Z</time>
      </trkpt>
      <trkpt lat="44.1228" lon="5.96054">
        <ele>529.20001220703</ele>
        <time>2017-05-21T06:59:10.000Z</time>
      </trkpt>
      <trkpt lat="44.1226" lon="5.96046">
        <ele>530.20001220703</ele>
        <time>2017-05-21T06:59:17.000Z</time>
      </trkpt>
      <trkpt lat="44.12243" lon="5.9604">
        <ele>531.79998779297</ele>
        <time>2017-05-21T06:59:26.000Z</time>
      </trkpt>
      <trkpt lat="44.12228" lon="5.96032">
        <ele>532.40002441406</ele>
        <time>2017-05-21T07:00:38.000Z</time>
      </trkpt>
      <trkpt lat="44.12207" lon="5.96026">
        <ele>534.40002441406</ele>
        <time>2017-05-21T07:00:43.000Z</time>
      </trkpt>
      <trkpt lat="44.12203" lon="5.96025">
        <ele>534.79998779297</ele>
        <time>2017-05-21T07:00:44.000Z</time>
      </trkpt>
      <trkpt lat="44.12183" lon="5.96019">
        <ele>536</ele>
        <time>2017-05-21T07:00:50.000Z</time>
      </trkpt>
      <trkpt lat="44.12164" lon="5.9601">
        <ele>536</ele>
        <time>2017-05-21T07:00:55.000Z</time>
      </trkpt>
      <trkpt lat="44.12148" lon="5.95998">
        <ele>535</ele>
        <time>2017-05-21T07:01:00.000Z</time>
      </trkpt>
      <trkpt lat="44.12132" lon="5.95986">
        <ele>534.20001220703</ele>
        <time>2017-05-21T07:01:08.000Z</time>
      </trkpt>
      <trkpt lat="44.12123" lon="5.95963">
        <ele>531.79998779297</ele>
        <time>2017-05-21T07:01:32.000Z</time>
      </trkpt>
      <trkpt lat="44.12121" lon="5.95958">
        <ele>531.40002441406</ele>
        <time>2017-05-21T07:01:33.000Z</time>
      </trkpt>
      <trkpt lat="44.1212" lon="5.95933">
        <ele>528.59997558594</ele>
        <time>2017-05-21T07:01:37.000Z</time>
      </trkpt>
      <trkpt lat="44.12111" lon="5.95923">
        <ele>528.40002441406</ele>
        <time>2017-05-21T07:01:41.000Z</time>
      </trkpt>
      <trkpt lat="44.12099" lon="5.95904">
        <ele>527.40002441406</ele>
        <time>2017-05-21T07:01:49.000Z</time>
      </trkpt>
      <trkpt lat="44.12093" lon="5.9588">
        <ele>525.20001220703</ele>
        <time>2017-05-21T07:01:59.000Z</time>
      </trkpt>
      <trkpt lat="44.12091" lon="5.95878">
        <ele>525.20001220703</ele>
        <time>2017-05-21T07:02:00.000Z</time>
      </trkpt>
      <trkpt lat="44.12073" lon="5.9587">
        <ele>526.20001220703</ele>
        <time>2017-05-21T07:02:08.000Z</time>
      </trkpt>
      <trkpt lat="44.12055" lon="5.95862">
        <ele>526.79998779297</ele>
        <time>2017-05-21T07:02:19.000Z</time>
      </trkpt>
      <trkpt lat="44.1205" lon="5.95861">
        <ele>527.20001220703</ele>
        <time>2017-05-21T07:02:21.000Z</time>
      </trkpt>
      <trkpt lat="44.12045" lon="5.95862">
        <ele>527.79998779297</ele>
        <time>2017-05-21T07:02:25.000Z</time>
      </trkpt>
      <trkpt lat="44.12024" lon="5.95873">
        <ele>531</ele>
        <time>2017-05-21T07:02:32.000Z</time>
      </trkpt>
      <trkpt lat="44.12013" lon="5.95877">
        <ele>531.79998779297</ele>
        <time>2017-05-21T07:02:34.000Z</time>
      </trkpt>
      <trkpt lat="44.11998" lon="5.95864">
        <ele>530.79998779297</ele>
        <time>2017-05-21T07:02:41.000Z</time>
      </trkpt>
      <trkpt lat="44.11997" lon="5.95861">
        <ele>530.40002441406</ele>
        <time>2017-05-21T07:02:43.000Z</time>
      </trkpt>
      <trkpt lat="44.11981" lon="5.9585">
        <ele>529.79998779297</ele>
        <time>2017-05-21T07:02:53.000Z</time>
      </trkpt>
      <trkpt lat="44.11961" lon="5.95847">
        <ele>530.40002441406</ele>
        <time>2017-05-21T07:03:02.000Z</time>
      </trkpt>
      <trkpt lat="44.11959" lon="5.95848">
        <ele>530.59997558594</ele>
        <time>2017-05-21T07:03:03.000Z</time>
      </trkpt>
      <trkpt lat="44.11944" lon="5.95856">
        <ele>532.40002441406</ele>
        <time>2017-05-21T07:03:08.000Z</time>
      </trkpt>
      <trkpt lat="44.11923" lon="5.9586">
        <ele>534.59997558594</ele>
        <time>2017-05-21T07:03:13.000Z</time>
      </trkpt>
      <trkpt lat="44.11919" lon="5.95859">
        <ele>534.79998779297</ele>
        <time>2017-05-21T07:03:14.000Z</time>
      </trkpt>
      <trkpt lat="44.119" lon="5.95851">
        <ele>535.20001220703</ele>
        <time>2017-05-21T07:03:19.000Z</time>
      </trkpt>
      <trkpt lat="44.11888" lon="5.9584">
        <ele>534.79998779297</ele>
        <time>2017-05-21T07:03:35.000Z</time>
      </trkpt>
      <trkpt lat="44.11881" lon="5.95848">
        <ele>535.79998779297</ele>
        <time>2017-05-21T07:03:55.000Z</time>
      </trkpt>
      <trkpt lat="44.11862" lon="5.95847">
        <ele>536.79998779297</ele>
        <time>2017-05-21T07:04:06.000Z</time>
      </trkpt>
      <trkpt lat="44.11841" lon="5.9585">
        <ele>537</ele>
        <time>2017-05-21T07:04:12.000Z</time>
      </trkpt>
      <trkpt lat="44.11829" lon="5.95852">
        <ele>537.20001220703</ele>
        <time>2017-05-21T07:04:19.000Z</time>
      </trkpt>
      <trkpt lat="44.11816" lon="5.95833">
        <ele>535.40002441406</ele>
        <time>2017-05-21T07:04:27.000Z</time>
      </trkpt>
      <trkpt lat="44.11812" lon="5.95829">
        <ele>535</ele>
        <time>2017-05-21T07:04:29.000Z</time>
      </trkpt>
      <trkpt lat="44.11801" lon="5.95828">
        <ele>535</ele>
        <time>2017-05-21T07:04:34.000Z</time>
      </trkpt>
      <trkpt lat="44.11784" lon="5.9582">
        <ele>534.40002441406</ele>
        <time>2017-05-21T07:04:41.000Z</time>
      </trkpt>
      <trkpt lat="44.11766" lon="5.95821">
        <ele>534.40002441406</ele>
        <time>2017-05-21T07:04:47.000Z</time>
      </trkpt>
      <trkpt lat="44.11746" lon="5.95827">
        <ele>534.59997558594</ele>
        <time>2017-05-21T07:04:54.000Z</time>
      </trkpt>
      <trkpt lat="44.11732" lon="5.95845">
        <ele>536.40002441406</ele>
        <time>2017-05-21T07:05:02.000Z</time>
      </trkpt>
      <trkpt lat="44.11731" lon="5.95849">
        <ele>537</ele>
        <time>2017-05-21T07:05:04.000Z</time>
      </trkpt>
      <trkpt lat="44.11724" lon="5.95863">
        <ele>539.59997558594</ele>
        <time>2017-05-21T07:05:10.000Z</time>
      </trkpt>
      <trkpt lat="44.11717" lon="5.95864">
        <ele>539.79998779297</ele>
        <time>2017-05-21T07:05:14.000Z</time>
      </trkpt>
      <trkpt lat="44.11697" lon="5.95863">
        <ele>540.20001220703</ele>
        <time>2017-05-21T07:05:26.000Z</time>
      </trkpt>
      <trkpt lat="44.11678" lon="5.95857">
        <ele>539.40002441406</ele>
        <time>2017-05-21T07:05:34.000Z</time>
      </trkpt>
      <trkpt lat="44.11661" lon="5.95848">
        <ele>538.20001220703</ele>
        <time>2017-05-21T07:05:43.000Z</time>
      </trkpt>
      <trkpt lat="44.11643" lon="5.95845">
        <ele>537.59997558594</ele>
        <time>2017-05-21T07:05:50.000Z</time>
      </trkpt>
      <trkpt lat="44.11625" lon="5.95838">
        <ele>536</ele>
        <time>2017-05-21T07:05:56.000Z</time>
      </trkpt>
      <trkpt lat="44.11605" lon="5.95838">
        <ele>535</ele>
        <time>2017-05-21T07:06:03.000Z</time>
      </trkpt>
      <trkpt lat="44.11586" lon="5.95845">
        <ele>535.20001220703</ele>
        <time>2017-05-21T07:06:08.000Z</time>
      </trkpt>
      <trkpt lat="44.11572" lon="5.95861">
        <ele>536.20001220703</ele>
        <time>2017-05-21T07:06:13.000Z</time>
      </trkpt>
      <trkpt lat="44.11574" lon="5.95884">
        <ele>537.79998779297</ele>
        <time>2017-05-21T07:06:24.000Z</time>
      </trkpt>
      <trkpt lat="44.11582" lon="5.95905">
        <ele>541.20001220703</ele>
        <time>2017-05-21T07:07:55.000Z</time>
      </trkpt>
      <trkpt lat="44.11583" lon="5.95932">
        <ele>545.40002441406</ele>
        <time>2017-05-21T07:08:04.000Z</time>
      </trkpt>
      <trkpt lat="44.11589" lon="5.95957">
        <ele>549.59997558594</ele>
        <time>2017-05-21T07:08:14.000Z</time>
      </trkpt>
      <trkpt lat="44.11589" lon="5.95966">
        <ele>550.59997558594</ele>
        <time>2017-05-21T07:08:19.000Z</time>
      </trkpt>
      <trkpt lat="44.11595" lon="5.95974">
        <ele>552.20001220703</ele>
        <time>2017-05-21T07:08:25.000Z</time>
      </trkpt>
      <trkpt lat="44.11613" lon="5.95968">
        <ele>553.40002441406</ele>
        <time>2017-05-21T07:08:37.000Z</time>
      </trkpt>
      <trkpt lat="44.11631" lon="5.9596">
        <ele>554.20001220703</ele>
        <time>2017-05-21T07:08:46.000Z</time>
      </trkpt>
      <trkpt lat="44.1165" lon="5.9596">
        <ele>556.59997558594</ele>
        <time>2017-05-21T07:08:56.000Z</time>
      </trkpt>
      <trkpt lat="44.11651" lon="5.95967">
        <ele>557.79998779297</ele>
        <time>2017-05-21T07:08:59.000Z</time>
      </trkpt>
      <trkpt lat="44.11639" lon="5.95984">
        <ele>560.40002441406</ele>
        <time>2017-05-21T07:09:09.000Z</time>
      </trkpt>
      <trkpt lat="44.11624" lon="5.95999">
        <ele>562.20001220703</ele>
        <time>2017-05-21T07:09:19.000Z</time>
      </trkpt>
      <trkpt lat="44.11613" lon="5.96019">
        <ele>564.20001220703</ele>
        <time>2017-05-21T07:09:28.000Z</time>
      </trkpt>
      <trkpt lat="44.11599" lon="5.96036">
        <ele>566</ele>
        <time>2017-05-21T07:09:38.000Z</time>
      </trkpt>
      <trkpt lat="44.1159" lon="5.96059">
        <ele>568.40002441406</ele>
        <time>2017-05-21T07:09:52.000Z</time>
      </trkpt>
      <trkpt lat="44.11581" lon="5.96085">
        <ele>568.59997558594</ele>
        <time>2017-05-21T07:10:02.000Z</time>
      </trkpt>
      <trkpt lat="44.11571" lon="5.96109">
        <ele>569.59997558594</ele>
        <time>2017-05-21T07:10:11.000Z</time>
      </trkpt>
      <trkpt lat="44.11561" lon="5.96133">
        <ele>574</ele>
        <time>2017-05-21T07:10:20.000Z</time>
      </trkpt>
      <trkpt lat="44.11549" lon="5.96153">
        <ele>574</ele>
        <time>2017-05-21T07:10:30.000Z</time>
      </trkpt>
      <trkpt lat="44.11533" lon="5.96165">
        <ele>573.20001220703</ele>
        <time>2017-05-21T07:10:42.000Z</time>
      </trkpt>
      <trkpt lat="44.11527" lon="5.96169">
        <ele>573</ele>
        <time>2017-05-21T07:10:47.000Z</time>
      </trkpt>
      <trkpt lat="44.11531" lon="5.9618">
        <ele>572.59997558594</ele>
        <time>2017-05-21T07:11:32.000Z</time>
      </trkpt>
      <trkpt lat="44.11549" lon="5.96179">
        <ele>572.59997558594</ele>
        <time>2017-05-21T07:11:49.000Z</time>
      </trkpt>
      <trkpt lat="44.11555" lon="5.96177">
        <ele>572.79998779297</ele>
        <time>2017-05-21T07:11:53.000Z</time>
      </trkpt>
      <trkpt lat="44.1156" lon="5.96171">
        <ele>573</ele>
        <time>2017-05-21T07:11:57.000Z</time>
      </trkpt>
      <trkpt lat="44.11566" lon="5.96171">
        <ele>573.40002441406</ele>
        <time>2017-05-21T07:12:02.000Z</time>
      </trkpt>
      <trkpt lat="44.11569" lon="5.9617">
        <ele>573.59997558594</ele>
        <time>2017-05-21T07:12:04.000Z</time>
      </trkpt>
      <trkpt lat="44.11583" lon="5.96155">
        <ele>575.40002441406</ele>
        <time>2017-05-21T07:12:16.000Z</time>
      </trkpt>
      <trkpt lat="44.11586" lon="5.9614">
        <ele>576.59997558594</ele>
        <time>2017-05-21T07:12:24.000Z</time>
      </trkpt>
      <trkpt lat="44.11584" lon="5.96134">
        <ele>575.40002441406</ele>
        <time>2017-05-21T07:12:28.000Z</time>
      </trkpt>
      <trkpt lat="44.1159" lon="5.96125">
        <ele>573.59997558594</ele>
        <time>2017-05-21T07:12:36.000Z</time>
      </trkpt>
      <trkpt lat="44.11605" lon="5.96111">
        <ele>575</ele>
        <time>2017-05-21T07:12:48.000Z</time>
      </trkpt>
      <trkpt lat="44.11619" lon="5.96094">
        <ele>575.40002441406</ele>
        <time>2017-05-21T07:13:02.000Z</time>
      </trkpt>
      <trkpt lat="44.11621" lon="5.96092">
        <ele>575.59997558594</ele>
        <time>2017-05-21T07:13:04.000Z</time>
      </trkpt>
      <trkpt lat="44.1164" lon="5.96089">
        <ele>577.20001220703</ele>
        <time>2017-05-21T07:13:21.000Z</time>
      </trkpt>
      <trkpt lat="44.11659" lon="5.96089">
        <ele>581</ele>
        <time>2017-05-21T07:13:33.000Z</time>
      </trkpt>
      <trkpt lat="44.11678" lon="5.96082">
        <ele>585.40002441406</ele>
        <time>2017-05-21T07:13:42.000Z</time>
      </trkpt>
      <trkpt lat="44.11694" lon="5.96074">
        <ele>589.20001220703</ele>
        <time>2017-05-21T07:13:53.000Z</time>
      </trkpt>
      <trkpt lat="44.11714" lon="5.96076">
        <ele>588.40002441406</ele>
        <time>2017-05-21T07:14:00.000Z</time>
      </trkpt>
      <trkpt lat="44.11732" lon="5.96079">
        <ele>587.20001220703</ele>
        <time>2017-05-21T07:14:07.000Z</time>
      </trkpt>
      <trkpt lat="44.1175" lon="5.96086">
        <ele>586</ele>
        <time>2017-05-21T07:14:13.000Z</time>
      </trkpt>
      <trkpt lat="44.11767" lon="5.96094">
        <ele>584.79998779297</ele>
        <time>2017-05-21T07:14:22.000Z</time>
      </trkpt>
      <trkpt lat="44.11775" lon="5.96099">
        <ele>584.20001220703</ele>
        <time>2017-05-21T07:14:24.000Z</time>
      </trkpt>
      <trkpt lat="44.11796" lon="5.96098">
        <ele>584.40002441406</ele>
        <time>2017-05-21T07:14:28.000Z</time>
      </trkpt>
      <trkpt lat="44.11805" lon="5.96094">
        <ele>584.79998779297</ele>
        <time>2017-05-21T07:14:30.000Z</time>
      </trkpt>
      <trkpt lat="44.11819" lon="5.96089">
        <ele>584.40002441406</ele>
        <time>2017-05-21T07:14:34.000Z</time>
      </trkpt>
      <trkpt lat="44.11829" lon="5.96088">
        <ele>584</ele>
        <time>2017-05-21T07:14:37.000Z</time>
      </trkpt>
      <trkpt lat="44.11845" lon="5.96093">
        <ele>583.40002441406</ele>
        <time>2017-05-21T07:14:41.000Z</time>
      </trkpt>
      <trkpt lat="44.11865" lon="5.96097">
        <ele>583.59997558594</ele>
        <time>2017-05-21T07:14:48.000Z</time>
      </trkpt>
      <trkpt lat="44.11867" lon="5.96099">
        <ele>584</ele>
        <time>2017-05-21T07:14:49.000Z</time>
      </trkpt>
      <trkpt lat="44.11885" lon="5.96112">
        <ele>587</ele>
        <time>2017-05-21T07:14:59.000Z</time>
      </trkpt>
      <trkpt lat="44.11892" lon="5.96118">
        <ele>588</ele>
        <time>2017-05-21T07:15:01.000Z</time>
      </trkpt>
      <trkpt lat="44.11903" lon="5.96143">
        <ele>590.79998779297</ele>
        <time>2017-05-21T07:15:05.000Z</time>
      </trkpt>
      <trkpt lat="44.11922" lon="5.96152">
        <ele>593.59997558594</ele>
        <time>2017-05-21T07:15:08.000Z</time>
      </trkpt>
      <trkpt lat="44.11935" lon="5.96151">
        <ele>595.20001220703</ele>
        <time>2017-05-21T07:15:10.000Z</time>
      </trkpt>
      <trkpt lat="44.11954" lon="5.96148">
        <ele>595.20001220703</ele>
        <time>2017-05-21T07:15:16.000Z</time>
      </trkpt>
      <trkpt lat="44.11973" lon="5.96147">
        <ele>593.59997558594</ele>
        <time>2017-05-21T07:15:24.000Z</time>
      </trkpt>
      <trkpt lat="44.11987" lon="5.96165">
        <ele>592.40002441406</ele>
        <time>2017-05-21T07:15:41.000Z</time>
      </trkpt>
      <trkpt lat="44.11992" lon="5.96188">
        <ele>592</ele>
        <time>2017-05-21T07:15:50.000Z</time>
      </trkpt>
      <trkpt lat="44.11987" lon="5.96213">
        <ele>593.79998779297</ele>
        <time>2017-05-21T07:15:56.000Z</time>
      </trkpt>
      <trkpt lat="44.1199" lon="5.9624">
        <ele>593</ele>
        <time>2017-05-21T07:16:08.000Z</time>
      </trkpt>
      <trkpt lat="44.11987" lon="5.96266">
        <ele>591.79998779297</ele>
        <time>2017-05-21T07:16:16.000Z</time>
      </trkpt>
      <trkpt lat="44.11986" lon="5.96293">
        <ele>592.40002441406</ele>
        <time>2017-05-21T07:16:22.000Z</time>
      </trkpt>
      <trkpt lat="44.1199" lon="5.96318">
        <ele>591.40002441406</ele>
        <time>2017-05-21T07:16:28.000Z</time>
      </trkpt>
      <trkpt lat="44.11989" lon="5.96339">
        <ele>590.20001220703</ele>
        <time>2017-05-21T07:16:34.000Z</time>
      </trkpt>
      <trkpt lat="44.11984" lon="5.96367">
        <ele>589.40002441406</ele>
        <time>2017-05-21T07:16:45.000Z</time>
      </trkpt>
      <trkpt lat="44.11982" lon="5.96378">
        <ele>589</ele>
        <time>2017-05-21T07:16:48.000Z</time>
      </trkpt>
      <trkpt lat="44.11988" lon="5.96397">
        <ele>586.79998779297</ele>
        <time>2017-05-21T07:16:54.000Z</time>
      </trkpt>
      <trkpt lat="44.11996" lon="5.9642">
        <ele>583.59997558594</ele>
        <time>2017-05-21T07:17:01.000Z</time>
      </trkpt>
      <trkpt lat="44.11996" lon="5.96446">
        <ele>581.79998779297</ele>
        <time>2017-05-21T07:17:10.000Z</time>
      </trkpt>
      <trkpt lat="44.11987" lon="5.96469">
        <ele>578.79998779297</ele>
        <time>2017-05-21T07:17:17.000Z</time>
      </trkpt>
      <trkpt lat="44.1198" lon="5.96477">
        <ele>578</ele>
        <time>2017-05-21T07:17:19.000Z</time>
      </trkpt>
      <trkpt lat="44.1196" lon="5.96488">
        <ele>578.40002441406</ele>
        <time>2017-05-21T07:17:23.000Z</time>
      </trkpt>
      <trkpt lat="44.11955" lon="5.96489">
        <ele>578.79998779297</ele>
        <time>2017-05-21T07:17:24.000Z</time>
      </trkpt>
      <trkpt lat="44.11952" lon="5.96506">
        <ele>577.20001220703</ele>
        <time>2017-05-21T07:22:13.000Z</time>
      </trkpt>
      <trkpt lat="44.11951" lon="5.9651">
        <ele>576.79998779297</ele>
        <time>2017-05-21T07:22:14.000Z</time>
      </trkpt>
      <trkpt lat="44.11932" lon="5.96525">
        <ele>576.79998779297</ele>
        <time>2017-05-21T07:22:18.000Z</time>
      </trkpt>
      <trkpt lat="44.11926" lon="5.96528">
        <ele>577</ele>
        <time>2017-05-21T07:22:19.000Z</time>
      </trkpt>
      <trkpt lat="44.11916" lon="5.96535">
        <ele>577.20001220703</ele>
        <time>2017-05-21T07:22:21.000Z</time>
      </trkpt>
      <trkpt lat="44.11903" lon="5.96543">
        <ele>577.59997558594</ele>
        <time>2017-05-21T07:22:24.000Z</time>
      </trkpt>
      <trkpt lat="44.11904" lon="5.96567">
        <ele>575</ele>
        <time>2017-05-21T07:22:32.000Z</time>
      </trkpt>
      <trkpt lat="44.11904" lon="5.96574">
        <ele>574.20001220703</ele>
        <time>2017-05-21T07:22:36.000Z</time>
      </trkpt>
      <trkpt lat="44.11894" lon="5.96588">
        <ele>573.79998779297</ele>
        <time>2017-05-21T07:22:50.000Z</time>
      </trkpt>
      <trkpt lat="44.119" lon="5.96609">
        <ele>570.59997558594</ele>
        <time>2017-05-21T07:23:09.000Z</time>
      </trkpt>
      <trkpt lat="44.11913" lon="5.96627">
        <ele>567.40002441406</ele>
        <time>2017-05-21T07:23:19.000Z</time>
      </trkpt>
      <trkpt lat="44.11925" lon="5.9665">
        <ele>563.40002441406</ele>
        <time>2017-05-21T07:23:24.000Z</time>
      </trkpt>
      <trkpt lat="44.11937" lon="5.96677">
        <ele>558.79998779297</ele>
        <time>2017-05-21T07:23:29.000Z</time>
      </trkpt>
      <trkpt lat="44.11937" lon="5.96685">
        <ele>557.40002441406</ele>
        <time>2017-05-21T07:23:31.000Z</time>
      </trkpt>
      <trkpt lat="44.11928" lon="5.967">
        <ele>555.59997558594</ele>
        <time>2017-05-21T07:23:35.000Z</time>
      </trkpt>
      <trkpt lat="44.11917" lon="5.96712">
        <ele>554</ele>
        <time>2017-05-21T07:23:39.000Z</time>
      </trkpt>
      <trkpt lat="44.11929" lon="5.96732">
        <ele>550.20001220703</ele>
        <time>2017-05-21T07:23:44.000Z</time>
      </trkpt>
      <trkpt lat="44.11948" lon="5.96738">
        <ele>548.79998779297</ele>
        <time>2017-05-21T07:23:49.000Z</time>
      </trkpt>
      <trkpt lat="44.11957" lon="5.96733">
        <ele>549.20001220703</ele>
        <time>2017-05-21T07:23:52.000Z</time>
      </trkpt>
      <trkpt lat="44.11976" lon="5.96733">
        <ele>548.20001220703</ele>
        <time>2017-05-21T07:24:00.000Z</time>
      </trkpt>
      <trkpt lat="44.11977" lon="5.96734">
        <ele>548</ele>
        <time>2017-05-21T07:24:01.000Z</time>
      </trkpt>
      <trkpt lat="44.11976" lon="5.96762">
        <ele>544</ele>
        <time>2017-05-21T07:24:09.000Z</time>
      </trkpt>
      <trkpt lat="44.11975" lon="5.96786">
        <ele>540.59997558594</ele>
        <time>2017-05-21T07:24:15.000Z</time>
      </trkpt>
      <trkpt lat="44.11975" lon="5.96791">
        <ele>540</ele>
        <time>2017-05-21T07:24:16.000Z</time>
      </trkpt>
      <trkpt lat="44.11982" lon="5.96816">
        <ele>536.20001220703</ele>
        <time>2017-05-21T07:24:23.000Z</time>
      </trkpt>
      <trkpt lat="44.11995" lon="5.96837">
        <ele>533</ele>
        <time>2017-05-21T07:24:29.000Z</time>
      </trkpt>
      <trkpt lat="44.12003" lon="5.96854">
        <ele>530.59997558594</ele>
        <time>2017-05-21T07:24:32.000Z</time>
      </trkpt>
      <trkpt lat="44.1201" lon="5.96885">
        <ele>526.20001220703</ele>
        <time>2017-05-21T07:24:36.000Z</time>
      </trkpt>
      <trkpt lat="44.12017" lon="5.96911">
        <ele>523.40002441406</ele>
        <time>2017-05-21T07:24:39.000Z</time>
      </trkpt>
      <trkpt lat="44.12027" lon="5.96933">
        <ele>521</ele>
        <time>2017-05-21T07:24:44.000Z</time>
      </trkpt>
      <trkpt lat="44.12033" lon="5.96964">
        <ele>517.59997558594</ele>
        <time>2017-05-21T07:24:49.000Z</time>
      </trkpt>
      <trkpt lat="44.12035" lon="5.96989">
        <ele>515.40002441406</ele>
        <time>2017-05-21T07:24:52.000Z</time>
      </trkpt>
      <trkpt lat="44.12032" lon="5.97">
        <ele>514.40002441406</ele>
        <time>2017-05-21T07:24:54.000Z</time>
      </trkpt>
      <trkpt lat="44.12023" lon="5.97015">
        <ele>513.20001220703</ele>
        <time>2017-05-21T07:24:57.000Z</time>
      </trkpt>
      <trkpt lat="44.12026" lon="5.97035">
        <ele>511.20001220703</ele>
        <time>2017-05-21T07:25:02.000Z</time>
      </trkpt>
      <trkpt lat="44.1204" lon="5.97046">
        <ele>509.79998779297</ele>
        <time>2017-05-21T07:25:08.000Z</time>
      </trkpt>
      <trkpt lat="44.12047" lon="5.97066">
        <ele>508.39999389648</ele>
        <time>2017-05-21T07:25:14.000Z</time>
      </trkpt>
      <trkpt lat="44.12057" lon="5.97068">
        <ele>508</ele>
        <time>2017-05-21T07:25:18.000Z</time>
      </trkpt>
      <trkpt lat="44.12075" lon="5.97071">
        <ele>507.60000610352</ele>
        <time>2017-05-21T07:26:55.000Z</time>
      </trkpt>
      <trkpt lat="44.12093" lon="5.97079">
        <ele>507</ele>
        <time>2017-05-21T07:27:04.000Z</time>
      </trkpt>
      <trkpt lat="44.12108" lon="5.97092">
        <ele>506.20001220703</ele>
        <time>2017-05-21T07:27:14.000Z</time>
      </trkpt>
      <trkpt lat="44.12118" lon="5.97097">
        <ele>506.60000610352</ele>
        <time>2017-05-21T07:29:44.000Z</time>
      </trkpt>
      <trkpt lat="44.12122" lon="5.97085">
        <ele>507.20001220703</ele>
        <time>2017-05-21T07:29:48.000Z</time>
      </trkpt>
      <trkpt lat="44.12132" lon="5.97065">
        <ele>508.20001220703</ele>
        <time>2017-05-21T07:29:57.000Z</time>
      </trkpt>
      <trkpt lat="44.12148" lon="5.97052">
        <ele>509.39999389648</ele>
        <time>2017-05-21T07:30:04.000Z</time>
      </trkpt>
      <trkpt lat="44.12165" lon="5.97038">
        <ele>511</ele>
        <time>2017-05-21T07:30:12.000Z</time>
      </trkpt>
      <trkpt lat="44.12182" lon="5.97026">
        <ele>512.59997558594</ele>
        <time>2017-05-21T07:30:19.000Z</time>
      </trkpt>
      <trkpt lat="44.12199" lon="5.97016">
        <ele>514.40002441406</ele>
        <time>2017-05-21T07:30:26.000Z</time>
      </trkpt>
      <trkpt lat="44.12215" lon="5.97003">
        <ele>516.20001220703</ele>
        <time>2017-05-21T07:30:33.000Z</time>
      </trkpt>
      <trkpt lat="44.12232" lon="5.96994">
        <ele>517.59997558594</ele>
        <time>2017-05-21T07:30:41.000Z</time>
      </trkpt>
      <trkpt lat="44.12249" lon="5.96985">
        <ele>519</ele>
        <time>2017-05-21T07:30:52.000Z</time>
      </trkpt>
      <trkpt lat="44.12268" lon="5.96978">
        <ele>520.40002441406</ele>
        <time>2017-05-21T07:31:01.000Z</time>
      </trkpt>
      <trkpt lat="44.12284" lon="5.96969">
        <ele>521.59997558594</ele>
        <time>2017-05-21T07:31:10.000Z</time>
      </trkpt>
      <trkpt lat="44.12299" lon="5.96953">
        <ele>523.40002441406</ele>
        <time>2017-05-21T07:31:19.000Z</time>
      </trkpt>
      <trkpt lat="44.12316" lon="5.96942">
        <ele>524.79998779297</ele>
        <time>2017-05-21T07:31:29.000Z</time>
      </trkpt>
      <trkpt lat="44.12334" lon="5.96936">
        <ele>526.59997558594</ele>
        <time>2017-05-21T07:31:39.000Z</time>
      </trkpt>
      <trkpt lat="44.12351" lon="5.96929">
        <ele>528.79998779297</ele>
        <time>2017-05-21T07:31:48.000Z</time>
      </trkpt>
      <trkpt lat="44.12366" lon="5.96913">
        <ele>531.40002441406</ele>
        <time>2017-05-21T07:31:59.000Z</time>
      </trkpt>
      <trkpt lat="44.12384" lon="5.96911">
        <ele>532.79998779297</ele>
        <time>2017-05-21T07:32:10.000Z</time>
      </trkpt>
      <trkpt lat="44.12394" lon="5.96918">
        <ele>532.79998779297</ele>
        <time>2017-05-21T07:32:15.000Z</time>
      </trkpt>
      <trkpt lat="44.12408" lon="5.96935">
        <ele>532.20001220703</ele>
        <time>2017-05-21T07:32:22.000Z</time>
      </trkpt>
      <trkpt lat="44.12415" lon="5.96957">
        <ele>530.79998779297</ele>
        <time>2017-05-21T07:33:05.000Z</time>
      </trkpt>
      <trkpt lat="44.12416" lon="5.96973">
        <ele>529.40002441406</ele>
        <time>2017-05-21T07:33:08.000Z</time>
      </trkpt>
      <trkpt lat="44.12411" lon="5.96997">
        <ele>529</ele>
        <time>2017-05-21T07:33:12.000Z</time>
      </trkpt>
      <trkpt lat="44.1242" lon="5.97018">
        <ele>529.59997558594</ele>
        <time>2017-05-21T07:33:17.000Z</time>
      </trkpt>
      <trkpt lat="44.1243" lon="5.9702">
        <ele>530.20001220703</ele>
        <time>2017-05-21T07:33:21.000Z</time>
      </trkpt>
      <trkpt lat="44.12442" lon="5.97021">
        <ele>531</ele>
        <time>2017-05-21T07:33:26.000Z</time>
      </trkpt>
      <trkpt lat="44.12446" lon="5.97028">
        <ele>530.79998779297</ele>
        <time>2017-05-21T07:40:01.000Z</time>
      </trkpt>
      <trkpt lat="44.12432" lon="5.97035">
        <ele>530.20001220703</ele>
        <time>2017-05-21T07:41:21.000Z</time>
      </trkpt>
      <trkpt lat="44.12412" lon="5.9704">
        <ele>530</ele>
        <time>2017-05-21T07:41:30.000Z</time>
      </trkpt>
      <trkpt lat="44.12389" lon="5.97042">
        <ele>530</ele>
        <time>2017-05-21T07:41:35.000Z</time>
      </trkpt>
      <trkpt lat="44.12377" lon="5.97041">
        <ele>530</ele>
        <time>2017-05-21T07:41:37.000Z</time>
      </trkpt>
      <trkpt lat="44.12354" lon="5.97037">
        <ele>529.40002441406</ele>
        <time>2017-05-21T07:41:41.000Z</time>
      </trkpt>
      <trkpt lat="44.12347" lon="5.97037">
        <ele>529</ele>
        <time>2017-05-21T07:41:42.000Z</time>
      </trkpt>
      <trkpt lat="44.12329" lon="5.97039">
        <ele>526.79998779297</ele>
        <time>2017-05-21T07:41:45.000Z</time>
      </trkpt>
      <trkpt lat="44.12312" lon="5.97047">
        <ele>523.79998779297</ele>
        <time>2017-05-21T07:41:51.000Z</time>
      </trkpt>
      <trkpt lat="44.12296" lon="5.97056">
        <ele>521</ele>
        <time>2017-05-21T07:42:25.000Z</time>
      </trkpt>
      <trkpt lat="44.12277" lon="5.97058">
        <ele>518</ele>
        <time>2017-05-21T07:42:35.000Z</time>
      </trkpt>
      <trkpt lat="44.12263" lon="5.97075">
        <ele>517.59997558594</ele>
        <time>2017-05-21T07:42:53.000Z</time>
      </trkpt>
      <trkpt lat="44.12249" lon="5.97092">
        <ele>517.20001220703</ele>
        <time>2017-05-21T07:43:01.000Z</time>
      </trkpt>
      <trkpt lat="44.12247" lon="5.97093">
        <ele>517.20001220703</ele>
        <time>2017-05-21T07:43:02.000Z</time>
      </trkpt>
      <trkpt lat="44.12231" lon="5.97107">
        <ele>515.79998779297</ele>
        <time>2017-05-21T07:43:09.000Z</time>
      </trkpt>
      <trkpt lat="44.12224" lon="5.97117">
        <ele>515</ele>
        <time>2017-05-21T07:43:14.000Z</time>
      </trkpt>
      <trkpt lat="44.1221" lon="5.97133">
        <ele>513</ele>
        <time>2017-05-21T07:43:21.000Z</time>
      </trkpt>
      <trkpt lat="44.12204" lon="5.97144">
        <ele>512.59997558594</ele>
        <time>2017-05-21T07:43:24.000Z</time>
      </trkpt>
      <trkpt lat="44.12188" lon="5.97158">
        <ele>510.60000610352</ele>
        <time>2017-05-21T07:43:30.000Z</time>
      </trkpt>
      <trkpt lat="44.12176" lon="5.97176">
        <ele>509.60000610352</ele>
        <time>2017-05-21T07:43:35.000Z</time>
      </trkpt>
      <trkpt lat="44.1216" lon="5.97192">
        <ele>508.60000610352</ele>
        <time>2017-05-21T07:43:41.000Z</time>
      </trkpt>
      <trkpt lat="44.12147" lon="5.97213">
        <ele>507.60000610352</ele>
        <time>2017-05-21T07:43:47.000Z</time>
      </trkpt>
      <trkpt lat="44.12133" lon="5.97226">
        <ele>506.79998779297</ele>
        <time>2017-05-21T07:43:53.000Z</time>
      </trkpt>
      <trkpt lat="44.12124" lon="5.97241">
        <ele>506.79998779297</ele>
        <time>2017-05-21T07:43:59.000Z</time>
      </trkpt>
      <trkpt lat="44.12115" lon="5.97267">
        <ele>504.79998779297</ele>
        <time>2017-05-21T07:44:24.000Z</time>
      </trkpt>
      <trkpt lat="44.12116" lon="5.97293">
        <ele>504.20001220703</ele>
        <time>2017-05-21T07:44:33.000Z</time>
      </trkpt>
      <trkpt lat="44.12122" lon="5.97318">
        <ele>504.79998779297</ele>
        <time>2017-05-21T07:44:40.000Z</time>
      </trkpt>
      <trkpt lat="44.12119" lon="5.97328">
        <ele>503.79998779297</ele>
        <time>2017-05-21T07:44:42.000Z</time>
      </trkpt>
      <trkpt lat="44.12105" lon="5.97345">
        <ele>500.20001220703</ele>
        <time>2017-05-21T07:44:47.000Z</time>
      </trkpt>
      <trkpt lat="44.12098" lon="5.97354">
        <ele>499</ele>
        <time>2017-05-21T07:44:50.000Z</time>
      </trkpt>
      <trkpt lat="44.12095" lon="5.97358">
        <ele>498.39999389648</ele>
        <time>2017-05-21T07:44:51.000Z</time>
      </trkpt>
      <trkpt lat="44.12078" lon="5.97374">
        <ele>496</ele>
        <time>2017-05-21T07:44:55.000Z</time>
      </trkpt>
      <trkpt lat="44.1207" lon="5.9738">
        <ele>495</ele>
        <time>2017-05-21T07:44:57.000Z</time>
      </trkpt>
      <trkpt lat="44.12065" lon="5.97384">
        <ele>494.39999389648</ele>
        <time>2017-05-21T07:44:58.000Z</time>
      </trkpt>
      <trkpt lat="44.12051" lon="5.97401">
        <ele>492.60000610352</ele>
        <time>2017-05-21T07:45:02.000Z</time>
      </trkpt>
      <trkpt lat="44.12034" lon="5.97413">
        <ele>490.20001220703</ele>
        <time>2017-05-21T07:45:06.000Z</time>
      </trkpt>
      <trkpt lat="44.12023" lon="5.97423">
        <ele>488.79998779297</ele>
        <time>2017-05-21T07:45:09.000Z</time>
      </trkpt>
      <trkpt lat="44.12013" lon="5.97446">
        <ele>487.20001220703</ele>
        <time>2017-05-21T07:45:13.000Z</time>
      </trkpt>
      <trkpt lat="44.12011" lon="5.97472">
        <ele>486</ele>
        <time>2017-05-21T07:45:20.000Z</time>
      </trkpt>
      <trkpt lat="44.1201" lon="5.97479">
        <ele>486</ele>
        <time>2017-05-21T07:45:23.000Z</time>
      </trkpt>
      <trkpt lat="44.12002" lon="5.97497">
        <ele>486</ele>
        <time>2017-05-21T07:45:28.000Z</time>
      </trkpt>
      <trkpt lat="44.11995" lon="5.97524">
        <ele>485.79998779297</ele>
        <time>2017-05-21T07:45:43.000Z</time>
      </trkpt>
      <trkpt lat="44.11988" lon="5.97548">
        <ele>483.20001220703</ele>
        <time>2017-05-21T07:45:47.000Z</time>
      </trkpt>
      <trkpt lat="44.11971" lon="5.97568">
        <ele>481.60000610352</ele>
        <time>2017-05-21T07:45:53.000Z</time>
      </trkpt>
      <trkpt lat="44.11961" lon="5.97584">
        <ele>480.79998779297</ele>
        <time>2017-05-21T07:45:57.000Z</time>
      </trkpt>
      <trkpt lat="44.11948" lon="5.97599">
        <ele>479.20001220703</ele>
        <time>2017-05-21T07:46:03.000Z</time>
      </trkpt>
      <trkpt lat="44.11945" lon="5.9761">
        <ele>478.60000610352</ele>
        <time>2017-05-21T07:46:06.000Z</time>
      </trkpt>
      <trkpt lat="44.11943" lon="5.97637">
        <ele>477.20001220703</ele>
        <time>2017-05-21T07:46:11.000Z</time>
      </trkpt>
      <trkpt lat="44.11941" lon="5.97643">
        <ele>477.39999389648</ele>
        <time>2017-05-21T07:46:12.000Z</time>
      </trkpt>
      <trkpt lat="44.11927" lon="5.97661">
        <ele>480</ele>
        <time>2017-05-21T07:46:19.000Z</time>
      </trkpt>
      <trkpt lat="44.11909" lon="5.97655">
        <ele>481.60000610352</ele>
        <time>2017-05-21T07:46:27.000Z</time>
      </trkpt>
      <trkpt lat="44.1189" lon="5.9766">
        <ele>484</ele>
        <time>2017-05-21T07:46:57.000Z</time>
      </trkpt>
      <trkpt lat="44.11871" lon="5.97654">
        <ele>486</ele>
        <time>2017-05-21T07:47:05.000Z</time>
      </trkpt>
      <trkpt lat="44.11855" lon="5.97637">
        <ele>486.79998779297</ele>
        <time>2017-05-21T07:47:14.000Z</time>
      </trkpt>
      <trkpt lat="44.11847" lon="5.97611">
        <ele>486.79998779297</ele>
        <time>2017-05-21T07:47:21.000Z</time>
      </trkpt>
      <trkpt lat="44.11842" lon="5.97587">
        <ele>486.60000610352</ele>
        <time>2017-05-21T07:47:29.000Z</time>
      </trkpt>
      <trkpt lat="44.11843" lon="5.97564">
        <ele>485.39999389648</ele>
        <time>2017-05-21T07:47:45.000Z</time>
      </trkpt>
      <trkpt lat="44.11843" lon="5.97537">
        <ele>485</ele>
        <time>2017-05-21T07:48:07.000Z</time>
      </trkpt>
      <trkpt lat="44.11831" lon="5.97517">
        <ele>487.39999389648</ele>
        <time>2017-05-21T07:48:16.000Z</time>
      </trkpt>
      <trkpt lat="44.11817" lon="5.97499">
        <ele>489.79998779297</ele>
        <time>2017-05-21T07:48:26.000Z</time>
      </trkpt>
      <trkpt lat="44.1181" lon="5.97473">
        <ele>491.60000610352</ele>
        <time>2017-05-21T07:48:35.000Z</time>
      </trkpt>
      <trkpt lat="44.11809" lon="5.97445">
        <ele>489.60000610352</ele>
        <time>2017-05-21T07:48:43.000Z</time>
      </trkpt>
      <trkpt lat="44.11799" lon="5.97424">
        <ele>489.39999389648</ele>
        <time>2017-05-21T07:48:52.000Z</time>
      </trkpt>
      <trkpt lat="44.11797" lon="5.97422">
        <ele>489.60000610352</ele>
        <time>2017-05-21T07:48:53.000Z</time>
      </trkpt>
      <trkpt lat="44.11791" lon="5.97424">
        <ele>490.39999389648</ele>
        <time>2017-05-21T07:48:57.000Z</time>
      </trkpt>
      <trkpt lat="44.11789" lon="5.97425">
        <ele>490.79998779297</ele>
        <time>2017-05-21T07:48:59.000Z</time>
      </trkpt>
      <trkpt lat="44.1178" lon="5.97437">
        <ele>493</ele>
        <time>2017-05-21T07:49:06.000Z</time>
      </trkpt>
      <trkpt lat="44.11762" lon="5.97427">
        <ele>495</ele>
        <time>2017-05-21T07:49:13.000Z</time>
      </trkpt>
      <trkpt lat="44.11759" lon="5.97423">
        <ele>495.20001220703</ele>
        <time>2017-05-21T07:49:15.000Z</time>
      </trkpt>
      <trkpt lat="44.11744" lon="5.97406">
        <ele>496.20001220703</ele>
        <time>2017-05-21T07:49:24.000Z</time>
      </trkpt>
      <trkpt lat="44.11731" lon="5.97388">
        <ele>496.79998779297</ele>
        <time>2017-05-21T07:49:36.000Z</time>
      </trkpt>
      <trkpt lat="44.1172" lon="5.97369">
        <ele>497.60000610352</ele>
        <time>2017-05-21T07:49:46.000Z</time>
      </trkpt>
      <trkpt lat="44.11702" lon="5.97364">
        <ele>500.20001220703</ele>
        <time>2017-05-21T07:49:59.000Z</time>
      </trkpt>
      <trkpt lat="44.11683" lon="5.97368">
        <ele>502.39999389648</ele>
        <time>2017-05-21T07:50:14.000Z</time>
      </trkpt>
      <trkpt lat="44.11665" lon="5.97375">
        <ele>505</ele>
        <time>2017-05-21T07:50:27.000Z</time>
      </trkpt>
      <trkpt lat="44.11646" lon="5.97375">
        <ele>507.79998779297</ele>
        <time>2017-05-21T07:50:39.000Z</time>
      </trkpt>
      <trkpt lat="44.11628" lon="5.97378">
        <ele>510.79998779297</ele>
        <time>2017-05-21T07:50:51.000Z</time>
      </trkpt>
      <trkpt lat="44.11609" lon="5.97381">
        <ele>513.79998779297</ele>
        <time>2017-05-21T07:51:02.000Z</time>
      </trkpt>
      <trkpt lat="44.11595" lon="5.97366">
        <ele>514</ele>
        <time>2017-05-21T07:51:16.000Z</time>
      </trkpt>
      <trkpt lat="44.11577" lon="5.97363">
        <ele>516</ele>
        <time>2017-05-21T07:51:28.000Z</time>
      </trkpt>
      <trkpt lat="44.11564" lon="5.9737">
        <ele>517.40002441406</ele>
        <time>2017-05-21T07:51:38.000Z</time>
      </trkpt>
      <trkpt lat="44.11557" lon="5.97393">
        <ele>519</ele>
        <time>2017-05-21T07:51:54.000Z</time>
      </trkpt>
      <trkpt lat="44.1154" lon="5.97403">
        <ele>520.79998779297</ele>
        <time>2017-05-21T07:52:07.000Z</time>
      </trkpt>
      <trkpt lat="44.11522" lon="5.97405">
        <ele>522.40002441406</ele>
        <time>2017-05-21T07:52:16.000Z</time>
      </trkpt>
      <trkpt lat="44.11503" lon="5.97409">
        <ele>524</ele>
        <time>2017-05-21T07:52:23.000Z</time>
      </trkpt>
      <trkpt lat="44.11483" lon="5.97406">
        <ele>524.79998779297</ele>
        <time>2017-05-21T07:52:37.000Z</time>
      </trkpt>
      <trkpt lat="44.11465" lon="5.97402">
        <ele>525.59997558594</ele>
        <time>2017-05-21T07:52:50.000Z</time>
      </trkpt>
      <trkpt lat="44.11446" lon="5.97398">
        <ele>526.20001220703</ele>
        <time>2017-05-21T07:53:01.000Z</time>
      </trkpt>
      <trkpt lat="44.11428" lon="5.974">
        <ele>528.59997558594</ele>
        <time>2017-05-21T07:53:16.000Z</time>
      </trkpt>
      <trkpt lat="44.11409" lon="5.97405">
        <ele>531.20001220703</ele>
        <time>2017-05-21T07:53:28.000Z</time>
      </trkpt>
      <trkpt lat="44.1139" lon="5.97411">
        <ele>534</ele>
        <time>2017-05-21T07:53:39.000Z</time>
      </trkpt>
      <trkpt lat="44.11375" lon="5.97417">
        <ele>536.59997558594</ele>
        <time>2017-05-21T07:53:49.000Z</time>
      </trkpt>
      <trkpt lat="44.11359" lon="5.97399">
        <ele>537.79998779297</ele>
        <time>2017-05-21T07:54:00.000Z</time>
      </trkpt>
      <trkpt lat="44.11343" lon="5.97388">
        <ele>539.20001220703</ele>
        <time>2017-05-21T07:54:09.000Z</time>
      </trkpt>
      <trkpt lat="44.11326" lon="5.9738">
        <ele>541</ele>
        <time>2017-05-21T07:54:19.000Z</time>
      </trkpt>
      <trkpt lat="44.11324" lon="5.97379">
        <ele>541</ele>
        <time>2017-05-21T07:54:20.000Z</time>
      </trkpt>
      <trkpt lat="44.11312" lon="5.9736">
        <ele>541</ele>
        <time>2017-05-21T07:54:30.000Z</time>
      </trkpt>
      <trkpt lat="44.11293" lon="5.97349">
        <ele>542.59997558594</ele>
        <time>2017-05-21T07:54:38.000Z</time>
      </trkpt>
      <trkpt lat="44.11274" lon="5.97341">
        <ele>544.40002441406</ele>
        <time>2017-05-21T07:54:47.000Z</time>
      </trkpt>
      <trkpt lat="44.11255" lon="5.97342">
        <ele>546.40002441406</ele>
        <time>2017-05-21T07:54:56.000Z</time>
      </trkpt>
      <trkpt lat="44.11236" lon="5.97346">
        <ele>548.59997558594</ele>
        <time>2017-05-21T07:55:04.000Z</time>
      </trkpt>
      <trkpt lat="44.11217" lon="5.97343">
        <ele>550.20001220703</ele>
        <time>2017-05-21T07:55:11.000Z</time>
      </trkpt>
      <trkpt lat="44.11199" lon="5.97336">
        <ele>551.40002441406</ele>
        <time>2017-05-21T07:55:19.000Z</time>
      </trkpt>
      <trkpt lat="44.1118" lon="5.97337">
        <ele>553.20001220703</ele>
        <time>2017-05-21T07:55:27.000Z</time>
      </trkpt>
      <trkpt lat="44.1116" lon="5.9733">
        <ele>554.20001220703</ele>
        <time>2017-05-21T07:55:33.000Z</time>
      </trkpt>
      <trkpt lat="44.11141" lon="5.97324">
        <ele>555.20001220703</ele>
        <time>2017-05-21T07:55:40.000Z</time>
      </trkpt>
      <trkpt lat="44.11122" lon="5.97323">
        <ele>556.59997558594</ele>
        <time>2017-05-21T07:55:47.000Z</time>
      </trkpt>
      <trkpt lat="44.11116" lon="5.97324">
        <ele>557</ele>
        <time>2017-05-21T07:55:52.000Z</time>
      </trkpt>
      <trkpt lat="44.11106" lon="5.9733">
        <ele>558.20001220703</ele>
        <time>2017-05-21T07:55:56.000Z</time>
      </trkpt>
      <trkpt lat="44.111" lon="5.97331">
        <ele>558.79998779297</ele>
        <time>2017-05-21T07:55:59.000Z</time>
      </trkpt>
      <trkpt lat="44.11099" lon="5.97321">
        <ele>558.20001220703</ele>
        <time>2017-05-21T07:56:05.000Z</time>
      </trkpt>
      <trkpt lat="44.11105" lon="5.97296">
        <ele>556.20001220703</ele>
        <time>2017-05-21T07:56:16.000Z</time>
      </trkpt>
      <trkpt lat="44.11097" lon="5.97277">
        <ele>556.40002441406</ele>
        <time>2017-05-21T07:56:28.000Z</time>
      </trkpt>
      <trkpt lat="44.11103" lon="5.97252">
        <ele>556.20001220703</ele>
        <time>2017-05-21T07:56:40.000Z</time>
      </trkpt>
      <trkpt lat="44.11111" lon="5.97227">
        <ele>556</ele>
        <time>2017-05-21T07:56:49.000Z</time>
      </trkpt>
      <trkpt lat="44.11111" lon="5.972">
        <ele>555</ele>
        <time>2017-05-21T07:56:55.000Z</time>
      </trkpt>
      <trkpt lat="44.11113" lon="5.97186">
        <ele>554.40002441406</ele>
        <time>2017-05-21T07:56:59.000Z</time>
      </trkpt>
      <trkpt lat="44.11124" lon="5.9717">
        <ele>552.59997558594</ele>
        <time>2017-05-21T07:57:04.000Z</time>
      </trkpt>
      <trkpt lat="44.11125" lon="5.97145">
        <ele>552</ele>
        <time>2017-05-21T07:57:11.000Z</time>
      </trkpt>
      <trkpt lat="44.11122" lon="5.97121">
        <ele>549.79998779297</ele>
        <time>2017-05-21T07:57:19.000Z</time>
      </trkpt>
      <trkpt lat="44.11104" lon="5.97119">
        <ele>550.79998779297</ele>
        <time>2017-05-21T07:57:31.000Z</time>
      </trkpt>
      <trkpt lat="44.11101" lon="5.97119">
        <ele>550.79998779297</ele>
        <time>2017-05-21T07:57:32.000Z</time>
      </trkpt>
      <trkpt lat="44.11082" lon="5.97111">
        <ele>551</ele>
        <time>2017-05-21T07:57:38.000Z</time>
      </trkpt>
      <trkpt lat="44.1107" lon="5.97107">
        <ele>551.20001220703</ele>
        <time>2017-05-21T07:57:42.000Z</time>
      </trkpt>
      <trkpt lat="44.11053" lon="5.97101">
        <ele>551</ele>
        <time>2017-05-21T07:57:52.000Z</time>
      </trkpt>
      <trkpt lat="44.11052" lon="5.97097">
        <ele>550.59997558594</ele>
        <time>2017-05-21T07:57:54.000Z</time>
      </trkpt>
      <trkpt lat="44.11039" lon="5.97077">
        <ele>549.20001220703</ele>
        <time>2017-05-21T07:58:05.000Z</time>
      </trkpt>
      <trkpt lat="44.11021" lon="5.97066">
        <ele>549.20001220703</ele>
        <time>2017-05-21T07:58:16.000Z</time>
      </trkpt>
      <trkpt lat="44.11012" lon="5.97067">
        <ele>550</ele>
        <time>2017-05-21T07:58:18.000Z</time>
      </trkpt>
      <trkpt lat="44.10992" lon="5.9707">
        <ele>552</ele>
        <time>2017-05-21T07:58:28.000Z</time>
      </trkpt>
      <trkpt lat="44.10974" lon="5.97069">
        <ele>553.40002441406</ele>
        <time>2017-05-21T07:58:49.000Z</time>
      </trkpt>
      <trkpt lat="44.1098" lon="5.97047">
        <ele>552.40002441406</ele>
        <time>2017-05-21T07:59:25.000Z</time>
      </trkpt>
      <trkpt lat="44.1098" lon="5.97022">
        <ele>553.59997558594</ele>
        <time>2017-05-21T07:59:38.000Z</time>
      </trkpt>
      <trkpt lat="44.10969" lon="5.97001">
        <ele>555.59997558594</ele>
        <time>2017-05-21T07:59:53.000Z</time>
      </trkpt>
      <trkpt lat="44.10951" lon="5.96992">
        <ele>557.59997558594</ele>
        <time>2017-05-21T08:00:06.000Z</time>
      </trkpt>
      <trkpt lat="44.10933" lon="5.96985">
        <ele>560</ele>
        <time>2017-05-21T08:00:18.000Z</time>
      </trkpt>
      <trkpt lat="44.10916" lon="5.96978">
        <ele>562.79998779297</ele>
        <time>2017-05-21T08:00:30.000Z</time>
      </trkpt>
      <trkpt lat="44.10897" lon="5.96971">
        <ele>565.59997558594</ele>
        <time>2017-05-21T08:00:41.000Z</time>
      </trkpt>
      <trkpt lat="44.1088" lon="5.96965">
        <ele>568</ele>
        <time>2017-05-21T08:00:52.000Z</time>
      </trkpt>
      <trkpt lat="44.10874" lon="5.96959">
        <ele>568.79998779297</ele>
        <time>2017-05-21T08:00:56.000Z</time>
      </trkpt>
      <trkpt lat="44.10865" lon="5.96957">
        <ele>570</ele>
        <time>2017-05-21T08:01:00.000Z</time>
      </trkpt>
      <trkpt lat="44.10846" lon="5.96951">
        <ele>572.40002441406</ele>
        <time>2017-05-21T08:01:10.000Z</time>
      </trkpt>
      <trkpt lat="44.10827" lon="5.96946">
        <ele>574.59997558594</ele>
        <time>2017-05-21T08:01:21.000Z</time>
      </trkpt>
      <trkpt lat="44.10809" lon="5.96945">
        <ele>576.59997558594</ele>
        <time>2017-05-21T08:01:33.000Z</time>
      </trkpt>
      <trkpt lat="44.10792" lon="5.96957">
        <ele>578.40002441406</ele>
        <time>2017-05-21T08:01:45.000Z</time>
      </trkpt>
      <trkpt lat="44.10774" lon="5.96964">
        <ele>580.20001220703</ele>
        <time>2017-05-21T08:01:58.000Z</time>
      </trkpt>
      <trkpt lat="44.10757" lon="5.96974">
        <ele>581.20001220703</ele>
        <time>2017-05-21T08:02:09.000Z</time>
      </trkpt>
      <trkpt lat="44.10739" lon="5.96978">
        <ele>582</ele>
        <time>2017-05-21T08:02:21.000Z</time>
      </trkpt>
      <trkpt lat="44.10722" lon="5.96982">
        <ele>583</ele>
        <time>2017-05-21T08:02:35.000Z</time>
      </trkpt>
      <trkpt lat="44.10703" lon="5.96979">
        <ele>584.20001220703</ele>
        <time>2017-05-21T08:02:49.000Z</time>
      </trkpt>
      <trkpt lat="44.10684" lon="5.9698">
        <ele>586</ele>
        <time>2017-05-21T08:02:58.000Z</time>
      </trkpt>
      <trkpt lat="44.10666" lon="5.96974">
        <ele>588.59997558594</ele>
        <time>2017-05-21T08:03:10.000Z</time>
      </trkpt>
      <trkpt lat="44.10648" lon="5.96975">
        <ele>591</ele>
        <time>2017-05-21T08:03:21.000Z</time>
      </trkpt>
      <trkpt lat="44.1063" lon="5.96981">
        <ele>593.20001220703</ele>
        <time>2017-05-21T08:03:31.000Z</time>
      </trkpt>
      <trkpt lat="44.10612" lon="5.96982">
        <ele>595.40002441406</ele>
        <time>2017-05-21T08:03:41.000Z</time>
      </trkpt>
      <trkpt lat="44.10605" lon="5.96979">
        <ele>596.40002441406</ele>
        <time>2017-05-21T08:03:48.000Z</time>
      </trkpt>
      <trkpt lat="44.10587" lon="5.96979">
        <ele>598.79998779297</ele>
        <time>2017-05-21T08:04:03.000Z</time>
      </trkpt>
      <trkpt lat="44.10569" lon="5.96974">
        <ele>601.40002441406</ele>
        <time>2017-05-21T08:04:18.000Z</time>
      </trkpt>
      <trkpt lat="44.1055" lon="5.96968">
        <ele>604</ele>
        <time>2017-05-21T08:04:31.000Z</time>
      </trkpt>
      <trkpt lat="44.10534" lon="5.96955">
        <ele>606.40002441406</ele>
        <time>2017-05-21T08:04:44.000Z</time>
      </trkpt>
      <trkpt lat="44.10516" lon="5.96949">
        <ele>608.79998779297</ele>
        <time>2017-05-21T08:04:55.000Z</time>
      </trkpt>
      <trkpt lat="44.10498" lon="5.96946">
        <ele>611.59997558594</ele>
        <time>2017-05-21T08:05:08.000Z</time>
      </trkpt>
      <trkpt lat="44.1048" lon="5.96944">
        <ele>614.40002441406</ele>
        <time>2017-05-21T08:05:19.000Z</time>
      </trkpt>
      <trkpt lat="44.10464" lon="5.96931">
        <ele>616.79998779297</ele>
        <time>2017-05-21T08:05:35.000Z</time>
      </trkpt>
      <trkpt lat="44.10451" lon="5.96913">
        <ele>618.79998779297</ele>
        <time>2017-05-21T08:05:46.000Z</time>
      </trkpt>
      <trkpt lat="44.10435" lon="5.96902">
        <ele>621.20001220703</ele>
        <time>2017-05-21T08:05:56.000Z</time>
      </trkpt>
      <trkpt lat="44.10417" lon="5.96893">
        <ele>623.79998779297</ele>
        <time>2017-05-21T08:06:07.000Z</time>
      </trkpt>
      <trkpt lat="44.10397" lon="5.96883">
        <ele>626.20001220703</ele>
        <time>2017-05-21T08:06:14.000Z</time>
      </trkpt>
      <trkpt lat="44.10382" lon="5.96876">
        <ele>627.79998779297</ele>
        <time>2017-05-21T08:06:18.000Z</time>
      </trkpt>
      <trkpt lat="44.10366" lon="5.96873">
        <ele>630</ele>
        <time>2017-05-21T08:06:31.000Z</time>
      </trkpt>
      <trkpt lat="44.10359" lon="5.96857">
        <ele>630.20001220703</ele>
        <time>2017-05-21T08:07:05.000Z</time>
      </trkpt>
      <trkpt lat="44.10369" lon="5.96838">
        <ele>627.59997558594</ele>
        <time>2017-05-21T08:07:17.000Z</time>
      </trkpt>
      <trkpt lat="44.10361" lon="5.96835">
        <ele>628.40002441406</ele>
        <time>2017-05-21T08:07:22.000Z</time>
      </trkpt>
      <trkpt lat="44.10358" lon="5.96835">
        <ele>629.20001220703</ele>
        <time>2017-05-21T08:07:24.000Z</time>
      </trkpt>
      <trkpt lat="44.10341" lon="5.96824">
        <ele>632</ele>
        <time>2017-05-21T08:07:35.000Z</time>
      </trkpt>
      <trkpt lat="44.10326" lon="5.96809">
        <ele>634.40002441406</ele>
        <time>2017-05-21T08:07:43.000Z</time>
      </trkpt>
      <trkpt lat="44.10316" lon="5.96805">
        <ele>636.40002441406</ele>
        <time>2017-05-21T08:07:49.000Z</time>
      </trkpt>
      <trkpt lat="44.10301" lon="5.96787">
        <ele>638.79998779297</ele>
        <time>2017-05-21T08:07:59.000Z</time>
      </trkpt>
      <trkpt lat="44.10287" lon="5.96771">
        <ele>641</ele>
        <time>2017-05-21T08:08:09.000Z</time>
      </trkpt>
      <trkpt lat="44.1027" lon="5.96758">
        <ele>644.40002441406</ele>
        <time>2017-05-21T08:08:22.000Z</time>
      </trkpt>
      <trkpt lat="44.10255" lon="5.96741">
        <ele>647.59997558594</ele>
        <time>2017-05-21T08:08:32.000Z</time>
      </trkpt>
      <trkpt lat="44.1024" lon="5.96724">
        <ele>651.20001220703</ele>
        <time>2017-05-21T08:08:42.000Z</time>
      </trkpt>
      <trkpt lat="44.10225" lon="5.96709">
        <ele>652.79998779297</ele>
        <time>2017-05-21T08:08:52.000Z</time>
      </trkpt>
      <trkpt lat="44.10212" lon="5.96693">
        <ele>654</ele>
        <time>2017-05-21T08:09:02.000Z</time>
      </trkpt>
      <trkpt lat="44.10208" lon="5.96687">
        <ele>654.20001220703</ele>
        <time>2017-05-21T08:09:05.000Z</time>
      </trkpt>
      <trkpt lat="44.10201" lon="5.96683">
        <ele>655.40002441406</ele>
        <time>2017-05-21T08:09:09.000Z</time>
      </trkpt>
      <trkpt lat="44.10187" lon="5.96667">
        <ele>655.20001220703</ele>
        <time>2017-05-21T08:09:20.000Z</time>
      </trkpt>
      <trkpt lat="44.1017" lon="5.96656">
        <ele>654.20001220703</ele>
        <time>2017-05-21T08:09:32.000Z</time>
      </trkpt>
      <trkpt lat="44.10151" lon="5.96653">
        <ele>654.40002441406</ele>
        <time>2017-05-21T08:09:44.000Z</time>
      </trkpt>
      <trkpt lat="44.10132" lon="5.96657">
        <ele>655.79998779297</ele>
        <time>2017-05-21T08:09:55.000Z</time>
      </trkpt>
      <trkpt lat="44.1013" lon="5.96658">
        <ele>656</ele>
        <time>2017-05-21T08:09:56.000Z</time>
      </trkpt>
      <trkpt lat="44.10122" lon="5.96661">
        <ele>656.79998779297</ele>
        <time>2017-05-21T08:10:01.000Z</time>
      </trkpt>
      <trkpt lat="44.10111" lon="5.96658">
        <ele>656.79998779297</ele>
        <time>2017-05-21T08:10:12.000Z</time>
      </trkpt>
      <trkpt lat="44.10095" lon="5.96646">
        <ele>655.59997558594</ele>
        <time>2017-05-21T08:10:22.000Z</time>
      </trkpt>
      <trkpt lat="44.10076" lon="5.96643">
        <ele>656</ele>
        <time>2017-05-21T08:10:29.000Z</time>
      </trkpt>
      <trkpt lat="44.10061" lon="5.9666">
        <ele>659.40002441406</ele>
        <time>2017-05-21T08:10:34.000Z</time>
      </trkpt>
      <trkpt lat="44.10057" lon="5.96662">
        <ele>660</ele>
        <time>2017-05-21T08:10:35.000Z</time>
      </trkpt>
      <trkpt lat="44.10041" lon="5.96652">
        <ele>659</ele>
        <time>2017-05-21T08:10:40.000Z</time>
      </trkpt>
      <trkpt lat="44.10038" lon="5.96643">
        <ele>657.79998779297</ele>
        <time>2017-05-21T08:10:42.000Z</time>
      </trkpt>
      <trkpt lat="44.10029" lon="5.96618">
        <ele>656.79998779297</ele>
        <time>2017-05-21T08:10:52.000Z</time>
      </trkpt>
      <trkpt lat="44.10027" lon="5.96612">
        <ele>656.59997558594</ele>
        <time>2017-05-21T08:10:54.000Z</time>
      </trkpt>
      <trkpt lat="44.10017" lon="5.96591">
        <ele>655.40002441406</ele>
        <time>2017-05-21T08:11:04.000Z</time>
      </trkpt>
      <trkpt lat="44.10004" lon="5.96572">
        <ele>654.20001220703</ele>
        <time>2017-05-21T08:11:11.000Z</time>
      </trkpt>
      <trkpt lat="44.0999" lon="5.96551">
        <ele>652.59997558594</ele>
        <time>2017-05-21T08:11:17.000Z</time>
      </trkpt>
      <trkpt lat="44.09987" lon="5.96549">
        <ele>652.40002441406</ele>
        <time>2017-05-21T08:11:18.000Z</time>
      </trkpt>
      <trkpt lat="44.09967" lon="5.96555">
        <ele>652.40002441406</ele>
        <time>2017-05-21T08:11:24.000Z</time>
      </trkpt>
      <trkpt lat="44.09953" lon="5.96571">
        <ele>652.79998779297</ele>
        <time>2017-05-21T08:11:29.000Z</time>
      </trkpt>
      <trkpt lat="44.09937" lon="5.96585">
        <ele>653.20001220703</ele>
        <time>2017-05-21T08:11:34.000Z</time>
      </trkpt>
      <trkpt lat="44.09929" lon="5.9659">
        <ele>652.79998779297</ele>
        <time>2017-05-21T08:11:36.000Z</time>
      </trkpt>
      <trkpt lat="44.09909" lon="5.96599">
        <ele>652</ele>
        <time>2017-05-21T08:11:41.000Z</time>
      </trkpt>
      <trkpt lat="44.09891" lon="5.96609">
        <ele>651.59997558594</ele>
        <time>2017-05-21T08:11:47.000Z</time>
      </trkpt>
      <trkpt lat="44.09876" lon="5.96628">
        <ele>652</ele>
        <time>2017-05-21T08:11:53.000Z</time>
      </trkpt>
      <trkpt lat="44.09864" lon="5.96651">
        <ele>653.20001220703</ele>
        <time>2017-05-21T08:11:58.000Z</time>
      </trkpt>
      <trkpt lat="44.09858" lon="5.96676">
        <ele>654.20001220703</ele>
        <time>2017-05-21T08:12:06.000Z</time>
      </trkpt>
      <trkpt lat="44.09858" lon="5.96701">
        <ele>656.20001220703</ele>
        <time>2017-05-21T08:12:14.000Z</time>
      </trkpt>
      <trkpt lat="44.09864" lon="5.96715">
        <ele>657.79998779297</ele>
        <time>2017-05-21T08:12:20.000Z</time>
      </trkpt>
      <trkpt lat="44.09857" lon="5.96727">
        <ele>658</ele>
        <time>2017-05-21T08:12:27.000Z</time>
      </trkpt>
      <trkpt lat="44.09839" lon="5.96736">
        <ele>657.59997558594</ele>
        <time>2017-05-21T08:12:41.000Z</time>
      </trkpt>
      <trkpt lat="44.09822" lon="5.96729">
        <ele>655</ele>
        <time>2017-05-21T08:12:46.000Z</time>
      </trkpt>
      <trkpt lat="44.09803" lon="5.96714">
        <ele>652</ele>
        <time>2017-05-21T08:12:51.000Z</time>
      </trkpt>
      <trkpt lat="44.09791" lon="5.96721">
        <ele>651.20001220703</ele>
        <time>2017-05-21T08:12:55.000Z</time>
      </trkpt>
      <trkpt lat="44.09773" lon="5.9673">
        <ele>650.79998779297</ele>
        <time>2017-05-21T08:13:01.000Z</time>
      </trkpt>
      <trkpt lat="44.09753" lon="5.9673">
        <ele>649.79998779297</ele>
        <time>2017-05-21T08:13:05.000Z</time>
      </trkpt>
      <trkpt lat="44.09739" lon="5.96744">
        <ele>651.40002441406</ele>
        <time>2017-05-21T08:13:15.000Z</time>
      </trkpt>
      <trkpt lat="44.09726" lon="5.96762">
        <ele>653.59997558594</ele>
        <time>2017-05-21T08:13:22.000Z</time>
      </trkpt>
      <trkpt lat="44.09712" lon="5.96781">
        <ele>653.79998779297</ele>
        <time>2017-05-21T08:13:31.000Z</time>
      </trkpt>
      <trkpt lat="44.09703" lon="5.9679">
        <ele>653.40002441406</ele>
        <time>2017-05-21T08:13:38.000Z</time>
      </trkpt>
      <trkpt lat="44.09701" lon="5.96802">
        <ele>654.40002441406</ele>
        <time>2017-05-21T08:13:43.000Z</time>
      </trkpt>
      <trkpt lat="44.09699" lon="5.96814">
        <ele>656.40002441406</ele>
        <time>2017-05-21T08:13:48.000Z</time>
      </trkpt>
      <trkpt lat="44.09695" lon="5.96819">
        <ele>656.40002441406</ele>
        <time>2017-05-21T08:13:52.000Z</time>
      </trkpt>
      <trkpt lat="44.09686" lon="5.96821">
        <ele>656</ele>
        <time>2017-05-21T08:13:57.000Z</time>
      </trkpt>
      <trkpt lat="44.09667" lon="5.96825">
        <ele>655</ele>
        <time>2017-05-21T08:14:02.000Z</time>
      </trkpt>
      <trkpt lat="44.09653" lon="5.9684">
        <ele>656.59997558594</ele>
        <time>2017-05-21T08:14:09.000Z</time>
      </trkpt>
      <trkpt lat="44.09639" lon="5.96858">
        <ele>657</ele>
        <time>2017-05-21T08:14:18.000Z</time>
      </trkpt>
      <trkpt lat="44.09636" lon="5.96862">
        <ele>656.79998779297</ele>
        <time>2017-05-21T08:14:21.000Z</time>
      </trkpt>
      <trkpt lat="44.09627" lon="5.9686">
        <ele>654.79998779297</ele>
        <time>2017-05-21T08:14:26.000Z</time>
      </trkpt>
      <trkpt lat="44.09612" lon="5.96842">
        <ele>650</ele>
        <time>2017-05-21T08:14:33.000Z</time>
      </trkpt>
      <trkpt lat="44.09605" lon="5.96837">
        <ele>648.20001220703</ele>
        <time>2017-05-21T08:14:37.000Z</time>
      </trkpt>
      <trkpt lat="44.09587" lon="5.96841">
        <ele>645.59997558594</ele>
        <time>2017-05-21T08:14:44.000Z</time>
      </trkpt>
      <trkpt lat="44.0957" lon="5.96852">
        <ele>644</ele>
        <time>2017-05-21T08:14:49.000Z</time>
      </trkpt>
      <trkpt lat="44.0955" lon="5.9686">
        <ele>640.59997558594</ele>
        <time>2017-05-21T08:14:55.000Z</time>
      </trkpt>
      <trkpt lat="44.09538" lon="5.96864">
        <ele>638.40002441406</ele>
        <time>2017-05-21T08:14:58.000Z</time>
      </trkpt>
      <trkpt lat="44.09519" lon="5.96876">
        <ele>636.20001220703</ele>
        <time>2017-05-21T08:15:03.000Z</time>
      </trkpt>
      <trkpt lat="44.09513" lon="5.96875">
        <ele>635.59997558594</ele>
        <time>2017-05-21T08:15:04.000Z</time>
      </trkpt>
      <trkpt lat="44.09508" lon="5.96875">
        <ele>635</ele>
        <time>2017-05-21T08:15:05.000Z</time>
      </trkpt>
      <trkpt lat="44.09488" lon="5.9687">
        <ele>632.79998779297</ele>
        <time>2017-05-21T08:15:11.000Z</time>
      </trkpt>
      <trkpt lat="44.0947" lon="5.96874">
        <ele>631.40002441406</ele>
        <time>2017-05-21T08:15:17.000Z</time>
      </trkpt>
      <trkpt lat="44.09469" lon="5.96874">
        <ele>631.20001220703</ele>
        <time>2017-05-21T08:15:18.000Z</time>
      </trkpt>
      <trkpt lat="44.09451" lon="5.96886">
        <ele>630.40002441406</ele>
        <time>2017-05-21T08:15:31.000Z</time>
      </trkpt>
      <trkpt lat="44.09443" lon="5.96895">
        <ele>629.79998779297</ele>
        <time>2017-05-21T08:15:37.000Z</time>
      </trkpt>
      <trkpt lat="44.09445" lon="5.96906">
        <ele>630</ele>
        <time>2017-05-21T08:15:43.000Z</time>
      </trkpt>
      <trkpt lat="44.09445" lon="5.96932">
        <ele>629.40002441406</ele>
        <time>2017-05-21T08:15:54.000Z</time>
      </trkpt>
      <trkpt lat="44.09445" lon="5.96941">
        <ele>629.20001220703</ele>
        <time>2017-05-21T08:15:59.000Z</time>
      </trkpt>
      <trkpt lat="44.0944" lon="5.96951">
        <ele>628.20001220703</ele>
        <time>2017-05-21T08:16:04.000Z</time>
      </trkpt>
      <trkpt lat="44.09431" lon="5.96968">
        <ele>626.59997558594</ele>
        <time>2017-05-21T08:16:10.000Z</time>
      </trkpt>
      <trkpt lat="44.09419" lon="5.96986">
        <ele>624.59997558594</ele>
        <time>2017-05-21T08:16:16.000Z</time>
      </trkpt>
      <trkpt lat="44.09419" lon="5.97">
        <ele>624.79998779297</ele>
        <time>2017-05-21T08:16:20.000Z</time>
      </trkpt>
      <trkpt lat="44.09405" lon="5.97015">
        <ele>623</ele>
        <time>2017-05-21T08:16:26.000Z</time>
      </trkpt>
      <trkpt lat="44.09394" lon="5.97028">
        <ele>622.40002441406</ele>
        <time>2017-05-21T08:16:33.000Z</time>
      </trkpt>
      <trkpt lat="44.09393" lon="5.97054">
        <ele>623.79998779297</ele>
        <time>2017-05-21T08:16:44.000Z</time>
      </trkpt>
      <trkpt lat="44.09382" lon="5.97077">
        <ele>623</ele>
        <time>2017-05-21T08:16:54.000Z</time>
      </trkpt>
      <trkpt lat="44.09368" lon="5.97097">
        <ele>622.20001220703</ele>
        <time>2017-05-21T08:16:59.000Z</time>
      </trkpt>
      <trkpt lat="44.09356" lon="5.97115">
        <ele>621.40002441406</ele>
        <time>2017-05-21T08:17:04.000Z</time>
      </trkpt>
      <trkpt lat="44.0935" lon="5.97131">
        <ele>621.20001220703</ele>
        <time>2017-05-21T08:17:07.000Z</time>
      </trkpt>
      <trkpt lat="44.09339" lon="5.97151">
        <ele>624</ele>
        <time>2017-05-21T08:17:12.000Z</time>
      </trkpt>
      <trkpt lat="44.09328" lon="5.97167">
        <ele>626.20001220703</ele>
        <time>2017-05-21T08:17:31.000Z</time>
      </trkpt>
      <trkpt lat="44.09323" lon="5.97158">
        <ele>624.59997558594</ele>
        <time>2017-05-21T08:17:37.000Z</time>
      </trkpt>
      <trkpt lat="44.09307" lon="5.97149">
        <ele>622.40002441406</ele>
        <time>2017-05-21T08:17:46.000Z</time>
      </trkpt>
      <trkpt lat="44.09296" lon="5.97151">
        <ele>622.40002441406</ele>
        <time>2017-05-21T08:17:51.000Z</time>
      </trkpt>
      <trkpt lat="44.09293" lon="5.97171">
        <ele>626</ele>
        <time>2017-05-21T08:18:02.000Z</time>
      </trkpt>
      <trkpt lat="44.0928" lon="5.9719">
        <ele>630</ele>
        <time>2017-05-21T08:18:14.000Z</time>
      </trkpt>
      <trkpt lat="44.09265" lon="5.97205">
        <ele>633.20001220703</ele>
        <time>2017-05-21T08:18:26.000Z</time>
      </trkpt>
      <trkpt lat="44.09254" lon="5.97211">
        <ele>634.79998779297</ele>
        <time>2017-05-21T08:18:34.000Z</time>
      </trkpt>
      <trkpt lat="44.09265" lon="5.97219">
        <ele>636</ele>
        <time>2017-05-21T08:18:48.000Z</time>
      </trkpt>
      <trkpt lat="44.09282" lon="5.97226">
        <ele>637.40002441406</ele>
        <time>2017-05-21T08:19:01.000Z</time>
      </trkpt>
      <trkpt lat="44.093" lon="5.97235">
        <ele>639.20001220703</ele>
        <time>2017-05-21T08:19:15.000Z</time>
      </trkpt>
      <trkpt lat="44.09309" lon="5.9724">
        <ele>640.20001220703</ele>
        <time>2017-05-21T08:19:22.000Z</time>
      </trkpt>
      <trkpt lat="44.09314" lon="5.97245">
        <ele>641.20001220703</ele>
        <time>2017-05-21T08:19:26.000Z</time>
      </trkpt>
      <trkpt lat="44.09322" lon="5.97257">
        <ele>643.59997558594</ele>
        <time>2017-05-21T08:19:37.000Z</time>
      </trkpt>
      <trkpt lat="44.09303" lon="5.97256">
        <ele>643.40002441406</ele>
        <time>2017-05-21T08:19:48.000Z</time>
      </trkpt>
      <trkpt lat="44.09285" lon="5.97257">
        <ele>643.40002441406</ele>
        <time>2017-05-21T08:19:55.000Z</time>
      </trkpt>
      <trkpt lat="44.09281" lon="5.97258">
        <ele>643.59997558594</ele>
        <time>2017-05-21T08:19:57.000Z</time>
      </trkpt>
      <trkpt lat="44.09262" lon="5.9725">
        <ele>642.40002441406</ele>
        <time>2017-05-21T08:20:03.000Z</time>
      </trkpt>
      <trkpt lat="44.0926" lon="5.97264">
        <ele>645</ele>
        <time>2017-05-21T08:20:21.000Z</time>
      </trkpt>
      <trkpt lat="44.09272" lon="5.97282">
        <ele>648.20001220703</ele>
        <time>2017-05-21T08:20:44.000Z</time>
      </trkpt>
      <trkpt lat="44.09287" lon="5.97297">
        <ele>651</ele>
        <time>2017-05-21T08:21:09.000Z</time>
      </trkpt>
      <trkpt lat="44.09302" lon="5.97311">
        <ele>653.40002441406</ele>
        <time>2017-05-21T08:21:35.000Z</time>
      </trkpt>
      <trkpt lat="44.09313" lon="5.97331">
        <ele>653.79998779297</ele>
        <time>2017-05-21T08:21:58.000Z</time>
      </trkpt>
      <trkpt lat="44.09323" lon="5.97344">
        <ele>654</ele>
        <time>2017-05-21T08:22:22.000Z</time>
      </trkpt>
      <trkpt lat="44.09342" lon="5.97347">
        <ele>654.20001220703</ele>
        <time>2017-05-21T08:22:31.000Z</time>
      </trkpt>
      <trkpt lat="44.09361" lon="5.97348">
        <ele>654.59997558594</ele>
        <time>2017-05-21T08:22:40.000Z</time>
      </trkpt>
      <trkpt lat="44.09379" lon="5.97352">
        <ele>655.20001220703</ele>
        <time>2017-05-21T08:22:47.000Z</time>
      </trkpt>
      <trkpt lat="44.09398" lon="5.97358">
        <ele>656</ele>
        <time>2017-05-21T08:22:55.000Z</time>
      </trkpt>
      <trkpt lat="44.09416" lon="5.97359">
        <ele>656.79998779297</ele>
        <time>2017-05-21T08:23:04.000Z</time>
      </trkpt>
      <trkpt lat="44.09434" lon="5.97351">
        <ele>657.59997558594</ele>
        <time>2017-05-21T08:23:13.000Z</time>
      </trkpt>
      <trkpt lat="44.0945" lon="5.97336">
        <ele>658.20001220703</ele>
        <time>2017-05-21T08:23:23.000Z</time>
      </trkpt>
      <trkpt lat="44.09464" lon="5.97321">
        <ele>659.20001220703</ele>
        <time>2017-05-21T08:23:32.000Z</time>
      </trkpt>
      <trkpt lat="44.09482" lon="5.97308">
        <ele>662.59997558594</ele>
        <time>2017-05-21T08:23:40.000Z</time>
      </trkpt>
      <trkpt lat="44.095" lon="5.97305">
        <ele>664.40002441406</ele>
        <time>2017-05-21T08:23:47.000Z</time>
      </trkpt>
      <trkpt lat="44.09517" lon="5.97321">
        <ele>665.59997558594</ele>
        <time>2017-05-21T08:23:54.000Z</time>
      </trkpt>
      <trkpt lat="44.09525" lon="5.97326">
        <ele>666</ele>
        <time>2017-05-21T08:23:56.000Z</time>
      </trkpt>
      <trkpt lat="44.09544" lon="5.97335">
        <ele>663.79998779297</ele>
        <time>2017-05-21T08:24:00.000Z</time>
      </trkpt>
      <trkpt lat="44.0956" lon="5.97347">
        <ele>661</ele>
        <time>2017-05-21T08:24:04.000Z</time>
      </trkpt>
      <trkpt lat="44.09563" lon="5.97353">
        <ele>660.20001220703</ele>
        <time>2017-05-21T08:24:06.000Z</time>
      </trkpt>
      <trkpt lat="44.09574" lon="5.97374">
        <ele>657</ele>
        <time>2017-05-21T08:24:15.000Z</time>
      </trkpt>
      <trkpt lat="44.09574" lon="5.97378">
        <ele>656.59997558594</ele>
        <time>2017-05-21T08:24:17.000Z</time>
      </trkpt>
      <trkpt lat="44.09567" lon="5.97402">
        <ele>655.20001220703</ele>
        <time>2017-05-21T08:24:31.000Z</time>
      </trkpt>
      <trkpt lat="44.0956" lon="5.97425">
        <ele>654</ele>
        <time>2017-05-21T08:24:37.000Z</time>
      </trkpt>
      <trkpt lat="44.09549" lon="5.97451">
        <ele>650.59997558594</ele>
        <time>2017-05-21T08:24:44.000Z</time>
      </trkpt>
      <trkpt lat="44.09538" lon="5.97476">
        <ele>647.59997558594</ele>
        <time>2017-05-21T08:24:48.000Z</time>
      </trkpt>
      <trkpt lat="44.0953" lon="5.97493">
        <ele>645.40002441406</ele>
        <time>2017-05-21T08:24:52.000Z</time>
      </trkpt>
      <trkpt lat="44.09521" lon="5.97519">
        <ele>641</ele>
        <time>2017-05-21T08:24:57.000Z</time>
      </trkpt>
      <trkpt lat="44.09508" lon="5.97544">
        <ele>637.20001220703</ele>
        <time>2017-05-21T08:25:03.000Z</time>
      </trkpt>
      <trkpt lat="44.09497" lon="5.97574">
        <ele>633.40002441406</ele>
        <time>2017-05-21T08:25:07.000Z</time>
      </trkpt>
      <trkpt lat="44.09494" lon="5.97582">
        <ele>632.59997558594</ele>
        <time>2017-05-21T08:25:08.000Z</time>
      </trkpt>
      <trkpt lat="44.09482" lon="5.97602">
        <ele>630</ele>
        <time>2017-05-21T08:25:11.000Z</time>
      </trkpt>
      <trkpt lat="44.09467" lon="5.97624">
        <ele>626.20001220703</ele>
        <time>2017-05-21T08:25:15.000Z</time>
      </trkpt>
      <trkpt lat="44.09453" lon="5.97641">
        <ele>623.20001220703</ele>
        <time>2017-05-21T08:25:22.000Z</time>
      </trkpt>
      <trkpt lat="44.0945" lon="5.97644">
        <ele>623.20001220703</ele>
        <time>2017-05-21T08:25:23.000Z</time>
      </trkpt>
      <trkpt lat="44.09442" lon="5.97652">
        <ele>621.59997558594</ele>
        <time>2017-05-21T08:25:25.000Z</time>
      </trkpt>
      <trkpt lat="44.09424" lon="5.97663">
        <ele>620.20001220703</ele>
        <time>2017-05-21T08:25:29.000Z</time>
      </trkpt>
      <trkpt lat="44.0942" lon="5.97666">
        <ele>619.79998779297</ele>
        <time>2017-05-21T08:25:30.000Z</time>
      </trkpt>
      <trkpt lat="44.09401" lon="5.97678">
        <ele>618.20001220703</ele>
        <time>2017-05-21T08:25:35.000Z</time>
      </trkpt>
      <trkpt lat="44.09395" lon="5.97688">
        <ele>616.20001220703</ele>
        <time>2017-05-21T08:25:38.000Z</time>
      </trkpt>
      <trkpt lat="44.09379" lon="5.97697">
        <ele>613.79998779297</ele>
        <time>2017-05-21T08:25:51.000Z</time>
      </trkpt>
      <trkpt lat="44.09361" lon="5.97705">
        <ele>611.40002441406</ele>
        <time>2017-05-21T08:26:07.000Z</time>
      </trkpt>
      <trkpt lat="44.09349" lon="5.97697">
        <ele>612.59997558594</ele>
        <time>2017-05-21T08:26:13.000Z</time>
      </trkpt>
      <trkpt lat="44.09333" lon="5.97681">
        <ele>615.40002441406</ele>
        <time>2017-05-21T08:26:20.000Z</time>
      </trkpt>
      <trkpt lat="44.09332" lon="5.97655">
        <ele>619.79998779297</ele>
        <time>2017-05-21T08:26:26.000Z</time>
      </trkpt>
      <trkpt lat="44.09323" lon="5.97655">
        <ele>619.79998779297</ele>
        <time>2017-05-21T08:26:31.000Z</time>
      </trkpt>
      <trkpt lat="44.09304" lon="5.97663">
        <ele>618.40002441406</ele>
        <time>2017-05-21T08:26:39.000Z</time>
      </trkpt>
      <trkpt lat="44.09299" lon="5.97664">
        <ele>618.20001220703</ele>
        <time>2017-05-21T08:26:41.000Z</time>
      </trkpt>
      <trkpt lat="44.09289" lon="5.97653">
        <ele>620</ele>
        <time>2017-05-21T08:26:46.000Z</time>
      </trkpt>
      <trkpt lat="44.09285" lon="5.9765">
        <ele>620.40002441406</ele>
        <time>2017-05-21T08:26:48.000Z</time>
      </trkpt>
      <trkpt lat="44.09269" lon="5.97662">
        <ele>617.79998779297</ele>
        <time>2017-05-21T08:26:54.000Z</time>
      </trkpt>
      <trkpt lat="44.09252" lon="5.97652">
        <ele>619.79998779297</ele>
        <time>2017-05-21T08:26:59.000Z</time>
      </trkpt>
      <trkpt lat="44.09241" lon="5.97645">
        <ele>621.40002441406</ele>
        <time>2017-05-21T08:27:03.000Z</time>
      </trkpt>
      <trkpt lat="44.09224" lon="5.97645">
        <ele>621.20001220703</ele>
        <time>2017-05-21T08:27:15.000Z</time>
      </trkpt>
      <trkpt lat="44.09205" lon="5.97646">
        <ele>621</ele>
        <time>2017-05-21T08:27:26.000Z</time>
      </trkpt>
      <trkpt lat="44.092" lon="5.97646">
        <ele>621</ele>
        <time>2017-05-21T08:27:28.000Z</time>
      </trkpt>
      <trkpt lat="44.09189" lon="5.97645">
        <ele>621.20001220703</ele>
        <time>2017-05-21T08:27:33.000Z</time>
      </trkpt>
      <trkpt lat="44.09178" lon="5.97641">
        <ele>620.79998779297</ele>
        <time>2017-05-21T08:27:37.000Z</time>
      </trkpt>
      <trkpt lat="44.09168" lon="5.97632">
        <ele>621</ele>
        <time>2017-05-21T08:27:44.000Z</time>
      </trkpt>
      <trkpt lat="44.09169" lon="5.97621">
        <ele>622.20001220703</ele>
        <time>2017-05-21T08:27:49.000Z</time>
      </trkpt>
      <trkpt lat="44.09171" lon="5.97604">
        <ele>624.40002441406</ele>
        <time>2017-05-21T08:28:00.000Z</time>
      </trkpt>
      <trkpt lat="44.09178" lon="5.97595">
        <ele>626.20001220703</ele>
        <time>2017-05-21T08:28:04.000Z</time>
      </trkpt>
      <trkpt lat="44.09179" lon="5.97589">
        <ele>626.79998779297</ele>
        <time>2017-05-21T08:28:06.000Z</time>
      </trkpt>
      <trkpt lat="44.09172" lon="5.97576">
        <ele>627.79998779297</ele>
        <time>2017-05-21T08:28:11.000Z</time>
      </trkpt>
      <trkpt lat="44.09169" lon="5.97574">
        <ele>627.79998779297</ele>
        <time>2017-05-21T08:28:12.000Z</time>
      </trkpt>
      <trkpt lat="44.09152" lon="5.97562">
        <ele>627.59997558594</ele>
        <time>2017-05-21T08:28:17.000Z</time>
      </trkpt>
      <trkpt lat="44.09149" lon="5.9756">
        <ele>627.59997558594</ele>
        <time>2017-05-21T08:28:18.000Z</time>
      </trkpt>
      <trkpt lat="44.09139" lon="5.97552">
        <ele>627.59997558594</ele>
        <time>2017-05-21T08:28:21.000Z</time>
      </trkpt>
      <trkpt lat="44.09119" lon="5.97556">
        <ele>625.20001220703</ele>
        <time>2017-05-21T08:28:26.000Z</time>
      </trkpt>
      <trkpt lat="44.09112" lon="5.97556">
        <ele>624.40002441406</ele>
        <time>2017-05-21T08:28:28.000Z</time>
      </trkpt>
      <trkpt lat="44.09096" lon="5.97563">
        <ele>623</ele>
        <time>2017-05-21T08:28:32.000Z</time>
      </trkpt>
      <trkpt lat="44.09078" lon="5.9756">
        <ele>622.59997558594</ele>
        <time>2017-05-21T08:28:37.000Z</time>
      </trkpt>
      <trkpt lat="44.09075" lon="5.97558">
        <ele>622.79998779297</ele>
        <time>2017-05-21T08:28:38.000Z</time>
      </trkpt>
      <trkpt lat="44.09064" lon="5.97549">
        <ele>624</ele>
        <time>2017-05-21T08:28:42.000Z</time>
      </trkpt>
      <trkpt lat="44.09046" lon="5.97538">
        <ele>625</ele>
        <time>2017-05-21T08:28:48.000Z</time>
      </trkpt>
      <trkpt lat="44.09027" lon="5.97532">
        <ele>625.40002441406</ele>
        <time>2017-05-21T08:28:56.000Z</time>
      </trkpt>
      <trkpt lat="44.09007" lon="5.9753">
        <ele>624.79998779297</ele>
        <time>2017-05-21T08:29:03.000Z</time>
      </trkpt>
      <trkpt lat="44.08991" lon="5.97521">
        <ele>625.40002441406</ele>
        <time>2017-05-21T08:29:11.000Z</time>
      </trkpt>
      <trkpt lat="44.0898" lon="5.9753">
        <ele>623.40002441406</ele>
        <time>2017-05-21T08:29:15.000Z</time>
      </trkpt>
      <trkpt lat="44.08976" lon="5.97533">
        <ele>622.59997558594</ele>
        <time>2017-05-21T08:29:16.000Z</time>
      </trkpt>
      <trkpt lat="44.08962" lon="5.97539">
        <ele>620.59997558594</ele>
        <time>2017-05-21T08:29:21.000Z</time>
      </trkpt>
      <trkpt lat="44.0896" lon="5.97543">
        <ele>619.79998779297</ele>
        <time>2017-05-21T08:29:24.000Z</time>
      </trkpt>
      <trkpt lat="44.08959" lon="5.97552">
        <ele>618</ele>
        <time>2017-05-21T08:29:28.000Z</time>
      </trkpt>
      <trkpt lat="44.08954" lon="5.97549">
        <ele>618.20001220703</ele>
        <time>2017-05-21T08:29:32.000Z</time>
      </trkpt>
      <trkpt lat="44.0894" lon="5.97566">
        <ele>614.79998779297</ele>
        <time>2017-05-21T08:29:37.000Z</time>
      </trkpt>
      <trkpt lat="44.08922" lon="5.97573">
        <ele>614</ele>
        <time>2017-05-21T08:29:41.000Z</time>
      </trkpt>
      <trkpt lat="44.08917" lon="5.97575">
        <ele>613.59997558594</ele>
        <time>2017-05-21T08:29:42.000Z</time>
      </trkpt>
      <trkpt lat="44.08908" lon="5.97581">
        <ele>613</ele>
        <time>2017-05-21T08:29:44.000Z</time>
      </trkpt>
      <trkpt lat="44.08888" lon="5.97592">
        <ele>611.40002441406</ele>
        <time>2017-05-21T08:29:48.000Z</time>
      </trkpt>
      <trkpt lat="44.08868" lon="5.97603">
        <ele>609.79998779297</ele>
        <time>2017-05-21T08:29:52.000Z</time>
      </trkpt>
      <trkpt lat="44.08857" lon="5.97606">
        <ele>609.59997558594</ele>
        <time>2017-05-21T08:29:54.000Z</time>
      </trkpt>
      <trkpt lat="44.08841" lon="5.97615">
        <ele>609.20001220703</ele>
        <time>2017-05-21T08:29:58.000Z</time>
      </trkpt>
      <trkpt lat="44.08824" lon="5.97628">
        <ele>608.59997558594</ele>
        <time>2017-05-21T08:30:04.000Z</time>
      </trkpt>
      <trkpt lat="44.0882" lon="5.9763">
        <ele>608.40002441406</ele>
        <time>2017-05-21T08:30:05.000Z</time>
      </trkpt>
      <trkpt lat="44.08801" lon="5.97638">
        <ele>608.79998779297</ele>
        <time>2017-05-21T08:30:11.000Z</time>
      </trkpt>
      <trkpt lat="44.08785" lon="5.97657">
        <ele>608.20001220703</ele>
        <time>2017-05-21T08:30:17.000Z</time>
      </trkpt>
      <trkpt lat="44.08776" lon="5.97683">
        <ele>606.59997558594</ele>
        <time>2017-05-21T08:30:21.000Z</time>
      </trkpt>
      <trkpt lat="44.08777" lon="5.97712">
        <ele>604</ele>
        <time>2017-05-21T08:30:26.000Z</time>
      </trkpt>
      <trkpt lat="44.08781" lon="5.97719">
        <ele>603.20001220703</ele>
        <time>2017-05-21T08:30:28.000Z</time>
      </trkpt>
      <trkpt lat="44.08789" lon="5.97742">
        <ele>599.59997558594</ele>
        <time>2017-05-21T08:30:34.000Z</time>
      </trkpt>
      <trkpt lat="44.08789" lon="5.97746">
        <ele>599</ele>
        <time>2017-05-21T08:30:35.000Z</time>
      </trkpt>
      <trkpt lat="44.08779" lon="5.97756">
        <ele>597</ele>
        <time>2017-05-21T08:30:39.000Z</time>
      </trkpt>
      <trkpt lat="44.08772" lon="5.9776">
        <ele>595.79998779297</ele>
        <time>2017-05-21T08:30:41.000Z</time>
      </trkpt>
      <trkpt lat="44.08752" lon="5.97771">
        <ele>592</ele>
        <time>2017-05-21T08:30:45.000Z</time>
      </trkpt>
      <trkpt lat="44.08734" lon="5.97778">
        <ele>589.59997558594</ele>
        <time>2017-05-21T08:30:48.000Z</time>
      </trkpt>
      <trkpt lat="44.08717" lon="5.97785">
        <ele>587.79998779297</ele>
        <time>2017-05-21T08:30:51.000Z</time>
      </trkpt>
      <trkpt lat="44.08699" lon="5.97793">
        <ele>585.59997558594</ele>
        <time>2017-05-21T08:30:58.000Z</time>
      </trkpt>
      <trkpt lat="44.08682" lon="5.97803">
        <ele>583</ele>
        <time>2017-05-21T08:31:03.000Z</time>
      </trkpt>
      <trkpt lat="44.08664" lon="5.97809">
        <ele>582.20001220703</ele>
        <time>2017-05-21T08:31:08.000Z</time>
      </trkpt>
      <trkpt lat="44.08644" lon="5.97804">
        <ele>582</ele>
        <time>2017-05-21T08:31:13.000Z</time>
      </trkpt>
      <trkpt lat="44.08641" lon="5.97799">
        <ele>582.40002441406</ele>
        <time>2017-05-21T08:31:15.000Z</time>
      </trkpt>
      <trkpt lat="44.08641" lon="5.97773">
        <ele>583.79998779297</ele>
        <time>2017-05-21T08:31:27.000Z</time>
      </trkpt>
      <trkpt lat="44.0863" lon="5.97755">
        <ele>584.59997558594</ele>
        <time>2017-05-21T08:31:34.000Z</time>
      </trkpt>
      <trkpt lat="44.08613" lon="5.9775">
        <ele>584.59997558594</ele>
        <time>2017-05-21T08:31:41.000Z</time>
      </trkpt>
      <trkpt lat="44.08594" lon="5.97758">
        <ele>582.40002441406</ele>
        <time>2017-05-21T08:31:46.000Z</time>
      </trkpt>
      <trkpt lat="44.08588" lon="5.97751">
        <ele>582</ele>
        <time>2017-05-21T08:31:49.000Z</time>
      </trkpt>
      <trkpt lat="44.08576" lon="5.97732">
        <ele>582</ele>
        <time>2017-05-21T08:31:55.000Z</time>
      </trkpt>
      <trkpt lat="44.08566" lon="5.97712">
        <ele>582.59997558594</ele>
        <time>2017-05-21T08:32:02.000Z</time>
      </trkpt>
      <trkpt lat="44.08556" lon="5.9769">
        <ele>584</ele>
        <time>2017-05-21T08:32:09.000Z</time>
      </trkpt>
      <trkpt lat="44.08544" lon="5.97669">
        <ele>585</ele>
        <time>2017-05-21T08:32:15.000Z</time>
      </trkpt>
      <trkpt lat="44.08533" lon="5.97649">
        <ele>585.79998779297</ele>
        <time>2017-05-21T08:32:21.000Z</time>
      </trkpt>
      <trkpt lat="44.08523" lon="5.97628">
        <ele>586.59997558594</ele>
        <time>2017-05-21T08:32:27.000Z</time>
      </trkpt>
      <trkpt lat="44.08517" lon="5.97604">
        <ele>587.59997558594</ele>
        <time>2017-05-21T08:32:34.000Z</time>
      </trkpt>
      <trkpt lat="44.08514" lon="5.97576">
        <ele>589.59997558594</ele>
        <time>2017-05-21T08:32:41.000Z</time>
      </trkpt>
      <trkpt lat="44.08516" lon="5.97551">
        <ele>592</ele>
        <time>2017-05-21T08:32:47.000Z</time>
      </trkpt>
      <trkpt lat="44.08522" lon="5.97522">
        <ele>591</ele>
        <time>2017-05-21T08:32:52.000Z</time>
      </trkpt>
      <trkpt lat="44.08532" lon="5.97493">
        <ele>590.59997558594</ele>
        <time>2017-05-21T08:32:56.000Z</time>
      </trkpt>
      <trkpt lat="44.08539" lon="5.97468">
        <ele>591.20001220703</ele>
        <time>2017-05-21T08:33:00.000Z</time>
      </trkpt>
      <trkpt lat="44.08548" lon="5.97441">
        <ele>591.59997558594</ele>
        <time>2017-05-21T08:33:05.000Z</time>
      </trkpt>
      <trkpt lat="44.08558" lon="5.97416">
        <ele>592.20001220703</ele>
        <time>2017-05-21T08:33:09.000Z</time>
      </trkpt>
      <trkpt lat="44.08564" lon="5.97402">
        <ele>591.40002441406</ele>
        <time>2017-05-21T08:33:11.000Z</time>
      </trkpt>
      <trkpt lat="44.08572" lon="5.97382">
        <ele>591.79998779297</ele>
        <time>2017-05-21T08:33:14.000Z</time>
      </trkpt>
      <trkpt lat="44.08572" lon="5.97353">
        <ele>591</ele>
        <time>2017-05-21T08:33:18.000Z</time>
      </trkpt>
      <trkpt lat="44.08571" lon="5.97346">
        <ele>590.59997558594</ele>
        <time>2017-05-21T08:33:19.000Z</time>
      </trkpt>
      <trkpt lat="44.08565" lon="5.97319">
        <ele>588.79998779297</ele>
        <time>2017-05-21T08:33:23.000Z</time>
      </trkpt>
      <trkpt lat="44.0856" lon="5.97299">
        <ele>587</ele>
        <time>2017-05-21T08:33:27.000Z</time>
      </trkpt>
      <trkpt lat="44.08546" lon="5.97305">
        <ele>583.59997558594</ele>
        <time>2017-05-21T08:33:31.000Z</time>
      </trkpt>
      <trkpt lat="44.0854" lon="5.97307">
        <ele>582.20001220703</ele>
        <time>2017-05-21T08:33:32.000Z</time>
      </trkpt>
      <trkpt lat="44.08521" lon="5.97312">
        <ele>578.20001220703</ele>
        <time>2017-05-21T08:33:35.000Z</time>
      </trkpt>
      <trkpt lat="44.08503" lon="5.97306">
        <ele>575.40002441406</ele>
        <time>2017-05-21T08:33:39.000Z</time>
      </trkpt>
      <trkpt lat="44.08483" lon="5.97298">
        <ele>572.40002441406</ele>
        <time>2017-05-21T08:33:44.000Z</time>
      </trkpt>
      <trkpt lat="44.08478" lon="5.97296">
        <ele>571.40002441406</ele>
        <time>2017-05-21T08:33:46.000Z</time>
      </trkpt>
      <trkpt lat="44.08463" lon="5.9728">
        <ele>569.20001220703</ele>
        <time>2017-05-21T08:33:51.000Z</time>
      </trkpt>
      <trkpt lat="44.08451" lon="5.97259">
        <ele>567.20001220703</ele>
        <time>2017-05-21T08:33:55.000Z</time>
      </trkpt>
      <trkpt lat="44.08436" lon="5.97244">
        <ele>564.79998779297</ele>
        <time>2017-05-21T08:33:58.000Z</time>
      </trkpt>
      <trkpt lat="44.0843" lon="5.97239">
        <ele>563.79998779297</ele>
        <time>2017-05-21T08:33:59.000Z</time>
      </trkpt>
      <trkpt lat="44.0841" lon="5.97239">
        <ele>560.40002441406</ele>
        <time>2017-05-21T08:34:03.000Z</time>
      </trkpt>
      <trkpt lat="44.08397" lon="5.97241">
        <ele>558.20001220703</ele>
        <time>2017-05-21T08:34:05.000Z</time>
      </trkpt>
      <trkpt lat="44.08383" lon="5.97242">
        <ele>556</ele>
        <time>2017-05-21T08:34:07.000Z</time>
      </trkpt>
      <trkpt lat="44.08372" lon="5.9724">
        <ele>554.20001220703</ele>
        <time>2017-05-21T08:34:09.000Z</time>
      </trkpt>
      <trkpt lat="44.08351" lon="5.9725">
        <ele>551.20001220703</ele>
        <time>2017-05-21T08:34:13.000Z</time>
      </trkpt>
      <trkpt lat="44.08333" lon="5.97246">
        <ele>547.20001220703</ele>
        <time>2017-05-21T08:34:16.000Z</time>
      </trkpt>
      <trkpt lat="44.08323" lon="5.97272">
        <ele>546.20001220703</ele>
        <time>2017-05-21T08:34:21.000Z</time>
      </trkpt>
      <trkpt lat="44.08322" lon="5.97279">
        <ele>547.59997558594</ele>
        <time>2017-05-21T08:34:22.000Z</time>
      </trkpt>
      <trkpt lat="44.08321" lon="5.97286">
        <ele>548.40002441406</ele>
        <time>2017-05-21T08:34:23.000Z</time>
      </trkpt>
      <trkpt lat="44.08307" lon="5.97303">
        <ele>550.40002441406</ele>
        <time>2017-05-21T08:34:27.000Z</time>
      </trkpt>
      <trkpt lat="44.08297" lon="5.97306">
        <ele>550</ele>
        <time>2017-05-21T08:34:32.000Z</time>
      </trkpt>
      <trkpt lat="44.08284" lon="5.97323">
        <ele>553.20001220703</ele>
        <time>2017-05-21T08:34:45.000Z</time>
      </trkpt>
      <trkpt lat="44.08275" lon="5.97333">
        <ele>555.59997558594</ele>
        <time>2017-05-21T08:34:50.000Z</time>
      </trkpt>
      <trkpt lat="44.08256" lon="5.97337">
        <ele>555.79998779297</ele>
        <time>2017-05-21T08:35:00.000Z</time>
      </trkpt>
      <trkpt lat="44.08234" lon="5.9733">
        <ele>553.40002441406</ele>
        <time>2017-05-21T08:35:07.000Z</time>
      </trkpt>
      <trkpt lat="44.08229" lon="5.97329">
        <ele>553</ele>
        <time>2017-05-21T08:35:08.000Z</time>
      </trkpt>
      <trkpt lat="44.08208" lon="5.97336">
        <ele>553.79998779297</ele>
        <time>2017-05-21T08:35:13.000Z</time>
      </trkpt>
      <trkpt lat="44.08187" lon="5.97337">
        <ele>552.79998779297</ele>
        <time>2017-05-21T08:35:18.000Z</time>
      </trkpt>
      <trkpt lat="44.08166" lon="5.9734">
        <ele>550.59997558594</ele>
        <time>2017-05-21T08:35:22.000Z</time>
      </trkpt>
      <trkpt lat="44.08156" lon="5.97342">
        <ele>549.59997558594</ele>
        <time>2017-05-21T08:35:24.000Z</time>
      </trkpt>
      <trkpt lat="44.08138" lon="5.97346">
        <ele>547.79998779297</ele>
        <time>2017-05-21T08:35:30.000Z</time>
      </trkpt>
      <trkpt lat="44.08135" lon="5.97347">
        <ele>547.59997558594</ele>
        <time>2017-05-21T08:35:31.000Z</time>
      </trkpt>
      <trkpt lat="44.08113" lon="5.9735">
        <ele>544.59997558594</ele>
        <time>2017-05-21T08:35:37.000Z</time>
      </trkpt>
      <trkpt lat="44.08095" lon="5.97359">
        <ele>544.79998779297</ele>
        <time>2017-05-21T08:35:42.000Z</time>
      </trkpt>
      <trkpt lat="44.0808" lon="5.9737">
        <ele>545.20001220703</ele>
        <time>2017-05-21T08:35:49.000Z</time>
      </trkpt>
      <trkpt lat="44.08071" lon="5.9738">
        <ele>545.59997558594</ele>
        <time>2017-05-21T08:35:54.000Z</time>
      </trkpt>
      <trkpt lat="44.08066" lon="5.97388">
        <ele>546.59997558594</ele>
        <time>2017-05-21T08:35:57.000Z</time>
      </trkpt>
      <trkpt lat="44.0805" lon="5.974">
        <ele>545.40002441406</ele>
        <time>2017-05-21T08:36:04.000Z</time>
      </trkpt>
      <trkpt lat="44.08031" lon="5.97402">
        <ele>543.20001220703</ele>
        <time>2017-05-21T08:36:09.000Z</time>
      </trkpt>
      <trkpt lat="44.08027" lon="5.97402">
        <ele>543</ele>
        <time>2017-05-21T08:36:10.000Z</time>
      </trkpt>
      <trkpt lat="44.08018" lon="5.97401">
        <ele>541.79998779297</ele>
        <time>2017-05-21T08:36:15.000Z</time>
      </trkpt>
      <trkpt lat="44.08003" lon="5.97417">
        <ele>543.40002441406</ele>
        <time>2017-05-21T08:36:24.000Z</time>
      </trkpt>
      <trkpt lat="44.07998" lon="5.97422">
        <ele>543.79998779297</ele>
        <time>2017-05-21T08:36:26.000Z</time>
      </trkpt>
      <trkpt lat="44.07984" lon="5.97423">
        <ele>542.59997558594</ele>
        <time>2017-05-21T08:36:30.000Z</time>
      </trkpt>
      <trkpt lat="44.07964" lon="5.97423">
        <ele>540.20001220703</ele>
        <time>2017-05-21T08:36:35.000Z</time>
      </trkpt>
      <trkpt lat="44.07954" lon="5.97424">
        <ele>538.79998779297</ele>
        <time>2017-05-21T08:36:37.000Z</time>
      </trkpt>
      <trkpt lat="44.07936" lon="5.9743">
        <ele>536.59997558594</ele>
        <time>2017-05-21T08:36:40.000Z</time>
      </trkpt>
      <trkpt lat="44.07916" lon="5.97432">
        <ele>532.79998779297</ele>
        <time>2017-05-21T08:36:43.000Z</time>
      </trkpt>
      <trkpt lat="44.07895" lon="5.97437">
        <ele>529.20001220703</ele>
        <time>2017-05-21T08:36:48.000Z</time>
      </trkpt>
      <trkpt lat="44.0788" lon="5.97445">
        <ele>527</ele>
        <time>2017-05-21T08:36:51.000Z</time>
      </trkpt>
      <trkpt lat="44.07865" lon="5.97452">
        <ele>524.40002441406</ele>
        <time>2017-05-21T08:36:55.000Z</time>
      </trkpt>
      <trkpt lat="44.07854" lon="5.97457">
        <ele>522.79998779297</ele>
        <time>2017-05-21T08:36:58.000Z</time>
      </trkpt>
      <trkpt lat="44.07836" lon="5.97463">
        <ele>519.79998779297</ele>
        <time>2017-05-21T08:37:02.000Z</time>
      </trkpt>
      <trkpt lat="44.07822" lon="5.97484">
        <ele>517.79998779297</ele>
        <time>2017-05-21T08:37:05.000Z</time>
      </trkpt>
      <trkpt lat="44.07814" lon="5.97512">
        <ele>515.79998779297</ele>
        <time>2017-05-21T08:37:09.000Z</time>
      </trkpt>
      <trkpt lat="44.07807" lon="5.97538">
        <ele>518.59997558594</ele>
        <time>2017-05-21T08:37:15.000Z</time>
      </trkpt>
      <trkpt lat="44.078" lon="5.97564">
        <ele>520.59997558594</ele>
        <time>2017-05-21T08:37:21.000Z</time>
      </trkpt>
      <trkpt lat="44.07801" lon="5.97578">
        <ele>520.20001220703</ele>
        <time>2017-05-21T08:37:25.000Z</time>
      </trkpt>
      <trkpt lat="44.07819" lon="5.97589">
        <ele>521.40002441406</ele>
        <time>2017-05-21T08:37:34.000Z</time>
      </trkpt>
      <trkpt lat="44.07837" lon="5.97597">
        <ele>522.40002441406</ele>
        <time>2017-05-21T08:37:43.000Z</time>
      </trkpt>
      <trkpt lat="44.07857" lon="5.97605">
        <ele>523.79998779297</ele>
        <time>2017-05-21T08:37:51.000Z</time>
      </trkpt>
      <trkpt lat="44.07875" lon="5.97616">
        <ele>524.59997558594</ele>
        <time>2017-05-21T08:37:59.000Z</time>
      </trkpt>
      <trkpt lat="44.07895" lon="5.9762">
        <ele>526</ele>
        <time>2017-05-21T08:38:07.000Z</time>
      </trkpt>
      <trkpt lat="44.07914" lon="5.97622">
        <ele>527.40002441406</ele>
        <time>2017-05-21T08:38:14.000Z</time>
      </trkpt>
      <trkpt lat="44.07933" lon="5.97624">
        <ele>529.20001220703</ele>
        <time>2017-05-21T08:38:24.000Z</time>
      </trkpt>
      <trkpt lat="44.07953" lon="5.97627">
        <ele>531</ele>
        <time>2017-05-21T08:38:34.000Z</time>
      </trkpt>
      <trkpt lat="44.07972" lon="5.97629">
        <ele>532</ele>
        <time>2017-05-21T08:38:43.000Z</time>
      </trkpt>
      <trkpt lat="44.07992" lon="5.97633">
        <ele>532.79998779297</ele>
        <time>2017-05-21T08:38:51.000Z</time>
      </trkpt>
      <trkpt lat="44.08011" lon="5.97628">
        <ele>534.20001220703</ele>
        <time>2017-05-21T08:38:59.000Z</time>
      </trkpt>
      <trkpt lat="44.08026" lon="5.97614">
        <ele>539</ele>
        <time>2017-05-21T08:39:10.000Z</time>
      </trkpt>
      <trkpt lat="44.08044" lon="5.97602">
        <ele>542.20001220703</ele>
        <time>2017-05-21T08:39:23.000Z</time>
      </trkpt>
      <trkpt lat="44.08059" lon="5.97588">
        <ele>545.79998779297</ele>
        <time>2017-05-21T08:39:37.000Z</time>
      </trkpt>
      <trkpt lat="44.08078" lon="5.97581">
        <ele>547.20001220703</ele>
        <time>2017-05-21T08:39:55.000Z</time>
      </trkpt>
      <trkpt lat="44.08095" lon="5.9757">
        <ele>549</ele>
        <time>2017-05-21T08:40:11.000Z</time>
      </trkpt>
      <trkpt lat="44.08113" lon="5.97562">
        <ele>550.79998779297</ele>
        <time>2017-05-21T08:40:25.000Z</time>
      </trkpt>
      <trkpt lat="44.08131" lon="5.97564">
        <ele>552.20001220703</ele>
        <time>2017-05-21T08:40:37.000Z</time>
      </trkpt>
      <trkpt lat="44.08143" lon="5.97586">
        <ele>551</ele>
        <time>2017-05-21T08:40:44.000Z</time>
      </trkpt>
      <trkpt lat="44.08144" lon="5.97593">
        <ele>550.59997558594</ele>
        <time>2017-05-21T08:40:45.000Z</time>
      </trkpt>
      <trkpt lat="44.0815" lon="5.97613">
        <ele>548.59997558594</ele>
        <time>2017-05-21T08:40:49.000Z</time>
      </trkpt>
      <trkpt lat="44.08161" lon="5.97623">
        <ele>548.59997558594</ele>
        <time>2017-05-21T08:40:54.000Z</time>
      </trkpt>
      <trkpt lat="44.08181" lon="5.97632">
        <ele>549.79998779297</ele>
        <time>2017-05-21T08:41:02.000Z</time>
      </trkpt>
      <trkpt lat="44.08201" lon="5.97637">
        <ele>550.79998779297</ele>
        <time>2017-05-21T08:41:10.000Z</time>
      </trkpt>
      <trkpt lat="44.08217" lon="5.97647">
        <ele>551.20001220703</ele>
        <time>2017-05-21T08:41:15.000Z</time>
      </trkpt>
      <trkpt lat="44.08225" lon="5.97646">
        <ele>551.59997558594</ele>
        <time>2017-05-21T08:41:17.000Z</time>
      </trkpt>
      <trkpt lat="44.08244" lon="5.97647">
        <ele>552.40002441406</ele>
        <time>2017-05-21T08:41:24.000Z</time>
      </trkpt>
      <trkpt lat="44.08263" lon="5.97644">
        <ele>553.40002441406</ele>
        <time>2017-05-21T08:41:31.000Z</time>
      </trkpt>
      <trkpt lat="44.08282" lon="5.97641">
        <ele>554.40002441406</ele>
        <time>2017-05-21T08:41:37.000Z</time>
      </trkpt>
      <trkpt lat="44.08301" lon="5.97638">
        <ele>556.40002441406</ele>
        <time>2017-05-21T08:41:43.000Z</time>
      </trkpt>
      <trkpt lat="44.08317" lon="5.97656">
        <ele>557.20001220703</ele>
        <time>2017-05-21T08:41:50.000Z</time>
      </trkpt>
      <trkpt lat="44.08321" lon="5.97665">
        <ele>557.40002441406</ele>
        <time>2017-05-21T08:41:52.000Z</time>
      </trkpt>
      <trkpt lat="44.0832" lon="5.97677">
        <ele>557.20001220703</ele>
        <time>2017-05-21T08:41:56.000Z</time>
      </trkpt>
      <trkpt lat="44.08326" lon="5.97685">
        <ele>557.59997558594</ele>
        <time>2017-05-21T08:42:00.000Z</time>
      </trkpt>
      <trkpt lat="44.08327" lon="5.97686">
        <ele>557.59997558594</ele>
        <time>2017-05-21T08:42:01.000Z</time>
      </trkpt>
      <trkpt lat="44.08333" lon="5.97705">
        <ele>558.20001220703</ele>
        <time>2017-05-21T08:42:08.000Z</time>
      </trkpt>
      <trkpt lat="44.08348" lon="5.9772">
        <ele>559.20001220703</ele>
        <time>2017-05-21T08:42:16.000Z</time>
      </trkpt>
      <trkpt lat="44.08362" lon="5.97737">
        <ele>560.79998779297</ele>
        <time>2017-05-21T08:42:23.000Z</time>
      </trkpt>
      <trkpt lat="44.08378" lon="5.97736">
        <ele>562.20001220703</ele>
        <time>2017-05-21T08:42:31.000Z</time>
      </trkpt>
      <trkpt lat="44.0838" lon="5.97737">
        <ele>562.59997558594</ele>
        <time>2017-05-21T08:42:32.000Z</time>
      </trkpt>
      <trkpt lat="44.084" lon="5.97736">
        <ele>564.59997558594</ele>
        <time>2017-05-21T08:42:43.000Z</time>
      </trkpt>
      <trkpt lat="44.08419" lon="5.97737">
        <ele>566.59997558594</ele>
        <time>2017-05-21T08:42:52.000Z</time>
      </trkpt>
      <trkpt lat="44.08438" lon="5.97738">
        <ele>568.79998779297</ele>
        <time>2017-05-21T08:43:02.000Z</time>
      </trkpt>
      <trkpt lat="44.08457" lon="5.97739">
        <ele>570.20001220703</ele>
        <time>2017-05-21T08:43:10.000Z</time>
      </trkpt>
      <trkpt lat="44.08475" lon="5.97743">
        <ele>571.79998779297</ele>
        <time>2017-05-21T08:43:22.000Z</time>
      </trkpt>
      <trkpt lat="44.08494" lon="5.97744">
        <ele>573.59997558594</ele>
        <time>2017-05-21T08:43:32.000Z</time>
      </trkpt>
      <trkpt lat="44.08512" lon="5.97746">
        <ele>575.40002441406</ele>
        <time>2017-05-21T08:43:44.000Z</time>
      </trkpt>
      <trkpt lat="44.08531" lon="5.97755">
        <ele>576.79998779297</ele>
        <time>2017-05-21T08:43:55.000Z</time>
      </trkpt>
      <trkpt lat="44.08549" lon="5.97761">
        <ele>578</ele>
        <time>2017-05-21T08:44:05.000Z</time>
      </trkpt>
      <trkpt lat="44.08566" lon="5.97777">
        <ele>578.79998779297</ele>
        <time>2017-05-21T08:44:13.000Z</time>
      </trkpt>
      <trkpt lat="44.0858" lon="5.97794">
        <ele>579.40002441406</ele>
        <time>2017-05-21T08:44:18.000Z</time>
      </trkpt>
      <trkpt lat="44.08595" lon="5.97813">
        <ele>580.20001220703</ele>
        <time>2017-05-21T08:44:24.000Z</time>
      </trkpt>
      <trkpt lat="44.08606" lon="5.97834">
        <ele>581</ele>
        <time>2017-05-21T08:44:33.000Z</time>
      </trkpt>
      <trkpt lat="44.0862" lon="5.97847">
        <ele>581.20001220703</ele>
        <time>2017-05-21T08:44:52.000Z</time>
      </trkpt>
      <trkpt lat="44.08622" lon="5.97857">
        <ele>581.20001220703</ele>
        <time>2017-05-21T08:46:58.000Z</time>
      </trkpt>
      <trkpt lat="44.08622" lon="5.97858">
        <ele>581.20001220703</ele>
        <time>2017-05-21T08:50:35.000Z</time>
      </trkpt>
      <trkpt lat="44.08621" lon="5.97853">
        <ele>581.20001220703</ele>
        <time>2017-05-21T08:54:36.000Z</time>
      </trkpt>
      <trkpt lat="44.08622" lon="5.97852">
        <ele>581</ele>
        <time>2017-05-21T08:58:46.000Z</time>
      </trkpt>
      <trkpt lat="44.08619" lon="5.97857">
        <ele>581.20001220703</ele>
        <time>2017-05-21T09:02:11.000Z</time>
      </trkpt>
      <trkpt lat="44.08614" lon="5.97852">
        <ele>581.40002441406</ele>
        <time>2017-05-21T09:05:21.000Z</time>
      </trkpt>
      <trkpt lat="44.08618" lon="5.97851">
        <ele>581.20001220703</ele>
        <time>2017-05-21T09:08:09.000Z</time>
      </trkpt>
      <trkpt lat="44.08623" lon="5.97855">
        <ele>581</ele>
        <time>2017-05-21T09:10:59.000Z</time>
      </trkpt>
      <trkpt lat="44.0862" lon="5.97851">
        <ele>581.20001220703</ele>
        <time>2017-05-21T09:14:21.000Z</time>
      </trkpt>
      <trkpt lat="44.08619" lon="5.97856">
        <ele>581.20001220703</ele>
        <time>2017-05-21T09:16:16.000Z</time>
      </trkpt>
      <trkpt lat="44.08624" lon="5.97859">
        <ele>581</ele>
        <time>2017-05-21T09:18:50.000Z</time>
      </trkpt>
      <trkpt lat="44.08625" lon="5.97855">
        <ele>581</ele>
        <time>2017-05-21T09:21:28.000Z</time>
      </trkpt>
      <trkpt lat="44.08632" lon="5.97862">
        <ele>580.79998779297</ele>
        <time>2017-05-21T09:22:15.000Z</time>
      </trkpt>
      <trkpt lat="44.08644" lon="5.97887">
        <ele>580.79998779297</ele>
        <time>2017-05-21T09:22:21.000Z</time>
      </trkpt>
      <trkpt lat="44.08653" lon="5.97903">
        <ele>580.59997558594</ele>
        <time>2017-05-21T09:22:25.000Z</time>
      </trkpt>
      <trkpt lat="44.08634" lon="5.97902">
        <ele>581.20001220703</ele>
        <time>2017-05-21T09:22:32.000Z</time>
      </trkpt>
      <trkpt lat="44.08627" lon="5.97901">
        <ele>581.59997558594</ele>
        <time>2017-05-21T09:22:34.000Z</time>
      </trkpt>
      <trkpt lat="44.08606" lon="5.97898">
        <ele>582.20001220703</ele>
        <time>2017-05-21T09:22:39.000Z</time>
      </trkpt>
      <trkpt lat="44.08594" lon="5.97899">
        <ele>582</ele>
        <time>2017-05-21T09:22:42.000Z</time>
      </trkpt>
      <trkpt lat="44.08582" lon="5.97912">
        <ele>582.59997558594</ele>
        <time>2017-05-21T09:22:46.000Z</time>
      </trkpt>
      <trkpt lat="44.08574" lon="5.97919">
        <ele>582.79998779297</ele>
        <time>2017-05-21T09:22:51.000Z</time>
      </trkpt>
      <trkpt lat="44.08559" lon="5.97924">
        <ele>582.79998779297</ele>
        <time>2017-05-21T09:23:35.000Z</time>
      </trkpt>
      <trkpt lat="44.08543" lon="5.97931">
        <ele>583.79998779297</ele>
        <time>2017-05-21T09:23:40.000Z</time>
      </trkpt>
      <trkpt lat="44.08524" lon="5.97928">
        <ele>584</ele>
        <time>2017-05-21T09:23:45.000Z</time>
      </trkpt>
      <trkpt lat="44.08519" lon="5.97928">
        <ele>583.79998779297</ele>
        <time>2017-05-21T09:23:46.000Z</time>
      </trkpt>
      <trkpt lat="44.08497" lon="5.97927">
        <ele>583.40002441406</ele>
        <time>2017-05-21T09:23:50.000Z</time>
      </trkpt>
      <trkpt lat="44.08478" lon="5.97928">
        <ele>583.40002441406</ele>
        <time>2017-05-21T09:23:55.000Z</time>
      </trkpt>
      <trkpt lat="44.08475" lon="5.97929">
        <ele>583.79998779297</ele>
        <time>2017-05-21T09:23:56.000Z</time>
      </trkpt>
      <trkpt lat="44.08457" lon="5.97931">
        <ele>584.40002441406</ele>
        <time>2017-05-21T09:24:01.000Z</time>
      </trkpt>
      <trkpt lat="44.08436" lon="5.97932">
        <ele>584.79998779297</ele>
        <time>2017-05-21T09:24:13.000Z</time>
      </trkpt>
      <trkpt lat="44.08417" lon="5.9794">
        <ele>586</ele>
        <time>2017-05-21T09:24:19.000Z</time>
      </trkpt>
      <trkpt lat="44.084" lon="5.97936">
        <ele>585.40002441406</ele>
        <time>2017-05-21T09:24:24.000Z</time>
      </trkpt>
      <trkpt lat="44.08382" lon="5.97933">
        <ele>585.40002441406</ele>
        <time>2017-05-21T09:24:31.000Z</time>
      </trkpt>
      <trkpt lat="44.08366" lon="5.9793">
        <ele>585.40002441406</ele>
        <time>2017-05-21T09:24:35.000Z</time>
      </trkpt>
      <trkpt lat="44.08347" lon="5.97933">
        <ele>585.79998779297</ele>
        <time>2017-05-21T09:24:40.000Z</time>
      </trkpt>
      <trkpt lat="44.08341" lon="5.97939">
        <ele>586.59997558594</ele>
        <time>2017-05-21T09:24:43.000Z</time>
      </trkpt>
      <trkpt lat="44.08344" lon="5.97946">
        <ele>587.79998779297</ele>
        <time>2017-05-21T09:24:47.000Z</time>
      </trkpt>
      <trkpt lat="44.08347" lon="5.97956">
        <ele>589.59997558594</ele>
        <time>2017-05-21T09:24:51.000Z</time>
      </trkpt>
      <trkpt lat="44.08359" lon="5.97964">
        <ele>591.20001220703</ele>
        <time>2017-05-21T09:24:59.000Z</time>
      </trkpt>
      <trkpt lat="44.08377" lon="5.97974">
        <ele>592.59997558594</ele>
        <time>2017-05-21T09:25:09.000Z</time>
      </trkpt>
      <trkpt lat="44.08381" lon="5.97982">
        <ele>593.79998779297</ele>
        <time>2017-05-21T09:25:12.000Z</time>
      </trkpt>
      <trkpt lat="44.08374" lon="5.97986">
        <ele>594.59997558594</ele>
        <time>2017-05-21T09:25:17.000Z</time>
      </trkpt>
      <trkpt lat="44.08356" lon="5.9799">
        <ele>594.79998779297</ele>
        <time>2017-05-21T09:25:28.000Z</time>
      </trkpt>
      <trkpt lat="44.08352" lon="5.97993">
        <ele>595.20001220703</ele>
        <time>2017-05-21T09:25:31.000Z</time>
      </trkpt>
      <trkpt lat="44.08344" lon="5.97998">
        <ele>595.59997558594</ele>
        <time>2017-05-21T09:25:38.000Z</time>
      </trkpt>
      <trkpt lat="44.08327" lon="5.98006">
        <ele>596</ele>
        <time>2017-05-21T09:25:50.000Z</time>
      </trkpt>
      <trkpt lat="44.08308" lon="5.98007">
        <ele>595.20001220703</ele>
        <time>2017-05-21T09:26:20.000Z</time>
      </trkpt>
      <trkpt lat="44.0829" lon="5.98011">
        <ele>593.79998779297</ele>
        <time>2017-05-21T09:27:15.000Z</time>
      </trkpt>
      <trkpt lat="44.08274" lon="5.98024">
        <ele>593.59997558594</ele>
        <time>2017-05-21T09:27:27.000Z</time>
      </trkpt>
      <trkpt lat="44.08257" lon="5.98034">
        <ele>593.59997558594</ele>
        <time>2017-05-21T09:27:37.000Z</time>
      </trkpt>
      <trkpt lat="44.08239" lon="5.98042">
        <ele>591.79998779297</ele>
        <time>2017-05-21T09:27:48.000Z</time>
      </trkpt>
      <trkpt lat="44.08254" lon="5.98057">
        <ele>593.40002441406</ele>
        <time>2017-05-21T09:28:04.000Z</time>
      </trkpt>
      <trkpt lat="44.08273" lon="5.98065">
        <ele>594.40002441406</ele>
        <time>2017-05-21T09:28:17.000Z</time>
      </trkpt>
      <trkpt lat="44.08292" lon="5.98066">
        <ele>596.20001220703</ele>
        <time>2017-05-21T09:28:27.000Z</time>
      </trkpt>
      <trkpt lat="44.08311" lon="5.9807">
        <ele>597.40002441406</ele>
        <time>2017-05-21T09:28:39.000Z</time>
      </trkpt>
      <trkpt lat="44.08328" lon="5.98076">
        <ele>598</ele>
        <time>2017-05-21T09:28:48.000Z</time>
      </trkpt>
      <trkpt lat="44.08333" lon="5.98078">
        <ele>598</ele>
        <time>2017-05-21T09:28:50.000Z</time>
      </trkpt>
      <trkpt lat="44.08352" lon="5.98084">
        <ele>598.79998779297</ele>
        <time>2017-05-21T09:28:57.000Z</time>
      </trkpt>
      <trkpt lat="44.08355" lon="5.98086">
        <ele>599</ele>
        <time>2017-05-21T09:28:58.000Z</time>
      </trkpt>
      <trkpt lat="44.08373" lon="5.98083">
        <ele>601</ele>
        <time>2017-05-21T09:29:03.000Z</time>
      </trkpt>
      <trkpt lat="44.08391" lon="5.98086">
        <ele>601.59997558594</ele>
        <time>2017-05-21T09:29:08.000Z</time>
      </trkpt>
      <trkpt lat="44.0841" lon="5.98092">
        <ele>601.40002441406</ele>
        <time>2017-05-21T09:29:14.000Z</time>
      </trkpt>
      <trkpt lat="44.0843" lon="5.98095">
        <ele>601.20001220703</ele>
        <time>2017-05-21T09:29:22.000Z</time>
      </trkpt>
      <trkpt lat="44.08448" lon="5.98101">
        <ele>601.20001220703</ele>
        <time>2017-05-21T09:29:30.000Z</time>
      </trkpt>
      <trkpt lat="44.08468" lon="5.98104">
        <ele>602.40002441406</ele>
        <time>2017-05-21T09:29:39.000Z</time>
      </trkpt>
      <trkpt lat="44.08485" lon="5.98111">
        <ele>603</ele>
        <time>2017-05-21T09:29:49.000Z</time>
      </trkpt>
      <trkpt lat="44.08504" lon="5.98116">
        <ele>603.59997558594</ele>
        <time>2017-05-21T09:29:57.000Z</time>
      </trkpt>
      <trkpt lat="44.08517" lon="5.98116">
        <ele>604</ele>
        <time>2017-05-21T09:30:01.000Z</time>
      </trkpt>
      <trkpt lat="44.08535" lon="5.98127">
        <ele>603.79998779297</ele>
        <time>2017-05-21T09:30:07.000Z</time>
      </trkpt>
      <trkpt lat="44.08543" lon="5.98134">
        <ele>603.59997558594</ele>
        <time>2017-05-21T09:30:10.000Z</time>
      </trkpt>
      <trkpt lat="44.08562" lon="5.98139">
        <ele>603.59997558594</ele>
        <time>2017-05-21T09:30:17.000Z</time>
      </trkpt>
      <trkpt lat="44.08574" lon="5.98155">
        <ele>600.79998779297</ele>
        <time>2017-05-21T09:30:21.000Z</time>
      </trkpt>
      <trkpt lat="44.08581" lon="5.98166">
        <ele>599</ele>
        <time>2017-05-21T09:30:23.000Z</time>
      </trkpt>
      <trkpt lat="44.08597" lon="5.98178">
        <ele>596.79998779297</ele>
        <time>2017-05-21T09:30:27.000Z</time>
      </trkpt>
      <trkpt lat="44.08601" lon="5.98179">
        <ele>596.59997558594</ele>
        <time>2017-05-21T09:30:28.000Z</time>
      </trkpt>
      <trkpt lat="44.08618" lon="5.9819">
        <ele>595</ele>
        <time>2017-05-21T09:30:32.000Z</time>
      </trkpt>
      <trkpt lat="44.08624" lon="5.98193">
        <ele>594.59997558594</ele>
        <time>2017-05-21T09:30:33.000Z</time>
      </trkpt>
      <trkpt lat="44.08644" lon="5.98202">
        <ele>593.59997558594</ele>
        <time>2017-05-21T09:30:37.000Z</time>
      </trkpt>
      <trkpt lat="44.08665" lon="5.98207">
        <ele>593.40002441406</ele>
        <time>2017-05-21T09:30:41.000Z</time>
      </trkpt>
      <trkpt lat="44.08682" lon="5.98217">
        <ele>592</ele>
        <time>2017-05-21T09:30:44.000Z</time>
      </trkpt>
      <trkpt lat="44.08693" lon="5.98223">
        <ele>591.20001220703</ele>
        <time>2017-05-21T09:30:46.000Z</time>
      </trkpt>
      <trkpt lat="44.08698" lon="5.98226">
        <ele>590.40002441406</ele>
        <time>2017-05-21T09:30:47.000Z</time>
      </trkpt>
      <trkpt lat="44.08714" lon="5.9824">
        <ele>586.59997558594</ele>
        <time>2017-05-21T09:30:51.000Z</time>
      </trkpt>
      <trkpt lat="44.08733" lon="5.98254">
        <ele>582.59997558594</ele>
        <time>2017-05-21T09:30:56.000Z</time>
      </trkpt>
      <trkpt lat="44.08735" lon="5.98255">
        <ele>582.40002441406</ele>
        <time>2017-05-21T09:30:57.000Z</time>
      </trkpt>
      <trkpt lat="44.08753" lon="5.98262">
        <ele>579.79998779297</ele>
        <time>2017-05-21T09:31:02.000Z</time>
      </trkpt>
      <trkpt lat="44.08756" lon="5.98266">
        <ele>578.79998779297</ele>
        <time>2017-05-21T09:31:03.000Z</time>
      </trkpt>
      <trkpt lat="44.0877" lon="5.98282">
        <ele>574.79998779297</ele>
        <time>2017-05-21T09:31:07.000Z</time>
      </trkpt>
      <trkpt lat="44.08786" lon="5.98297">
        <ele>570.59997558594</ele>
        <time>2017-05-21T09:31:11.000Z</time>
      </trkpt>
      <trkpt lat="44.08789" lon="5.98301">
        <ele>569.40002441406</ele>
        <time>2017-05-21T09:31:12.000Z</time>
      </trkpt>
      <trkpt lat="44.08804" lon="5.9832">
        <ele>563.79998779297</ele>
        <time>2017-05-21T09:31:18.000Z</time>
      </trkpt>
      <trkpt lat="44.08813" lon="5.98346">
        <ele>557.79998779297</ele>
        <time>2017-05-21T09:31:24.000Z</time>
      </trkpt>
      <trkpt lat="44.0882" lon="5.98368">
        <ele>552</ele>
        <time>2017-05-21T09:31:40.000Z</time>
      </trkpt>
      <trkpt lat="44.08815" lon="5.9839">
        <ele>547.20001220703</ele>
        <time>2017-05-21T09:31:46.000Z</time>
      </trkpt>
      <trkpt lat="44.08822" lon="5.98416">
        <ele>544.79998779297</ele>
        <time>2017-05-21T09:31:52.000Z</time>
      </trkpt>
      <trkpt lat="44.08833" lon="5.98423">
        <ele>543.40002441406</ele>
        <time>2017-05-21T09:31:57.000Z</time>
      </trkpt>
      <trkpt lat="44.08841" lon="5.98418">
        <ele>543</ele>
        <time>2017-05-21T09:31:59.000Z</time>
      </trkpt>
      <trkpt lat="44.0885" lon="5.98393">
        <ele>543.79998779297</ele>
        <time>2017-05-21T09:32:04.000Z</time>
      </trkpt>
      <trkpt lat="44.08867" lon="5.98382">
        <ele>545.20001220703</ele>
        <time>2017-05-21T09:32:09.000Z</time>
      </trkpt>
      <trkpt lat="44.08872" lon="5.9838">
        <ele>546</ele>
        <time>2017-05-21T09:32:10.000Z</time>
      </trkpt>
      <trkpt lat="44.08885" lon="5.9836">
        <ele>550.40002441406</ele>
        <time>2017-05-21T09:32:14.000Z</time>
      </trkpt>
      <trkpt lat="44.08898" lon="5.9837">
        <ele>549.40002441406</ele>
        <time>2017-05-21T09:32:21.000Z</time>
      </trkpt>
      <trkpt lat="44.089" lon="5.98398">
        <ele>546.59997558594</ele>
        <time>2017-05-21T09:32:28.000Z</time>
      </trkpt>
      <trkpt lat="44.08894" lon="5.98423">
        <ele>548.40002441406</ele>
        <time>2017-05-21T09:32:35.000Z</time>
      </trkpt>
      <trkpt lat="44.08894" lon="5.9845">
        <ele>547.20001220703</ele>
        <time>2017-05-21T09:32:42.000Z</time>
      </trkpt>
      <trkpt lat="44.08886" lon="5.98472">
        <ele>544.20001220703</ele>
        <time>2017-05-21T09:32:47.000Z</time>
      </trkpt>
      <trkpt lat="44.08873" lon="5.9849">
        <ele>543.20001220703</ele>
        <time>2017-05-21T09:32:52.000Z</time>
      </trkpt>
      <trkpt lat="44.08863" lon="5.98514">
        <ele>543.59997558594</ele>
        <time>2017-05-21T09:32:58.000Z</time>
      </trkpt>
      <trkpt lat="44.08851" lon="5.98537">
        <ele>545.20001220703</ele>
        <time>2017-05-21T09:33:04.000Z</time>
      </trkpt>
      <trkpt lat="44.08839" lon="5.98558">
        <ele>544.59997558594</ele>
        <time>2017-05-21T09:33:10.000Z</time>
      </trkpt>
      <trkpt lat="44.08826" lon="5.98577">
        <ele>543</ele>
        <time>2017-05-21T09:33:16.000Z</time>
      </trkpt>
      <trkpt lat="44.08817" lon="5.98601">
        <ele>542.40002441406</ele>
        <time>2017-05-21T09:33:22.000Z</time>
      </trkpt>
      <trkpt lat="44.08809" lon="5.98625">
        <ele>542.20001220703</ele>
        <time>2017-05-21T09:33:28.000Z</time>
      </trkpt>
      <trkpt lat="44.088" lon="5.98648">
        <ele>540.59997558594</ele>
        <time>2017-05-21T09:33:35.000Z</time>
      </trkpt>
      <trkpt lat="44.08804" lon="5.98675">
        <ele>538.20001220703</ele>
        <time>2017-05-21T09:33:42.000Z</time>
      </trkpt>
      <trkpt lat="44.08821" lon="5.98689">
        <ele>538.79998779297</ele>
        <time>2017-05-21T09:33:48.000Z</time>
      </trkpt>
      <trkpt lat="44.0884" lon="5.98703">
        <ele>539.79998779297</ele>
        <time>2017-05-21T09:33:54.000Z</time>
      </trkpt>
      <trkpt lat="44.0886" lon="5.98713">
        <ele>541.59997558594</ele>
        <time>2017-05-21T09:34:00.000Z</time>
      </trkpt>
      <trkpt lat="44.08877" lon="5.98723">
        <ele>542.79998779297</ele>
        <time>2017-05-21T09:34:05.000Z</time>
      </trkpt>
      <trkpt lat="44.08893" lon="5.98733">
        <ele>543.40002441406</ele>
        <time>2017-05-21T09:34:10.000Z</time>
      </trkpt>
      <trkpt lat="44.08912" lon="5.98747">
        <ele>543.79998779297</ele>
        <time>2017-05-21T09:34:16.000Z</time>
      </trkpt>
      <trkpt lat="44.08929" lon="5.98764">
        <ele>543.40002441406</ele>
        <time>2017-05-21T09:34:21.000Z</time>
      </trkpt>
      <trkpt lat="44.08944" lon="5.98781">
        <ele>542.59997558594</ele>
        <time>2017-05-21T09:34:25.000Z</time>
      </trkpt>
      <trkpt lat="44.08962" lon="5.98801">
        <ele>540.79998779297</ele>
        <time>2017-05-21T09:34:29.000Z</time>
      </trkpt>
      <trkpt lat="44.08977" lon="5.9882">
        <ele>539.20001220703</ele>
        <time>2017-05-21T09:34:32.000Z</time>
      </trkpt>
      <trkpt lat="44.08993" lon="5.98842">
        <ele>537.59997558594</ele>
        <time>2017-05-21T09:34:35.000Z</time>
      </trkpt>
      <trkpt lat="44.09012" lon="5.98867">
        <ele>536</ele>
        <time>2017-05-21T09:34:38.000Z</time>
      </trkpt>
      <trkpt lat="44.09027" lon="5.9888">
        <ele>535.59997558594</ele>
        <time>2017-05-21T09:34:40.000Z</time>
      </trkpt>
      <trkpt lat="44.09051" lon="5.98893">
        <ele>535</ele>
        <time>2017-05-21T09:34:43.000Z</time>
      </trkpt>
      <trkpt lat="44.09073" lon="5.98904">
        <ele>534.79998779297</ele>
        <time>2017-05-21T09:34:46.000Z</time>
      </trkpt>
      <trkpt lat="44.09095" lon="5.98913">
        <ele>535</ele>
        <time>2017-05-21T09:34:49.000Z</time>
      </trkpt>
      <trkpt lat="44.09117" lon="5.98924">
        <ele>534.79998779297</ele>
        <time>2017-05-21T09:34:52.000Z</time>
      </trkpt>
      <trkpt lat="44.09138" lon="5.98933">
        <ele>534.79998779297</ele>
        <time>2017-05-21T09:34:55.000Z</time>
      </trkpt>
      <trkpt lat="44.09158" lon="5.98938">
        <ele>535.40002441406</ele>
        <time>2017-05-21T09:34:58.000Z</time>
      </trkpt>
      <trkpt lat="44.09177" lon="5.98936">
        <ele>536.40002441406</ele>
        <time>2017-05-21T09:35:01.000Z</time>
      </trkpt>
      <trkpt lat="44.09182" lon="5.98934">
        <ele>537</ele>
        <time>2017-05-21T09:35:02.000Z</time>
      </trkpt>
      <trkpt lat="44.09203" lon="5.98921">
        <ele>539.20001220703</ele>
        <time>2017-05-21T09:35:06.000Z</time>
      </trkpt>
      <trkpt lat="44.09225" lon="5.98908">
        <ele>540.40002441406</ele>
        <time>2017-05-21T09:35:10.000Z</time>
      </trkpt>
      <trkpt lat="44.09243" lon="5.98905">
        <ele>540.20001220703</ele>
        <time>2017-05-21T09:35:13.000Z</time>
      </trkpt>
      <trkpt lat="44.09253" lon="5.98909">
        <ele>539.79998779297</ele>
        <time>2017-05-21T09:35:15.000Z</time>
      </trkpt>
      <trkpt lat="44.09259" lon="5.9891">
        <ele>539.59997558594</ele>
        <time>2017-05-21T09:35:16.000Z</time>
      </trkpt>
      <trkpt lat="44.09272" lon="5.98889">
        <ele>540.40002441406</ele>
        <time>2017-05-21T09:35:20.000Z</time>
      </trkpt>
      <trkpt lat="44.09275" lon="5.98875">
        <ele>542.40002441406</ele>
        <time>2017-05-21T09:35:22.000Z</time>
      </trkpt>
      <trkpt lat="44.0928" lon="5.98849">
        <ele>546.40002441406</ele>
        <time>2017-05-21T09:35:26.000Z</time>
      </trkpt>
      <trkpt lat="44.09284" lon="5.98821">
        <ele>550.79998779297</ele>
        <time>2017-05-21T09:35:31.000Z</time>
      </trkpt>
      <trkpt lat="44.09287" lon="5.98796">
        <ele>553.40002441406</ele>
        <time>2017-05-21T09:35:39.000Z</time>
      </trkpt>
      <trkpt lat="44.09296" lon="5.98773">
        <ele>556.20001220703</ele>
        <time>2017-05-21T09:35:51.000Z</time>
      </trkpt>
      <trkpt lat="44.09308" lon="5.98754">
        <ele>558.40002441406</ele>
        <time>2017-05-21T09:36:03.000Z</time>
      </trkpt>
      <trkpt lat="44.09319" lon="5.98733">
        <ele>558.59997558594</ele>
        <time>2017-05-21T09:36:17.000Z</time>
      </trkpt>
      <trkpt lat="44.09326" lon="5.9871">
        <ele>560.79998779297</ele>
        <time>2017-05-21T09:36:28.000Z</time>
      </trkpt>
      <trkpt lat="44.09332" lon="5.98687">
        <ele>563.20001220703</ele>
        <time>2017-05-21T09:36:37.000Z</time>
      </trkpt>
      <trkpt lat="44.0934" lon="5.98663">
        <ele>563.20001220703</ele>
        <time>2017-05-21T09:36:45.000Z</time>
      </trkpt>
      <trkpt lat="44.09351" lon="5.98642">
        <ele>562.59997558594</ele>
        <time>2017-05-21T09:36:56.000Z</time>
      </trkpt>
      <trkpt lat="44.09365" lon="5.9862">
        <ele>563.59997558594</ele>
        <time>2017-05-21T09:37:05.000Z</time>
      </trkpt>
      <trkpt lat="44.09376" lon="5.986">
        <ele>566.79998779297</ele>
        <time>2017-05-21T09:37:12.000Z</time>
      </trkpt>
      <trkpt lat="44.09387" lon="5.9858">
        <ele>569.40002441406</ele>
        <time>2017-05-21T09:37:21.000Z</time>
      </trkpt>
      <trkpt lat="44.09396" lon="5.98556">
        <ele>569.79998779297</ele>
        <time>2017-05-21T09:37:31.000Z</time>
      </trkpt>
      <trkpt lat="44.09407" lon="5.98534">
        <ele>573.40002441406</ele>
        <time>2017-05-21T09:37:42.000Z</time>
      </trkpt>
      <trkpt lat="44.09412" lon="5.98508">
        <ele>575.59997558594</ele>
        <time>2017-05-21T09:37:53.000Z</time>
      </trkpt>
      <trkpt lat="44.09415" lon="5.98484">
        <ele>576.20001220703</ele>
        <time>2017-05-21T09:38:04.000Z</time>
      </trkpt>
      <trkpt lat="44.09412" lon="5.98459">
        <ele>578.40002441406</ele>
        <time>2017-05-21T09:38:16.000Z</time>
      </trkpt>
      <trkpt lat="44.0941" lon="5.98433">
        <ele>580.59997558594</ele>
        <time>2017-05-21T09:38:26.000Z</time>
      </trkpt>
      <trkpt lat="44.09408" lon="5.98407">
        <ele>582.59997558594</ele>
        <time>2017-05-21T09:38:34.000Z</time>
      </trkpt>
      <trkpt lat="44.09408" lon="5.98402">
        <ele>582.79998779297</ele>
        <time>2017-05-21T09:38:36.000Z</time>
      </trkpt>
      <trkpt lat="44.0942" lon="5.98395">
        <ele>581.40002441406</ele>
        <time>2017-05-21T09:38:45.000Z</time>
      </trkpt>
      <trkpt lat="44.09432" lon="5.9841">
        <ele>578.59997558594</ele>
        <time>2017-05-21T09:38:53.000Z</time>
      </trkpt>
      <trkpt lat="44.09436" lon="5.98435">
        <ele>576.40002441406</ele>
        <time>2017-05-21T09:39:02.000Z</time>
      </trkpt>
      <trkpt lat="44.09441" lon="5.98453">
        <ele>574.59997558594</ele>
        <time>2017-05-21T09:39:09.000Z</time>
      </trkpt>
      <trkpt lat="44.09446" lon="5.98462">
        <ele>574</ele>
        <time>2017-05-21T09:39:13.000Z</time>
      </trkpt>
      <trkpt lat="44.09451" lon="5.98465">
        <ele>574.20001220703</ele>
        <time>2017-05-21T09:39:16.000Z</time>
      </trkpt>
      <trkpt lat="44.09466" lon="5.98446">
        <ele>576.40002441406</ele>
        <time>2017-05-21T09:39:28.000Z</time>
      </trkpt>
      <trkpt lat="44.09475" lon="5.98422">
        <ele>578.40002441406</ele>
        <time>2017-05-21T09:39:39.000Z</time>
      </trkpt>
      <trkpt lat="44.09488" lon="5.98407">
        <ele>578.59997558594</ele>
        <time>2017-05-21T09:39:57.000Z</time>
      </trkpt>
      <trkpt lat="44.09497" lon="5.98392">
        <ele>578.59997558594</ele>
        <time>2017-05-21T09:40:05.000Z</time>
      </trkpt>
      <trkpt lat="44.09505" lon="5.9839">
        <ele>578.79998779297</ele>
        <time>2017-05-21T09:40:11.000Z</time>
      </trkpt>
      <trkpt lat="44.0952" lon="5.98371">
        <ele>579.40002441406</ele>
        <time>2017-05-21T09:40:23.000Z</time>
      </trkpt>
      <trkpt lat="44.09537" lon="5.98356">
        <ele>580</ele>
        <time>2017-05-21T09:40:33.000Z</time>
      </trkpt>
      <trkpt lat="44.09558" lon="5.98351">
        <ele>580.40002441406</ele>
        <time>2017-05-21T09:40:42.000Z</time>
      </trkpt>
      <trkpt lat="44.09577" lon="5.9835">
        <ele>581</ele>
        <time>2017-05-21T09:40:49.000Z</time>
      </trkpt>
      <trkpt lat="44.09597" lon="5.9835">
        <ele>581.79998779297</ele>
        <time>2017-05-21T09:40:56.000Z</time>
      </trkpt>
      <trkpt lat="44.09609" lon="5.98348">
        <ele>582.59997558594</ele>
        <time>2017-05-21T09:41:00.000Z</time>
      </trkpt>
      <trkpt lat="44.09628" lon="5.98341">
        <ele>582.40002441406</ele>
        <time>2017-05-21T09:41:07.000Z</time>
      </trkpt>
      <trkpt lat="44.09637" lon="5.98349">
        <ele>581.59997558594</ele>
        <time>2017-05-21T09:41:12.000Z</time>
      </trkpt>
      <trkpt lat="44.09651" lon="5.98351">
        <ele>581</ele>
        <time>2017-05-21T09:41:17.000Z</time>
      </trkpt>
      <trkpt lat="44.09669" lon="5.98348">
        <ele>581.40002441406</ele>
        <time>2017-05-21T09:41:25.000Z</time>
      </trkpt>
      <trkpt lat="44.09677" lon="5.98346">
        <ele>581.79998779297</ele>
        <time>2017-05-21T09:41:29.000Z</time>
      </trkpt>
      <trkpt lat="44.09695" lon="5.98336">
        <ele>583.20001220703</ele>
        <time>2017-05-21T09:41:42.000Z</time>
      </trkpt>
      <trkpt lat="44.09711" lon="5.98324">
        <ele>585.59997558594</ele>
        <time>2017-05-21T09:41:56.000Z</time>
      </trkpt>
      <trkpt lat="44.09726" lon="5.9831">
        <ele>587</ele>
        <time>2017-05-21T09:42:09.000Z</time>
      </trkpt>
      <trkpt lat="44.09743" lon="5.98316">
        <ele>587.20001220703</ele>
        <time>2017-05-21T09:42:17.000Z</time>
      </trkpt>
      <trkpt lat="44.09754" lon="5.9831">
        <ele>588</ele>
        <time>2017-05-21T09:42:21.000Z</time>
      </trkpt>
      <trkpt lat="44.09756" lon="5.98307">
        <ele>588.40002441406</ele>
        <time>2017-05-21T09:42:23.000Z</time>
      </trkpt>
      <trkpt lat="44.09767" lon="5.9831">
        <ele>588.59997558594</ele>
        <time>2017-05-21T09:42:28.000Z</time>
      </trkpt>
      <trkpt lat="44.0977" lon="5.98311">
        <ele>588.59997558594</ele>
        <time>2017-05-21T09:42:29.000Z</time>
      </trkpt>
      <trkpt lat="44.09779" lon="5.98306">
        <ele>589.20001220703</ele>
        <time>2017-05-21T09:42:33.000Z</time>
      </trkpt>
      <trkpt lat="44.09796" lon="5.9831">
        <ele>589.59997558594</ele>
        <time>2017-05-21T09:42:40.000Z</time>
      </trkpt>
      <trkpt lat="44.09803" lon="5.98317">
        <ele>589.40002441406</ele>
        <time>2017-05-21T09:42:44.000Z</time>
      </trkpt>
      <trkpt lat="44.09819" lon="5.98315">
        <ele>590.20001220703</ele>
        <time>2017-05-21T09:42:50.000Z</time>
      </trkpt>
      <trkpt lat="44.09829" lon="5.98316">
        <ele>590.40002441406</ele>
        <time>2017-05-21T09:42:53.000Z</time>
      </trkpt>
      <trkpt lat="44.09843" lon="5.98335">
        <ele>589.79998779297</ele>
        <time>2017-05-21T09:43:02.000Z</time>
      </trkpt>
      <trkpt lat="44.09862" lon="5.98337">
        <ele>590.40002441406</ele>
        <time>2017-05-21T09:43:10.000Z</time>
      </trkpt>
      <trkpt lat="44.0988" lon="5.98331">
        <ele>591.59997558594</ele>
        <time>2017-05-21T09:43:18.000Z</time>
      </trkpt>
      <trkpt lat="44.09898" lon="5.98326">
        <ele>593</ele>
        <time>2017-05-21T09:43:27.000Z</time>
      </trkpt>
      <trkpt lat="44.09918" lon="5.98321">
        <ele>594.59997558594</ele>
        <time>2017-05-21T09:43:34.000Z</time>
      </trkpt>
      <trkpt lat="44.09937" lon="5.98316">
        <ele>596</ele>
        <time>2017-05-21T09:43:43.000Z</time>
      </trkpt>
      <trkpt lat="44.09955" lon="5.98309">
        <ele>597.59997558594</ele>
        <time>2017-05-21T09:43:52.000Z</time>
      </trkpt>
      <trkpt lat="44.09973" lon="5.98299">
        <ele>599</ele>
        <time>2017-05-21T09:44:02.000Z</time>
      </trkpt>
      <trkpt lat="44.09991" lon="5.98296">
        <ele>600.20001220703</ele>
        <time>2017-05-21T09:44:10.000Z</time>
      </trkpt>
      <trkpt lat="44.1001" lon="5.98291">
        <ele>601.40002441406</ele>
        <time>2017-05-21T09:44:19.000Z</time>
      </trkpt>
      <trkpt lat="44.1003" lon="5.98292">
        <ele>602.59997558594</ele>
        <time>2017-05-21T09:44:28.000Z</time>
      </trkpt>
      <trkpt lat="44.10048" lon="5.98297">
        <ele>602.79998779297</ele>
        <time>2017-05-21T09:44:34.000Z</time>
      </trkpt>
      <trkpt lat="44.10068" lon="5.98296">
        <ele>603.59997558594</ele>
        <time>2017-05-21T09:44:42.000Z</time>
      </trkpt>
      <trkpt lat="44.10088" lon="5.9829">
        <ele>604.79998779297</ele>
        <time>2017-05-21T09:44:51.000Z</time>
      </trkpt>
      <trkpt lat="44.10106" lon="5.98281">
        <ele>606</ele>
        <time>2017-05-21T09:44:59.000Z</time>
      </trkpt>
      <trkpt lat="44.10121" lon="5.98263">
        <ele>608.40002441406</ele>
        <time>2017-05-21T09:45:06.000Z</time>
      </trkpt>
      <trkpt lat="44.10132" lon="5.98239">
        <ele>610.79998779297</ele>
        <time>2017-05-21T09:45:16.000Z</time>
      </trkpt>
      <trkpt lat="44.10142" lon="5.98219">
        <ele>612.20001220703</ele>
        <time>2017-05-21T09:45:26.000Z</time>
      </trkpt>
      <trkpt lat="44.10154" lon="5.982">
        <ele>615.20001220703</ele>
        <time>2017-05-21T09:45:37.000Z</time>
      </trkpt>
      <trkpt lat="44.10171" lon="5.9819">
        <ele>616.59997558594</ele>
        <time>2017-05-21T09:45:48.000Z</time>
      </trkpt>
      <trkpt lat="44.10188" lon="5.98181">
        <ele>617.59997558594</ele>
        <time>2017-05-21T09:45:57.000Z</time>
      </trkpt>
      <trkpt lat="44.10204" lon="5.98163">
        <ele>620.20001220703</ele>
        <time>2017-05-21T09:46:03.000Z</time>
      </trkpt>
      <trkpt lat="44.10217" lon="5.98178">
        <ele>620.20001220703</ele>
        <time>2017-05-21T09:46:07.000Z</time>
      </trkpt>
      <trkpt lat="44.10218" lon="5.98188">
        <ele>619.59997558594</ele>
        <time>2017-05-21T09:46:09.000Z</time>
      </trkpt>
      <trkpt lat="44.10225" lon="5.98215">
        <ele>617.79998779297</ele>
        <time>2017-05-21T09:46:15.000Z</time>
      </trkpt>
      <trkpt lat="44.10236" lon="5.98234">
        <ele>618</ele>
        <time>2017-05-21T09:46:20.000Z</time>
      </trkpt>
      <trkpt lat="44.10249" lon="5.98258">
        <ele>619.20001220703</ele>
        <time>2017-05-21T09:46:26.000Z</time>
      </trkpt>
      <trkpt lat="44.10262" lon="5.98275">
        <ele>620.59997558594</ele>
        <time>2017-05-21T09:46:34.000Z</time>
      </trkpt>
      <trkpt lat="44.10267" lon="5.98289">
        <ele>621</ele>
        <time>2017-05-21T09:46:38.000Z</time>
      </trkpt>
      <trkpt lat="44.10251" lon="5.98305">
        <ele>619.20001220703</ele>
        <time>2017-05-21T09:46:47.000Z</time>
      </trkpt>
      <trkpt lat="44.10237" lon="5.98305">
        <ele>617.79998779297</ele>
        <time>2017-05-21T09:46:52.000Z</time>
      </trkpt>
      <trkpt lat="44.10218" lon="5.98312">
        <ele>615.79998779297</ele>
        <time>2017-05-21T09:46:58.000Z</time>
      </trkpt>
      <trkpt lat="44.10197" lon="5.98316">
        <ele>613.79998779297</ele>
        <time>2017-05-21T09:47:04.000Z</time>
      </trkpt>
      <trkpt lat="44.10194" lon="5.98317">
        <ele>613.40002441406</ele>
        <time>2017-05-21T09:47:05.000Z</time>
      </trkpt>
      <trkpt lat="44.10178" lon="5.98326">
        <ele>612</ele>
        <time>2017-05-21T09:47:10.000Z</time>
      </trkpt>
      <trkpt lat="44.10183" lon="5.98352">
        <ele>613.40002441406</ele>
        <time>2017-05-21T09:47:21.000Z</time>
      </trkpt>
      <trkpt lat="44.10182" lon="5.98362">
        <ele>613.79998779297</ele>
        <time>2017-05-21T09:47:25.000Z</time>
      </trkpt>
      <trkpt lat="44.10178" lon="5.98387">
        <ele>613.59997558594</ele>
        <time>2017-05-21T09:47:30.000Z</time>
      </trkpt>
      <trkpt lat="44.10175" lon="5.98408">
        <ele>614.79998779297</ele>
        <time>2017-05-21T09:47:35.000Z</time>
      </trkpt>
      <trkpt lat="44.10159" lon="5.98414">
        <ele>612.79998779297</ele>
        <time>2017-05-21T09:47:40.000Z</time>
      </trkpt>
      <trkpt lat="44.10144" lon="5.98413">
        <ele>610.40002441406</ele>
        <time>2017-05-21T09:47:43.000Z</time>
      </trkpt>
      <trkpt lat="44.10129" lon="5.98426">
        <ele>609.20001220703</ele>
        <time>2017-05-21T09:47:48.000Z</time>
      </trkpt>
      <trkpt lat="44.10109" lon="5.98424">
        <ele>606</ele>
        <time>2017-05-21T09:47:53.000Z</time>
      </trkpt>
      <trkpt lat="44.10094" lon="5.98428">
        <ele>605</ele>
        <time>2017-05-21T09:47:57.000Z</time>
      </trkpt>
      <trkpt lat="44.10088" lon="5.98429">
        <ele>604.40002441406</ele>
        <time>2017-05-21T09:47:58.000Z</time>
      </trkpt>
      <trkpt lat="44.10067" lon="5.98424">
        <ele>602</ele>
        <time>2017-05-21T09:48:02.000Z</time>
      </trkpt>
      <trkpt lat="44.10047" lon="5.98433">
        <ele>600</ele>
        <time>2017-05-21T09:48:07.000Z</time>
      </trkpt>
      <trkpt lat="44.10026" lon="5.98443">
        <ele>598</ele>
        <time>2017-05-21T09:48:12.000Z</time>
      </trkpt>
      <trkpt lat="44.10022" lon="5.98446">
        <ele>598</ele>
        <time>2017-05-21T09:48:13.000Z</time>
      </trkpt>
      <trkpt lat="44.10004" lon="5.98458">
        <ele>597.59997558594</ele>
        <time>2017-05-21T09:48:21.000Z</time>
      </trkpt>
      <trkpt lat="44.09985" lon="5.98463">
        <ele>595.59997558594</ele>
        <time>2017-05-21T09:48:27.000Z</time>
      </trkpt>
      <trkpt lat="44.09984" lon="5.98461">
        <ele>595.40002441406</ele>
        <time>2017-05-21T09:48:28.000Z</time>
      </trkpt>
      <trkpt lat="44.09978" lon="5.98457">
        <ele>594.59997558594</ele>
        <time>2017-05-21T09:48:33.000Z</time>
      </trkpt>
      <trkpt lat="44.09959" lon="5.98468">
        <ele>592.79998779297</ele>
        <time>2017-05-21T09:48:42.000Z</time>
      </trkpt>
      <trkpt lat="44.09957" lon="5.98469">
        <ele>592.40002441406</ele>
        <time>2017-05-21T09:48:43.000Z</time>
      </trkpt>
      <trkpt lat="44.09947" lon="5.98472">
        <ele>591.40002441406</ele>
        <time>2017-05-21T09:48:47.000Z</time>
      </trkpt>
      <trkpt lat="44.09941" lon="5.98474">
        <ele>590.79998779297</ele>
        <time>2017-05-21T09:48:49.000Z</time>
      </trkpt>
      <trkpt lat="44.0992" lon="5.98473">
        <ele>589.20001220703</ele>
        <time>2017-05-21T09:48:58.000Z</time>
      </trkpt>
      <trkpt lat="44.09902" lon="5.98466">
        <ele>587.79998779297</ele>
        <time>2017-05-21T09:49:03.000Z</time>
      </trkpt>
      <trkpt lat="44.09885" lon="5.98483">
        <ele>587</ele>
        <time>2017-05-21T09:49:10.000Z</time>
      </trkpt>
      <trkpt lat="44.09874" lon="5.98505">
        <ele>588.79998779297</ele>
        <time>2017-05-21T09:49:16.000Z</time>
      </trkpt>
      <trkpt lat="44.09872" lon="5.98513">
        <ele>589.59997558594</ele>
        <time>2017-05-21T09:49:19.000Z</time>
      </trkpt>
      <trkpt lat="44.09852" lon="5.98516">
        <ele>588.59997558594</ele>
        <time>2017-05-21T09:49:28.000Z</time>
      </trkpt>
      <trkpt lat="44.09833" lon="5.98522">
        <ele>588.40002441406</ele>
        <time>2017-05-21T09:49:34.000Z</time>
      </trkpt>
      <trkpt lat="44.09814" lon="5.98528">
        <ele>587.40002441406</ele>
        <time>2017-05-21T09:49:42.000Z</time>
      </trkpt>
      <trkpt lat="44.09793" lon="5.98527">
        <ele>585.40002441406</ele>
        <time>2017-05-21T09:49:50.000Z</time>
      </trkpt>
      <trkpt lat="44.09773" lon="5.98528">
        <ele>583.40002441406</ele>
        <time>2017-05-21T09:49:55.000Z</time>
      </trkpt>
      <trkpt lat="44.09755" lon="5.98534">
        <ele>582.20001220703</ele>
        <time>2017-05-21T09:50:03.000Z</time>
      </trkpt>
      <trkpt lat="44.09739" lon="5.9855">
        <ele>581</ele>
        <time>2017-05-21T09:50:08.000Z</time>
      </trkpt>
      <trkpt lat="44.0972" lon="5.9856">
        <ele>579.59997558594</ele>
        <time>2017-05-21T09:50:13.000Z</time>
      </trkpt>
      <trkpt lat="44.09707" lon="5.98564">
        <ele>578.59997558594</ele>
        <time>2017-05-21T09:50:17.000Z</time>
      </trkpt>
      <trkpt lat="44.09693" lon="5.9855">
        <ele>575.59997558594</ele>
        <time>2017-05-21T09:50:26.000Z</time>
      </trkpt>
      <trkpt lat="44.09673" lon="5.98548">
        <ele>575.20001220703</ele>
        <time>2017-05-21T09:50:39.000Z</time>
      </trkpt>
      <trkpt lat="44.09651" lon="5.9855">
        <ele>573.40002441406</ele>
        <time>2017-05-21T09:50:46.000Z</time>
      </trkpt>
      <trkpt lat="44.09631" lon="5.98554">
        <ele>571.79998779297</ele>
        <time>2017-05-21T09:50:51.000Z</time>
      </trkpt>
      <trkpt lat="44.09627" lon="5.98557">
        <ele>571.20001220703</ele>
        <time>2017-05-21T09:50:52.000Z</time>
      </trkpt>
      <trkpt lat="44.09613" lon="5.98582">
        <ele>572</ele>
        <time>2017-05-21T09:50:56.000Z</time>
      </trkpt>
      <trkpt lat="44.09599" lon="5.98603">
        <ele>573.59997558594</ele>
        <time>2017-05-21T09:51:00.000Z</time>
      </trkpt>
      <trkpt lat="44.09585" lon="5.98623">
        <ele>574.59997558594</ele>
        <time>2017-05-21T09:51:04.000Z</time>
      </trkpt>
      <trkpt lat="44.09581" lon="5.98628">
        <ele>574</ele>
        <time>2017-05-21T09:51:05.000Z</time>
      </trkpt>
      <trkpt lat="44.09565" lon="5.98643">
        <ele>571.40002441406</ele>
        <time>2017-05-21T09:51:09.000Z</time>
      </trkpt>
      <trkpt lat="44.09547" lon="5.98659">
        <ele>572.40002441406</ele>
        <time>2017-05-21T09:51:13.000Z</time>
      </trkpt>
      <trkpt lat="44.09534" lon="5.98675">
        <ele>568.40002441406</ele>
        <time>2017-05-21T09:51:16.000Z</time>
      </trkpt>
      <trkpt lat="44.09526" lon="5.98698">
        <ele>565.40002441406</ele>
        <time>2017-05-21T09:51:19.000Z</time>
      </trkpt>
      <trkpt lat="44.09517" lon="5.98723">
        <ele>564</ele>
        <time>2017-05-21T09:51:22.000Z</time>
      </trkpt>
      <trkpt lat="44.09507" lon="5.9875">
        <ele>565</ele>
        <time>2017-05-21T09:51:25.000Z</time>
      </trkpt>
      <trkpt lat="44.09497" lon="5.98778">
        <ele>566</ele>
        <time>2017-05-21T09:51:28.000Z</time>
      </trkpt>
      <trkpt lat="44.09489" lon="5.98795">
        <ele>562.59997558594</ele>
        <time>2017-05-21T09:51:30.000Z</time>
      </trkpt>
      <trkpt lat="44.09473" lon="5.98815">
        <ele>558.59997558594</ele>
        <time>2017-05-21T09:51:33.000Z</time>
      </trkpt>
      <trkpt lat="44.09459" lon="5.9883">
        <ele>556.20001220703</ele>
        <time>2017-05-21T09:51:36.000Z</time>
      </trkpt>
      <trkpt lat="44.09444" lon="5.98848">
        <ele>554.59997558594</ele>
        <time>2017-05-21T09:51:40.000Z</time>
      </trkpt>
      <trkpt lat="44.09439" lon="5.9886">
        <ele>554.59997558594</ele>
        <time>2017-05-21T09:51:45.000Z</time>
      </trkpt>
      <trkpt lat="44.09452" lon="5.98877">
        <ele>556</ele>
        <time>2017-05-21T09:52:01.000Z</time>
      </trkpt>
      <trkpt lat="44.09464" lon="5.98897">
        <ele>557.40002441406</ele>
        <time>2017-05-21T09:52:12.000Z</time>
      </trkpt>
      <trkpt lat="44.09477" lon="5.98919">
        <ele>557.79998779297</ele>
        <time>2017-05-21T09:52:20.000Z</time>
      </trkpt>
      <trkpt lat="44.09496" lon="5.9893">
        <ele>559.59997558594</ele>
        <time>2017-05-21T09:52:25.000Z</time>
      </trkpt>
      <trkpt lat="44.09515" lon="5.98937">
        <ele>561.79998779297</ele>
        <time>2017-05-21T09:52:34.000Z</time>
      </trkpt>
      <trkpt lat="44.09534" lon="5.9894">
        <ele>563.40002441406</ele>
        <time>2017-05-21T09:52:44.000Z</time>
      </trkpt>
      <trkpt lat="44.09554" lon="5.98943">
        <ele>564</ele>
        <time>2017-05-21T09:52:53.000Z</time>
      </trkpt>
      <trkpt lat="44.0957" lon="5.98947">
        <ele>564.20001220703</ele>
        <time>2017-05-21T09:53:01.000Z</time>
      </trkpt>
      <trkpt lat="44.09571" lon="5.98957">
        <ele>563.59997558594</ele>
        <time>2017-05-21T09:53:05.000Z</time>
      </trkpt>
      <trkpt lat="44.09571" lon="5.98973">
        <ele>562.59997558594</ele>
        <time>2017-05-21T09:53:08.000Z</time>
      </trkpt>
      <trkpt lat="44.09562" lon="5.98995">
        <ele>559.20001220703</ele>
        <time>2017-05-21T09:53:12.000Z</time>
      </trkpt>
      <trkpt lat="44.0956" lon="5.9902">
        <ele>556.59997558594</ele>
        <time>2017-05-21T09:53:17.000Z</time>
      </trkpt>
      <trkpt lat="44.09561" lon="5.99029">
        <ele>556.20001220703</ele>
        <time>2017-05-21T09:53:19.000Z</time>
      </trkpt>
      <trkpt lat="44.09561" lon="5.99047">
        <ele>555.40002441406</ele>
        <time>2017-05-21T09:53:22.000Z</time>
      </trkpt>
      <trkpt lat="44.09549" lon="5.99069">
        <ele>555</ele>
        <time>2017-05-21T09:53:28.000Z</time>
      </trkpt>
      <trkpt lat="44.09547" lon="5.99071">
        <ele>555</ele>
        <time>2017-05-21T09:53:29.000Z</time>
      </trkpt>
      <trkpt lat="44.09529" lon="5.99087">
        <ele>554.40002441406</ele>
        <time>2017-05-21T09:53:38.000Z</time>
      </trkpt>
      <trkpt lat="44.09515" lon="5.99106">
        <ele>551.79998779297</ele>
        <time>2017-05-21T09:53:48.000Z</time>
      </trkpt>
      <trkpt lat="44.09501" lon="5.99125">
        <ele>549.40002441406</ele>
        <time>2017-05-21T09:53:55.000Z</time>
      </trkpt>
      <trkpt lat="44.09485" lon="5.99137">
        <ele>548.79998779297</ele>
        <time>2017-05-21T09:53:59.000Z</time>
      </trkpt>
      <trkpt lat="44.09472" lon="5.9915">
        <ele>547.20001220703</ele>
        <time>2017-05-21T09:54:02.000Z</time>
      </trkpt>
      <trkpt lat="44.09462" lon="5.99159">
        <ele>545.79998779297</ele>
        <time>2017-05-21T09:54:04.000Z</time>
      </trkpt>
      <trkpt lat="44.09454" lon="5.99167">
        <ele>544.59997558594</ele>
        <time>2017-05-21T09:54:06.000Z</time>
      </trkpt>
      <trkpt lat="44.09435" lon="5.99168">
        <ele>543.59997558594</ele>
        <time>2017-05-21T09:54:10.000Z</time>
      </trkpt>
      <trkpt lat="44.09413" lon="5.99167">
        <ele>541.20001220703</ele>
        <time>2017-05-21T09:54:14.000Z</time>
      </trkpt>
      <trkpt lat="44.09401" lon="5.99165">
        <ele>540</ele>
        <time>2017-05-21T09:54:16.000Z</time>
      </trkpt>
      <trkpt lat="44.09386" lon="5.99161">
        <ele>539</ele>
        <time>2017-05-21T09:54:18.000Z</time>
      </trkpt>
      <trkpt lat="44.09363" lon="5.9915">
        <ele>538.40002441406</ele>
        <time>2017-05-21T09:54:21.000Z</time>
      </trkpt>
      <trkpt lat="44.09342" lon="5.9914">
        <ele>537.59997558594</ele>
        <time>2017-05-21T09:54:24.000Z</time>
      </trkpt>
      <trkpt lat="44.09322" lon="5.99129">
        <ele>536.20001220703</ele>
        <time>2017-05-21T09:54:27.000Z</time>
      </trkpt>
      <trkpt lat="44.09307" lon="5.99112">
        <ele>535.20001220703</ele>
        <time>2017-05-21T09:54:31.000Z</time>
      </trkpt>
      <trkpt lat="44.09287" lon="5.99096">
        <ele>533.79998779297</ele>
        <time>2017-05-21T09:54:35.000Z</time>
      </trkpt>
      <trkpt lat="44.09283" lon="5.99089">
        <ele>533.40002441406</ele>
        <time>2017-05-21T09:54:36.000Z</time>
      </trkpt>
      <trkpt lat="44.09275" lon="5.99065">
        <ele>533</ele>
        <time>2017-05-21T09:54:39.000Z</time>
      </trkpt>
      <trkpt lat="44.09263" lon="5.99054">
        <ele>532.59997558594</ele>
        <time>2017-05-21T09:54:46.000Z</time>
      </trkpt>
      <trkpt lat="44.09261" lon="5.99067">
        <ele>532.40002441406</ele>
        <time>2017-05-21T09:54:50.000Z</time>
      </trkpt>
      <trkpt lat="44.09261" lon="5.99092">
        <ele>532.40002441406</ele>
        <time>2017-05-21T09:54:55.000Z</time>
      </trkpt>
      <trkpt lat="44.09261" lon="5.99123">
        <ele>532.40002441406</ele>
        <time>2017-05-21T09:55:00.000Z</time>
      </trkpt>
      <trkpt lat="44.0926" lon="5.9915">
        <ele>533.20001220703</ele>
        <time>2017-05-21T09:55:04.000Z</time>
      </trkpt>
      <trkpt lat="44.0926" lon="5.9918">
        <ele>534.20001220703</ele>
        <time>2017-05-21T09:55:08.000Z</time>
      </trkpt>
      <trkpt lat="44.0926" lon="5.99212">
        <ele>535.40002441406</ele>
        <time>2017-05-21T09:55:12.000Z</time>
      </trkpt>
      <trkpt lat="44.09261" lon="5.99243">
        <ele>537.40002441406</ele>
        <time>2017-05-21T09:55:16.000Z</time>
      </trkpt>
      <trkpt lat="44.09264" lon="5.99272">
        <ele>539.59997558594</ele>
        <time>2017-05-21T09:55:20.000Z</time>
      </trkpt>
      <trkpt lat="44.09253" lon="5.99283">
        <ele>540.40002441406</ele>
        <time>2017-05-21T09:55:24.000Z</time>
      </trkpt>
      <trkpt lat="44.09248" lon="5.99286">
        <ele>541</ele>
        <time>2017-05-21T09:55:26.000Z</time>
      </trkpt>
      <trkpt lat="44.0923" lon="5.99292">
        <ele>542</ele>
        <time>2017-05-21T09:55:34.000Z</time>
      </trkpt>
      <trkpt lat="44.09212" lon="5.99278">
        <ele>541.40002441406</ele>
        <time>2017-05-21T09:55:41.000Z</time>
      </trkpt>
      <trkpt lat="44.09196" lon="5.99264">
        <ele>540.59997558594</ele>
        <time>2017-05-21T09:55:46.000Z</time>
      </trkpt>
      <trkpt lat="44.0918" lon="5.99253">
        <ele>539.59997558594</ele>
        <time>2017-05-21T09:55:50.000Z</time>
      </trkpt>
      <trkpt lat="44.09167" lon="5.99245">
        <ele>539</ele>
        <time>2017-05-21T09:55:53.000Z</time>
      </trkpt>
      <trkpt lat="44.09147" lon="5.99238">
        <ele>538.20001220703</ele>
        <time>2017-05-21T09:55:57.000Z</time>
      </trkpt>
      <trkpt lat="44.09131" lon="5.99234">
        <ele>537.79998779297</ele>
        <time>2017-05-21T09:56:00.000Z</time>
      </trkpt>
      <trkpt lat="44.09108" lon="5.99233">
        <ele>538</ele>
        <time>2017-05-21T09:56:04.000Z</time>
      </trkpt>
      <trkpt lat="44.0909" lon="5.99232">
        <ele>537.20001220703</ele>
        <time>2017-05-21T09:56:07.000Z</time>
      </trkpt>
      <trkpt lat="44.09071" lon="5.9923">
        <ele>536.40002441406</ele>
        <time>2017-05-21T09:56:10.000Z</time>
      </trkpt>
      <trkpt lat="44.09052" lon="5.99232">
        <ele>536</ele>
        <time>2017-05-21T09:56:13.000Z</time>
      </trkpt>
      <trkpt lat="44.09033" lon="5.99235">
        <ele>535.59997558594</ele>
        <time>2017-05-21T09:56:16.000Z</time>
      </trkpt>
      <trkpt lat="44.09012" lon="5.99238">
        <ele>535</ele>
        <time>2017-05-21T09:56:19.000Z</time>
      </trkpt>
      <trkpt lat="44.08989" lon="5.99244">
        <ele>534.40002441406</ele>
        <time>2017-05-21T09:56:22.000Z</time>
      </trkpt>
      <trkpt lat="44.08976" lon="5.99247">
        <ele>533.79998779297</ele>
        <time>2017-05-21T09:56:24.000Z</time>
      </trkpt>
      <trkpt lat="44.08956" lon="5.99247">
        <ele>532.79998779297</ele>
        <time>2017-05-21T09:56:27.000Z</time>
      </trkpt>
      <trkpt lat="44.08949" lon="5.99247">
        <ele>532.59997558594</ele>
        <time>2017-05-21T09:56:28.000Z</time>
      </trkpt>
      <trkpt lat="44.0893" lon="5.99248">
        <ele>532.20001220703</ele>
        <time>2017-05-21T09:56:31.000Z</time>
      </trkpt>
      <trkpt lat="44.08908" lon="5.9925">
        <ele>532</ele>
        <time>2017-05-21T09:56:34.000Z</time>
      </trkpt>
      <trkpt lat="44.08884" lon="5.99256">
        <ele>532.20001220703</ele>
        <time>2017-05-21T09:56:37.000Z</time>
      </trkpt>
      <trkpt lat="44.08862" lon="5.99262">
        <ele>532</ele>
        <time>2017-05-21T09:56:40.000Z</time>
      </trkpt>
      <trkpt lat="44.08843" lon="5.9927">
        <ele>533.40002441406</ele>
        <time>2017-05-21T09:56:43.000Z</time>
      </trkpt>
      <trkpt lat="44.08825" lon="5.99277">
        <ele>534.40002441406</ele>
        <time>2017-05-21T09:56:46.000Z</time>
      </trkpt>
      <trkpt lat="44.08803" lon="5.99284">
        <ele>533.79998779297</ele>
        <time>2017-05-21T09:56:50.000Z</time>
      </trkpt>
      <trkpt lat="44.08785" lon="5.9929">
        <ele>533.20001220703</ele>
        <time>2017-05-21T09:56:54.000Z</time>
      </trkpt>
      <trkpt lat="44.08776" lon="5.99292">
        <ele>533</ele>
        <time>2017-05-21T09:56:56.000Z</time>
      </trkpt>
      <trkpt lat="44.08762" lon="5.99273">
        <ele>531.40002441406</ele>
        <time>2017-05-21T09:57:01.000Z</time>
      </trkpt>
      <trkpt lat="44.08762" lon="5.99267">
        <ele>531</ele>
        <time>2017-05-21T09:57:02.000Z</time>
      </trkpt>
      <trkpt lat="44.0876" lon="5.99244">
        <ele>529.59997558594</ele>
        <time>2017-05-21T09:57:05.000Z</time>
      </trkpt>
      <trkpt lat="44.08769" lon="5.99228">
        <ele>529</ele>
        <time>2017-05-21T09:57:09.000Z</time>
      </trkpt>
      <trkpt lat="44.0878" lon="5.99204">
        <ele>526.20001220703</ele>
        <time>2017-05-21T09:57:14.000Z</time>
      </trkpt>
      <trkpt lat="44.08783" lon="5.99195">
        <ele>525</ele>
        <time>2017-05-21T09:57:15.000Z</time>
      </trkpt>
      <trkpt lat="44.08782" lon="5.99163">
        <ele>520.79998779297</ele>
        <time>2017-05-21T09:57:18.000Z</time>
      </trkpt>
      <trkpt lat="44.08782" lon="5.99149">
        <ele>519</ele>
        <time>2017-05-21T09:57:19.000Z</time>
      </trkpt>
      <trkpt lat="44.08793" lon="5.99125">
        <ele>516</ele>
        <time>2017-05-21T09:57:22.000Z</time>
      </trkpt>
      <trkpt lat="44.08812" lon="5.99122">
        <ele>515.79998779297</ele>
        <time>2017-05-21T09:57:26.000Z</time>
      </trkpt>
      <trkpt lat="44.08827" lon="5.99112">
        <ele>514.40002441406</ele>
        <time>2017-05-21T09:57:29.000Z</time>
      </trkpt>
      <trkpt lat="44.0884" lon="5.99093">
        <ele>512.79998779297</ele>
        <time>2017-05-21T09:57:35.000Z</time>
      </trkpt>
      <trkpt lat="44.08837" lon="5.99089">
        <ele>512.40002441406</ele>
        <time>2017-05-21T09:57:37.000Z</time>
      </trkpt>
      <trkpt lat="44.08821" lon="5.99075">
        <ele>510.60000610352</ele>
        <time>2017-05-21T09:57:44.000Z</time>
      </trkpt>
      <trkpt lat="44.08819" lon="5.99073">
        <ele>510.39999389648</ele>
        <time>2017-05-21T09:57:45.000Z</time>
      </trkpt>
      <trkpt lat="44.08799" lon="5.99068">
        <ele>509.39999389648</ele>
        <time>2017-05-21T09:57:51.000Z</time>
      </trkpt>
      <trkpt lat="44.08795" lon="5.99068">
        <ele>509.39999389648</ele>
        <time>2017-05-21T09:57:53.000Z</time>
      </trkpt>
      <trkpt lat="44.08791" lon="5.99069">
        <ele>509.39999389648</ele>
        <time>2017-05-21T09:57:56.000Z</time>
      </trkpt>
      <trkpt lat="44.08779" lon="5.9907">
        <ele>509.39999389648</ele>
        <time>2017-05-21T09:58:00.000Z</time>
      </trkpt>
      <trkpt lat="44.08761" lon="5.9907">
        <ele>508.60000610352</ele>
        <time>2017-05-21T09:58:06.000Z</time>
      </trkpt>
      <trkpt lat="44.08743" lon="5.99075">
        <ele>508.39999389648</ele>
        <time>2017-05-21T09:58:12.000Z</time>
      </trkpt>
      <trkpt lat="44.08721" lon="5.99079">
        <ele>507.79998779297</ele>
        <time>2017-05-21T09:58:16.000Z</time>
      </trkpt>
      <trkpt lat="44.08702" lon="5.99083">
        <ele>507.39999389648</ele>
        <time>2017-05-21T09:58:21.000Z</time>
      </trkpt>
      <trkpt lat="44.08684" lon="5.99073">
        <ele>505.39999389648</ele>
        <time>2017-05-21T09:58:27.000Z</time>
      </trkpt>
      <trkpt lat="44.08667" lon="5.99056">
        <ele>503.20001220703</ele>
        <time>2017-05-21T09:58:32.000Z</time>
      </trkpt>
      <trkpt lat="44.08646" lon="5.99057">
        <ele>502.39999389648</ele>
        <time>2017-05-21T09:58:38.000Z</time>
      </trkpt>
      <trkpt lat="44.08626" lon="5.9906">
        <ele>501.79998779297</ele>
        <time>2017-05-21T09:58:56.000Z</time>
      </trkpt>
      <trkpt lat="44.08608" lon="5.99075">
        <ele>503.20001220703</ele>
        <time>2017-05-21T09:59:04.000Z</time>
      </trkpt>
      <trkpt lat="44.08592" lon="5.9909">
        <ele>505</ele>
        <time>2017-05-21T09:59:10.000Z</time>
      </trkpt>
      <trkpt lat="44.08573" lon="5.99098">
        <ele>505.79998779297</ele>
        <time>2017-05-21T09:59:15.000Z</time>
      </trkpt>
      <trkpt lat="44.08554" lon="5.99107">
        <ele>505.60000610352</ele>
        <time>2017-05-21T09:59:20.000Z</time>
      </trkpt>
      <trkpt lat="44.08531" lon="5.99109">
        <ele>504</ele>
        <time>2017-05-21T09:59:25.000Z</time>
      </trkpt>
      <trkpt lat="44.08512" lon="5.99108">
        <ele>502.60000610352</ele>
        <time>2017-05-21T09:59:29.000Z</time>
      </trkpt>
      <trkpt lat="44.08492" lon="5.99104">
        <ele>500.79998779297</ele>
        <time>2017-05-21T09:59:33.000Z</time>
      </trkpt>
      <trkpt lat="44.08474" lon="5.991">
        <ele>498.60000610352</ele>
        <time>2017-05-21T09:59:37.000Z</time>
      </trkpt>
      <trkpt lat="44.08452" lon="5.99101">
        <ele>496</ele>
        <time>2017-05-21T09:59:42.000Z</time>
      </trkpt>
      <trkpt lat="44.08446" lon="5.991">
        <ele>495.39999389648</ele>
        <time>2017-05-21T09:59:43.000Z</time>
      </trkpt>
      <trkpt lat="44.08428" lon="5.99094">
        <ele>494.79998779297</ele>
        <time>2017-05-21T09:59:47.000Z</time>
      </trkpt>
      <trkpt lat="44.08425" lon="5.99092">
        <ele>494.79998779297</ele>
        <time>2017-05-21T09:59:48.000Z</time>
      </trkpt>
      <trkpt lat="44.08406" lon="5.99082">
        <ele>494.60000610352</ele>
        <time>2017-05-21T09:59:53.000Z</time>
      </trkpt>
      <trkpt lat="44.08386" lon="5.99073">
        <ele>494.39999389648</ele>
        <time>2017-05-21T10:00:00.000Z</time>
      </trkpt>
      <trkpt lat="44.08377" lon="5.99061">
        <ele>494</ele>
        <time>2017-05-21T10:00:07.000Z</time>
      </trkpt>
      <trkpt lat="44.08363" lon="5.99054">
        <ele>494.39999389648</ele>
        <time>2017-05-21T10:00:23.000Z</time>
      </trkpt>
      <trkpt lat="44.0836" lon="5.99029">
        <ele>497.20001220703</ele>
        <time>2017-05-21T10:00:37.000Z</time>
      </trkpt>
      <trkpt lat="44.08356" lon="5.99003">
        <ele>500.39999389648</ele>
        <time>2017-05-21T10:00:50.000Z</time>
      </trkpt>
      <trkpt lat="44.08347" lon="5.9898">
        <ele>504.20001220703</ele>
        <time>2017-05-21T10:01:05.000Z</time>
      </trkpt>
      <trkpt lat="44.08342" lon="5.98955">
        <ele>507.60000610352</ele>
        <time>2017-05-21T10:01:15.000Z</time>
      </trkpt>
      <trkpt lat="44.08336" lon="5.98931">
        <ele>510.60000610352</ele>
        <time>2017-05-21T10:01:26.000Z</time>
      </trkpt>
      <trkpt lat="44.08328" lon="5.98908">
        <ele>514</ele>
        <time>2017-05-21T10:01:38.000Z</time>
      </trkpt>
      <trkpt lat="44.08315" lon="5.98889">
        <ele>517.40002441406</ele>
        <time>2017-05-21T10:01:48.000Z</time>
      </trkpt>
      <trkpt lat="44.08314" lon="5.98883">
        <ele>517</ele>
        <time>2017-05-21T10:01:49.000Z</time>
      </trkpt>
      <trkpt lat="44.08312" lon="5.9887">
        <ele>516.20001220703</ele>
        <time>2017-05-21T10:01:54.000Z</time>
      </trkpt>
      <trkpt lat="44.0831" lon="5.98853">
        <ele>515.20001220703</ele>
        <time>2017-05-21T10:02:01.000Z</time>
      </trkpt>
      <trkpt lat="44.08304" lon="5.98829">
        <ele>515</ele>
        <time>2017-05-21T10:02:11.000Z</time>
      </trkpt>
      <trkpt lat="44.08294" lon="5.98812">
        <ele>516</ele>
        <time>2017-05-21T10:02:21.000Z</time>
      </trkpt>
      <trkpt lat="44.08299" lon="5.98799">
        <ele>516.20001220703</ele>
        <time>2017-05-21T10:02:28.000Z</time>
      </trkpt>
      <trkpt lat="44.08301" lon="5.98793">
        <ele>516.20001220703</ele>
        <time>2017-05-21T10:02:31.000Z</time>
      </trkpt>
      <trkpt lat="44.08285" lon="5.98782">
        <ele>517.20001220703</ele>
        <time>2017-05-21T10:02:41.000Z</time>
      </trkpt>
      <trkpt lat="44.08275" lon="5.98764">
        <ele>518.20001220703</ele>
        <time>2017-05-21T10:02:50.000Z</time>
      </trkpt>
      <trkpt lat="44.08277" lon="5.98748">
        <ele>518.40002441406</ele>
        <time>2017-05-21T10:02:55.000Z</time>
      </trkpt>
      <trkpt lat="44.0828" lon="5.98735">
        <ele>518.59997558594</ele>
        <time>2017-05-21T10:03:00.000Z</time>
      </trkpt>
      <trkpt lat="44.08268" lon="5.98726">
        <ele>519.79998779297</ele>
        <time>2017-05-21T10:03:09.000Z</time>
      </trkpt>
      <trkpt lat="44.0826" lon="5.98711">
        <ele>520</ele>
        <time>2017-05-21T10:03:17.000Z</time>
      </trkpt>
      <trkpt lat="44.08269" lon="5.98693">
        <ele>521.20001220703</ele>
        <time>2017-05-21T10:03:26.000Z</time>
      </trkpt>
      <trkpt lat="44.08269" lon="5.98685">
        <ele>521.79998779297</ele>
        <time>2017-05-21T10:03:30.000Z</time>
      </trkpt>
      <trkpt lat="44.08266" lon="5.98669">
        <ele>522.79998779297</ele>
        <time>2017-05-21T10:03:38.000Z</time>
      </trkpt>
      <trkpt lat="44.08266" lon="5.98653">
        <ele>524</ele>
        <time>2017-05-21T10:03:45.000Z</time>
      </trkpt>
      <trkpt lat="44.08272" lon="5.98627">
        <ele>525.79998779297</ele>
        <time>2017-05-21T10:03:55.000Z</time>
      </trkpt>
      <trkpt lat="44.08291" lon="5.98622">
        <ele>526</ele>
        <time>2017-05-21T10:04:06.000Z</time>
      </trkpt>
      <trkpt lat="44.08289" lon="5.98615">
        <ele>526.59997558594</ele>
        <time>2017-05-21T10:04:11.000Z</time>
      </trkpt>
      <trkpt lat="44.08285" lon="5.98609">
        <ele>527.20001220703</ele>
        <time>2017-05-21T10:04:15.000Z</time>
      </trkpt>
      <trkpt lat="44.0829" lon="5.98584">
        <ele>528.79998779297</ele>
        <time>2017-05-21T10:04:25.000Z</time>
      </trkpt>
      <trkpt lat="44.0828" lon="5.98562">
        <ele>530.59997558594</ele>
        <time>2017-05-21T10:04:39.000Z</time>
      </trkpt>
      <trkpt lat="44.08274" lon="5.98567">
        <ele>530.20001220703</ele>
        <time>2017-05-21T10:04:48.000Z</time>
      </trkpt>
      <trkpt lat="44.08262" lon="5.9856">
        <ele>530.40002441406</ele>
        <time>2017-05-21T10:04:54.000Z</time>
      </trkpt>
      <trkpt lat="44.08258" lon="5.9855">
        <ele>530.79998779297</ele>
        <time>2017-05-21T10:04:58.000Z</time>
      </trkpt>
      <trkpt lat="44.08249" lon="5.98542">
        <ele>531</ele>
        <time>2017-05-21T10:05:03.000Z</time>
      </trkpt>
      <trkpt lat="44.0823" lon="5.98543">
        <ele>530.20001220703</ele>
        <time>2017-05-21T10:05:09.000Z</time>
      </trkpt>
      <trkpt lat="44.08226" lon="5.98542">
        <ele>530.20001220703</ele>
        <time>2017-05-21T10:05:10.000Z</time>
      </trkpt>
      <trkpt lat="44.0821" lon="5.98527">
        <ele>530.40002441406</ele>
        <time>2017-05-21T10:05:14.000Z</time>
      </trkpt>
      <trkpt lat="44.082" lon="5.98511">
        <ele>531</ele>
        <time>2017-05-21T10:05:23.000Z</time>
      </trkpt>
      <trkpt lat="44.08189" lon="5.98495">
        <ele>531.79998779297</ele>
        <time>2017-05-21T10:05:30.000Z</time>
      </trkpt>
      <trkpt lat="44.08186" lon="5.98489">
        <ele>532.40002441406</ele>
        <time>2017-05-21T10:05:34.000Z</time>
      </trkpt>
      <trkpt lat="44.08169" lon="5.98497">
        <ele>532.20001220703</ele>
        <time>2017-05-21T10:05:43.000Z</time>
      </trkpt>
      <trkpt lat="44.08149" lon="5.98488">
        <ele>533.20001220703</ele>
        <time>2017-05-21T10:05:51.000Z</time>
      </trkpt>
      <trkpt lat="44.08132" lon="5.98473">
        <ele>534.59997558594</ele>
        <time>2017-05-21T10:05:58.000Z</time>
      </trkpt>
      <trkpt lat="44.08113" lon="5.98461">
        <ele>535.20001220703</ele>
        <time>2017-05-21T10:06:09.000Z</time>
      </trkpt>
      <trkpt lat="44.08094" lon="5.9847">
        <ele>536</ele>
        <time>2017-05-21T10:06:20.000Z</time>
      </trkpt>
      <trkpt lat="44.08092" lon="5.98472">
        <ele>536</ele>
        <time>2017-05-21T10:06:22.000Z</time>
      </trkpt>
      <trkpt lat="44.08082" lon="5.98478">
        <ele>536.59997558594</ele>
        <time>2017-05-21T10:06:28.000Z</time>
      </trkpt>
      <trkpt lat="44.08064" lon="5.98479">
        <ele>537.79998779297</ele>
        <time>2017-05-21T10:06:38.000Z</time>
      </trkpt>
      <trkpt lat="44.08046" lon="5.98472">
        <ele>538.79998779297</ele>
        <time>2017-05-21T10:06:49.000Z</time>
      </trkpt>
      <trkpt lat="44.08027" lon="5.98472">
        <ele>540</ele>
        <time>2017-05-21T10:06:59.000Z</time>
      </trkpt>
      <trkpt lat="44.08007" lon="5.98471">
        <ele>542.79998779297</ele>
        <time>2017-05-21T10:07:11.000Z</time>
      </trkpt>
      <trkpt lat="44.07996" lon="5.98478">
        <ele>544.79998779297</ele>
        <time>2017-05-21T10:07:20.000Z</time>
      </trkpt>
      <trkpt lat="44.07997" lon="5.98487">
        <ele>545.40002441406</ele>
        <time>2017-05-21T10:07:24.000Z</time>
      </trkpt>
      <trkpt lat="44.07999" lon="5.98512">
        <ele>546.79998779297</ele>
        <time>2017-05-21T10:07:34.000Z</time>
      </trkpt>
      <trkpt lat="44.08003" lon="5.9854">
        <ele>548.40002441406</ele>
        <time>2017-05-21T10:07:41.000Z</time>
      </trkpt>
      <trkpt lat="44.0802" lon="5.98557">
        <ele>547</ele>
        <time>2017-05-21T10:07:46.000Z</time>
      </trkpt>
      <trkpt lat="44.08037" lon="5.98572">
        <ele>545.40002441406</ele>
        <time>2017-05-21T10:07:51.000Z</time>
      </trkpt>
      <trkpt lat="44.08054" lon="5.98586">
        <ele>543.79998779297</ele>
        <time>2017-05-21T10:07:57.000Z</time>
      </trkpt>
      <trkpt lat="44.08066" lon="5.9859">
        <ele>542.20001220703</ele>
        <time>2017-05-21T10:08:01.000Z</time>
      </trkpt>
      <trkpt lat="44.08086" lon="5.98595">
        <ele>539.79998779297</ele>
        <time>2017-05-21T10:08:07.000Z</time>
      </trkpt>
      <trkpt lat="44.08094" lon="5.98601">
        <ele>539.20001220703</ele>
        <time>2017-05-21T10:08:09.000Z</time>
      </trkpt>
      <trkpt lat="44.08109" lon="5.98621">
        <ele>538.20001220703</ele>
        <time>2017-05-21T10:08:14.000Z</time>
      </trkpt>
      <trkpt lat="44.08125" lon="5.98635">
        <ele>536</ele>
        <time>2017-05-21T10:08:18.000Z</time>
      </trkpt>
      <trkpt lat="44.08127" lon="5.98634">
        <ele>535.59997558594</ele>
        <time>2017-05-21T10:08:19.000Z</time>
      </trkpt>
      <trkpt lat="44.08145" lon="5.98636">
        <ele>532.40002441406</ele>
        <time>2017-05-21T10:08:25.000Z</time>
      </trkpt>
      <trkpt lat="44.08159" lon="5.98651">
        <ele>530.40002441406</ele>
        <time>2017-05-21T10:08:32.000Z</time>
      </trkpt>
      <trkpt lat="44.08176" lon="5.98666">
        <ele>528</ele>
        <time>2017-05-21T10:08:39.000Z</time>
      </trkpt>
      <trkpt lat="44.08176" lon="5.9867">
        <ele>528</ele>
        <time>2017-05-21T10:08:41.000Z</time>
      </trkpt>
      <trkpt lat="44.08159" lon="5.98692">
        <ele>532</ele>
        <time>2017-05-21T10:08:50.000Z</time>
      </trkpt>
      <trkpt lat="44.0816" lon="5.98704">
        <ele>532.40002441406</ele>
        <time>2017-05-21T10:08:55.000Z</time>
      </trkpt>
      <trkpt lat="44.08166" lon="5.9873">
        <ele>532.59997558594</ele>
        <time>2017-05-21T10:09:10.000Z</time>
      </trkpt>
      <trkpt lat="44.08163" lon="5.98738">
        <ele>533.79998779297</ele>
        <time>2017-05-21T10:09:13.000Z</time>
      </trkpt>
      <trkpt lat="44.08155" lon="5.98744">
        <ele>535.79998779297</ele>
        <time>2017-05-21T10:09:21.000Z</time>
      </trkpt>
      <trkpt lat="44.08162" lon="5.98767">
        <ele>536.40002441406</ele>
        <time>2017-05-21T10:09:35.000Z</time>
      </trkpt>
      <trkpt lat="44.08163" lon="5.98769">
        <ele>536.40002441406</ele>
        <time>2017-05-21T10:09:36.000Z</time>
      </trkpt>
      <trkpt lat="44.0817" lon="5.9878">
        <ele>536.20001220703</ele>
        <time>2017-05-21T10:09:43.000Z</time>
      </trkpt>
      <trkpt lat="44.08156" lon="5.98786">
        <ele>536.79998779297</ele>
        <time>2017-05-21T10:10:00.000Z</time>
      </trkpt>
      <trkpt lat="44.08154" lon="5.98797">
        <ele>535.79998779297</ele>
        <time>2017-05-21T10:10:10.000Z</time>
      </trkpt>
      <trkpt lat="44.08156" lon="5.98803">
        <ele>535.40002441406</ele>
        <time>2017-05-21T10:10:15.000Z</time>
      </trkpt>
      <trkpt lat="44.08149" lon="5.98807">
        <ele>535.20001220703</ele>
        <time>2017-05-21T10:10:22.000Z</time>
      </trkpt>
      <trkpt lat="44.08134" lon="5.98793">
        <ele>536.59997558594</ele>
        <time>2017-05-21T10:10:36.000Z</time>
      </trkpt>
      <trkpt lat="44.08129" lon="5.9879">
        <ele>537</ele>
        <time>2017-05-21T10:10:40.000Z</time>
      </trkpt>
      <trkpt lat="44.08125" lon="5.98785">
        <ele>537.59997558594</ele>
        <time>2017-05-21T10:10:44.000Z</time>
      </trkpt>
      <trkpt lat="44.08108" lon="5.9877">
        <ele>539.20001220703</ele>
        <time>2017-05-21T10:10:55.000Z</time>
      </trkpt>
      <trkpt lat="44.08094" lon="5.98756">
        <ele>541.40002441406</ele>
        <time>2017-05-21T10:11:07.000Z</time>
      </trkpt>
      <trkpt lat="44.0809" lon="5.98743">
        <ele>542.59997558594</ele>
        <time>2017-05-21T10:11:11.000Z</time>
      </trkpt>
      <trkpt lat="44.08084" lon="5.98726">
        <ele>544.40002441406</ele>
        <time>2017-05-21T10:11:14.000Z</time>
      </trkpt>
      <trkpt lat="44.0807" lon="5.9871">
        <ele>546.40002441406</ele>
        <time>2017-05-21T10:11:21.000Z</time>
      </trkpt>
      <trkpt lat="44.08064" lon="5.987">
        <ele>547.40002441406</ele>
        <time>2017-05-21T10:11:27.000Z</time>
      </trkpt>
      <trkpt lat="44.08064" lon="5.98693">
        <ele>548</ele>
        <time>2017-05-21T10:11:31.000Z</time>
      </trkpt>
      <trkpt lat="44.08055" lon="5.9868">
        <ele>549.59997558594</ele>
        <time>2017-05-21T10:11:39.000Z</time>
      </trkpt>
      <trkpt lat="44.08049" lon="5.98658">
        <ele>550.59997558594</ele>
        <time>2017-05-21T10:11:50.000Z</time>
      </trkpt>
      <trkpt lat="44.08034" lon="5.98639">
        <ele>552.40002441406</ele>
        <time>2017-05-21T10:12:00.000Z</time>
      </trkpt>
      <trkpt lat="44.08032" lon="5.98638">
        <ele>552.59997558594</ele>
        <time>2017-05-21T10:12:01.000Z</time>
      </trkpt>
      <trkpt lat="44.08025" lon="5.98634">
        <ele>553.59997558594</ele>
        <time>2017-05-21T10:12:06.000Z</time>
      </trkpt>
      <trkpt lat="44.08019" lon="5.98624">
        <ele>553.59997558594</ele>
        <time>2017-05-21T10:12:10.000Z</time>
      </trkpt>
      <trkpt lat="44.08007" lon="5.98605">
        <ele>554.20001220703</ele>
        <time>2017-05-21T10:12:18.000Z</time>
      </trkpt>
      <trkpt lat="44.07994" lon="5.98585">
        <ele>554.59997558594</ele>
        <time>2017-05-21T10:12:28.000Z</time>
      </trkpt>
      <trkpt lat="44.07984" lon="5.98563">
        <ele>554.59997558594</ele>
        <time>2017-05-21T10:12:37.000Z</time>
      </trkpt>
      <trkpt lat="44.07977" lon="5.98557">
        <ele>555.40002441406</ele>
        <time>2017-05-21T10:12:44.000Z</time>
      </trkpt>
      <trkpt lat="44.07963" lon="5.9854">
        <ele>556.20001220703</ele>
        <time>2017-05-21T10:12:54.000Z</time>
      </trkpt>
      <trkpt lat="44.07958" lon="5.9853">
        <ele>556</ele>
        <time>2017-05-21T10:12:56.000Z</time>
      </trkpt>
      <trkpt lat="44.07959" lon="5.9852">
        <ele>554.79998779297</ele>
        <time>2017-05-21T10:12:58.000Z</time>
      </trkpt>
      <trkpt lat="44.07959" lon="5.98514">
        <ele>554.20001220703</ele>
        <time>2017-05-21T10:13:00.000Z</time>
      </trkpt>
      <trkpt lat="44.07952" lon="5.98507">
        <ele>554.79998779297</ele>
        <time>2017-05-21T10:13:05.000Z</time>
      </trkpt>
      <trkpt lat="44.0795" lon="5.98507">
        <ele>555</ele>
        <time>2017-05-21T10:13:06.000Z</time>
      </trkpt>
      <trkpt lat="44.07931" lon="5.98508">
        <ele>559</ele>
        <time>2017-05-21T10:13:17.000Z</time>
      </trkpt>
      <trkpt lat="44.07925" lon="5.98504">
        <ele>559.59997558594</ele>
        <time>2017-05-21T10:13:22.000Z</time>
      </trkpt>
      <trkpt lat="44.07924" lon="5.98487">
        <ele>558</ele>
        <time>2017-05-21T10:13:27.000Z</time>
      </trkpt>
      <trkpt lat="44.0791" lon="5.98471">
        <ele>558.79998779297</ele>
        <time>2017-05-21T10:13:33.000Z</time>
      </trkpt>
      <trkpt lat="44.07914" lon="5.98467">
        <ele>557.40002441406</ele>
        <time>2017-05-21T10:13:35.000Z</time>
      </trkpt>
      <trkpt lat="44.07917" lon="5.9845">
        <ele>554</ele>
        <time>2017-05-21T10:13:43.000Z</time>
      </trkpt>
      <trkpt lat="44.0791" lon="5.98427">
        <ele>553.59997558594</ele>
        <time>2017-05-21T10:13:50.000Z</time>
      </trkpt>
      <trkpt lat="44.07909" lon="5.98425">
        <ele>553.59997558594</ele>
        <time>2017-05-21T10:13:51.000Z</time>
      </trkpt>
      <trkpt lat="44.07893" lon="5.98417">
        <ele>554.59997558594</ele>
        <time>2017-05-21T10:14:00.000Z</time>
      </trkpt>
      <trkpt lat="44.07887" lon="5.98423">
        <ele>555.79998779297</ele>
        <time>2017-05-21T10:14:04.000Z</time>
      </trkpt>
      <trkpt lat="44.07877" lon="5.98429">
        <ele>558.59997558594</ele>
        <time>2017-05-21T10:14:12.000Z</time>
      </trkpt>
      <trkpt lat="44.07871" lon="5.98417">
        <ele>558</ele>
        <time>2017-05-21T10:14:17.000Z</time>
      </trkpt>
      <trkpt lat="44.0786" lon="5.98399">
        <ele>557.20001220703</ele>
        <time>2017-05-21T10:14:25.000Z</time>
      </trkpt>
      <trkpt lat="44.07858" lon="5.98394">
        <ele>556.59997558594</ele>
        <time>2017-05-21T10:14:27.000Z</time>
      </trkpt>
      <trkpt lat="44.07841" lon="5.98382">
        <ele>556.79998779297</ele>
        <time>2017-05-21T10:14:34.000Z</time>
      </trkpt>
      <trkpt lat="44.07826" lon="5.98361">
        <ele>555</ele>
        <time>2017-05-21T10:14:40.000Z</time>
      </trkpt>
      <trkpt lat="44.07823" lon="5.9836">
        <ele>555.20001220703</ele>
        <time>2017-05-21T10:14:41.000Z</time>
      </trkpt>
      <trkpt lat="44.07804" lon="5.98359">
        <ele>557.59997558594</ele>
        <time>2017-05-21T10:14:49.000Z</time>
      </trkpt>
      <trkpt lat="44.07785" lon="5.98355">
        <ele>559.40002441406</ele>
        <time>2017-05-21T10:14:58.000Z</time>
      </trkpt>
      <trkpt lat="44.07766" lon="5.98346">
        <ele>559.20001220703</ele>
        <time>2017-05-21T10:15:05.000Z</time>
      </trkpt>
      <trkpt lat="44.07751" lon="5.98343">
        <ele>559.20001220703</ele>
        <time>2017-05-21T10:15:10.000Z</time>
      </trkpt>
      <trkpt lat="44.07737" lon="5.98324">
        <ele>556.40002441406</ele>
        <time>2017-05-21T10:15:17.000Z</time>
      </trkpt>
      <trkpt lat="44.07719" lon="5.98314">
        <ele>555.20001220703</ele>
        <time>2017-05-21T10:15:23.000Z</time>
      </trkpt>
      <trkpt lat="44.07697" lon="5.98302">
        <ele>553.79998779297</ele>
        <time>2017-05-21T10:15:28.000Z</time>
      </trkpt>
      <trkpt lat="44.07679" lon="5.98299">
        <ele>553.40002441406</ele>
        <time>2017-05-21T10:15:33.000Z</time>
      </trkpt>
      <trkpt lat="44.07658" lon="5.98289">
        <ele>552</ele>
        <time>2017-05-21T10:15:39.000Z</time>
      </trkpt>
      <trkpt lat="44.0765" lon="5.98282">
        <ele>550.79998779297</ele>
        <time>2017-05-21T10:15:41.000Z</time>
      </trkpt>
      <trkpt lat="44.07641" lon="5.9827">
        <ele>548.20001220703</ele>
        <time>2017-05-21T10:15:44.000Z</time>
      </trkpt>
      <trkpt lat="44.0762" lon="5.98259">
        <ele>546.40002441406</ele>
        <time>2017-05-21T10:15:48.000Z</time>
      </trkpt>
      <trkpt lat="44.07601" lon="5.9825">
        <ele>545.40002441406</ele>
        <time>2017-05-21T10:15:52.000Z</time>
      </trkpt>
      <trkpt lat="44.07581" lon="5.98245">
        <ele>546</ele>
        <time>2017-05-21T10:15:58.000Z</time>
      </trkpt>
      <trkpt lat="44.07563" lon="5.98249">
        <ele>548.40002441406</ele>
        <time>2017-05-21T10:16:05.000Z</time>
      </trkpt>
      <trkpt lat="44.07545" lon="5.98252">
        <ele>550</ele>
        <time>2017-05-21T10:16:14.000Z</time>
      </trkpt>
      <trkpt lat="44.07525" lon="5.98248">
        <ele>549.59997558594</ele>
        <time>2017-05-21T10:16:22.000Z</time>
      </trkpt>
      <trkpt lat="44.07508" lon="5.98237">
        <ele>549.20001220703</ele>
        <time>2017-05-21T10:16:26.000Z</time>
      </trkpt>
      <trkpt lat="44.07494" lon="5.9823">
        <ele>549.20001220703</ele>
        <time>2017-05-21T10:16:29.000Z</time>
      </trkpt>
      <trkpt lat="44.07476" lon="5.98226">
        <ele>549.79998779297</ele>
        <time>2017-05-21T10:16:33.000Z</time>
      </trkpt>
      <trkpt lat="44.07471" lon="5.98224">
        <ele>549.59997558594</ele>
        <time>2017-05-21T10:16:34.000Z</time>
      </trkpt>
      <trkpt lat="44.07453" lon="5.98214">
        <ele>548.59997558594</ele>
        <time>2017-05-21T10:16:39.000Z</time>
      </trkpt>
      <trkpt lat="44.07435" lon="5.98218">
        <ele>550.59997558594</ele>
        <time>2017-05-21T10:16:47.000Z</time>
      </trkpt>
      <trkpt lat="44.07415" lon="5.98217">
        <ele>549.40002441406</ele>
        <time>2017-05-21T10:16:57.000Z</time>
      </trkpt>
      <trkpt lat="44.07396" lon="5.98217">
        <ele>548.59997558594</ele>
        <time>2017-05-21T10:17:04.000Z</time>
      </trkpt>
      <trkpt lat="44.07375" lon="5.98215">
        <ele>547.20001220703</ele>
        <time>2017-05-21T10:17:13.000Z</time>
      </trkpt>
      <trkpt lat="44.0737" lon="5.98216">
        <ele>547</ele>
        <time>2017-05-21T10:17:16.000Z</time>
      </trkpt>
      <trkpt lat="44.07352" lon="5.98211">
        <ele>546.20001220703</ele>
        <time>2017-05-21T10:17:25.000Z</time>
      </trkpt>
      <trkpt lat="44.07334" lon="5.98202">
        <ele>545.20001220703</ele>
        <time>2017-05-21T10:17:31.000Z</time>
      </trkpt>
      <trkpt lat="44.07315" lon="5.98197">
        <ele>543.40002441406</ele>
        <time>2017-05-21T10:17:37.000Z</time>
      </trkpt>
      <trkpt lat="44.07297" lon="5.98191">
        <ele>541.59997558594</ele>
        <time>2017-05-21T10:17:42.000Z</time>
      </trkpt>
      <trkpt lat="44.07276" lon="5.98179">
        <ele>539.40002441406</ele>
        <time>2017-05-21T10:17:48.000Z</time>
      </trkpt>
      <trkpt lat="44.07257" lon="5.98171">
        <ele>538.59997558594</ele>
        <time>2017-05-21T10:17:56.000Z</time>
      </trkpt>
      <trkpt lat="44.07241" lon="5.98161">
        <ele>538</ele>
        <time>2017-05-21T10:18:02.000Z</time>
      </trkpt>
      <trkpt lat="44.07221" lon="5.98153">
        <ele>537.20001220703</ele>
        <time>2017-05-21T10:18:08.000Z</time>
      </trkpt>
      <trkpt lat="44.07201" lon="5.98142">
        <ele>536.40002441406</ele>
        <time>2017-05-21T10:18:15.000Z</time>
      </trkpt>
      <trkpt lat="44.07187" lon="5.98143">
        <ele>535</ele>
        <time>2017-05-21T10:18:21.000Z</time>
      </trkpt>
      <trkpt lat="44.07191" lon="5.98163">
        <ele>533.59997558594</ele>
        <time>2017-05-21T10:18:39.000Z</time>
      </trkpt>
      <trkpt lat="44.07209" lon="5.98172">
        <ele>535.40002441406</ele>
        <time>2017-05-21T10:18:50.000Z</time>
      </trkpt>
      <trkpt lat="44.07222" lon="5.98179">
        <ele>536.59997558594</ele>
        <time>2017-05-21T10:18:57.000Z</time>
      </trkpt>
      <trkpt lat="44.07235" lon="5.98188">
        <ele>537.59997558594</ele>
        <time>2017-05-21T10:19:03.000Z</time>
      </trkpt>
      <trkpt lat="44.07253" lon="5.98199">
        <ele>538.79998779297</ele>
        <time>2017-05-21T10:19:11.000Z</time>
      </trkpt>
      <trkpt lat="44.07273" lon="5.98207">
        <ele>539.59997558594</ele>
        <time>2017-05-21T10:19:20.000Z</time>
      </trkpt>
      <trkpt lat="44.07291" lon="5.98215">
        <ele>541.20001220703</ele>
        <time>2017-05-21T10:19:26.000Z</time>
      </trkpt>
      <trkpt lat="44.07309" lon="5.98222">
        <ele>543.20001220703</ele>
        <time>2017-05-21T10:19:34.000Z</time>
      </trkpt>
      <trkpt lat="44.07326" lon="5.98234">
        <ele>546</ele>
        <time>2017-05-21T10:19:45.000Z</time>
      </trkpt>
      <trkpt lat="44.07344" lon="5.98245">
        <ele>549.20001220703</ele>
        <time>2017-05-21T10:19:55.000Z</time>
      </trkpt>
      <trkpt lat="44.07361" lon="5.98251">
        <ele>551.59997558594</ele>
        <time>2017-05-21T10:20:02.000Z</time>
      </trkpt>
      <trkpt lat="44.07379" lon="5.98256">
        <ele>553.40002441406</ele>
        <time>2017-05-21T10:20:09.000Z</time>
      </trkpt>
      <trkpt lat="44.07399" lon="5.98263">
        <ele>555.40002441406</ele>
        <time>2017-05-21T10:20:19.000Z</time>
      </trkpt>
      <trkpt lat="44.07416" lon="5.98272">
        <ele>557.40002441406</ele>
        <time>2017-05-21T10:20:26.000Z</time>
      </trkpt>
      <trkpt lat="44.07434" lon="5.9828">
        <ele>559.59997558594</ele>
        <time>2017-05-21T10:20:31.000Z</time>
      </trkpt>
      <trkpt lat="44.07455" lon="5.98283">
        <ele>559.79998779297</ele>
        <time>2017-05-21T10:20:35.000Z</time>
      </trkpt>
      <trkpt lat="44.07473" lon="5.98295">
        <ele>560.20001220703</ele>
        <time>2017-05-21T10:20:42.000Z</time>
      </trkpt>
      <trkpt lat="44.07491" lon="5.983">
        <ele>560</ele>
        <time>2017-05-21T10:20:48.000Z</time>
      </trkpt>
      <trkpt lat="44.07508" lon="5.98311">
        <ele>560</ele>
        <time>2017-05-21T10:20:55.000Z</time>
      </trkpt>
      <trkpt lat="44.07528" lon="5.98314">
        <ele>559</ele>
        <time>2017-05-21T10:21:04.000Z</time>
      </trkpt>
      <trkpt lat="44.07545" lon="5.9832">
        <ele>560</ele>
        <time>2017-05-21T10:21:15.000Z</time>
      </trkpt>
      <trkpt lat="44.07557" lon="5.98339">
        <ele>561.59997558594</ele>
        <time>2017-05-21T10:21:28.000Z</time>
      </trkpt>
      <trkpt lat="44.07555" lon="5.98365">
        <ele>560.79998779297</ele>
        <time>2017-05-21T10:21:40.000Z</time>
      </trkpt>
      <trkpt lat="44.07543" lon="5.98389">
        <ele>558.79998779297</ele>
        <time>2017-05-21T10:21:47.000Z</time>
      </trkpt>
      <trkpt lat="44.07532" lon="5.98411">
        <ele>557.40002441406</ele>
        <time>2017-05-21T10:21:52.000Z</time>
      </trkpt>
      <trkpt lat="44.07523" lon="5.9843">
        <ele>555.59997558594</ele>
        <time>2017-05-21T10:21:55.000Z</time>
      </trkpt>
      <trkpt lat="44.07506" lon="5.98448">
        <ele>555.20001220703</ele>
        <time>2017-05-21T10:21:59.000Z</time>
      </trkpt>
      <trkpt lat="44.07494" lon="5.98471">
        <ele>548</ele>
        <time>2017-05-21T10:22:06.000Z</time>
      </trkpt>
      <trkpt lat="44.07481" lon="5.98495">
        <ele>544.20001220703</ele>
        <time>2017-05-21T10:22:12.000Z</time>
      </trkpt>
      <trkpt lat="44.07475" lon="5.98521">
        <ele>540.59997558594</ele>
        <time>2017-05-21T10:22:16.000Z</time>
      </trkpt>
      <trkpt lat="44.07468" lon="5.98547">
        <ele>533.40002441406</ele>
        <time>2017-05-21T10:22:21.000Z</time>
      </trkpt>
      <trkpt lat="44.07468" lon="5.98561">
        <ele>531.20001220703</ele>
        <time>2017-05-21T10:22:24.000Z</time>
      </trkpt>
      <trkpt lat="44.0747" lon="5.98583">
        <ele>528.20001220703</ele>
        <time>2017-05-21T10:22:29.000Z</time>
      </trkpt>
      <trkpt lat="44.07471" lon="5.98611">
        <ele>526.40002441406</ele>
        <time>2017-05-21T10:22:34.000Z</time>
      </trkpt>
      <trkpt lat="44.07475" lon="5.98641">
        <ele>525.40002441406</ele>
        <time>2017-05-21T10:22:38.000Z</time>
      </trkpt>
      <trkpt lat="44.07484" lon="5.98667">
        <ele>522.59997558594</ele>
        <time>2017-05-21T10:22:42.000Z</time>
      </trkpt>
      <trkpt lat="44.07498" lon="5.9869">
        <ele>521.79998779297</ele>
        <time>2017-05-21T10:22:47.000Z</time>
      </trkpt>
      <trkpt lat="44.07512" lon="5.9871">
        <ele>521.79998779297</ele>
        <time>2017-05-21T10:22:53.000Z</time>
      </trkpt>
      <trkpt lat="44.07525" lon="5.9873">
        <ele>522</ele>
        <time>2017-05-21T10:23:02.000Z</time>
      </trkpt>
      <trkpt lat="44.07537" lon="5.98751">
        <ele>521.40002441406</ele>
        <time>2017-05-21T10:23:13.000Z</time>
      </trkpt>
      <trkpt lat="44.07546" lon="5.98773">
        <ele>520</ele>
        <time>2017-05-21T10:23:20.000Z</time>
      </trkpt>
      <trkpt lat="44.07555" lon="5.98794">
        <ele>518.79998779297</ele>
        <time>2017-05-21T10:23:25.000Z</time>
      </trkpt>
      <trkpt lat="44.07571" lon="5.9881">
        <ele>520</ele>
        <time>2017-05-21T10:23:32.000Z</time>
      </trkpt>
      <trkpt lat="44.07586" lon="5.98828">
        <ele>519.40002441406</ele>
        <time>2017-05-21T10:23:40.000Z</time>
      </trkpt>
      <trkpt lat="44.07603" lon="5.98838">
        <ele>521</ele>
        <time>2017-05-21T10:23:48.000Z</time>
      </trkpt>
      <trkpt lat="44.07619" lon="5.98854">
        <ele>521</ele>
        <time>2017-05-21T10:23:57.000Z</time>
      </trkpt>
      <trkpt lat="44.07636" lon="5.98867">
        <ele>521.40002441406</ele>
        <time>2017-05-21T10:24:04.000Z</time>
      </trkpt>
      <trkpt lat="44.07653" lon="5.98881">
        <ele>521.79998779297</ele>
        <time>2017-05-21T10:24:11.000Z</time>
      </trkpt>
      <trkpt lat="44.0767" lon="5.98893">
        <ele>522.40002441406</ele>
        <time>2017-05-21T10:24:15.000Z</time>
      </trkpt>
      <trkpt lat="44.07688" lon="5.98902">
        <ele>524</ele>
        <time>2017-05-21T10:24:21.000Z</time>
      </trkpt>
      <trkpt lat="44.07709" lon="5.98911">
        <ele>526</ele>
        <time>2017-05-21T10:24:28.000Z</time>
      </trkpt>
      <trkpt lat="44.07729" lon="5.98913">
        <ele>528.20001220703</ele>
        <time>2017-05-21T10:24:34.000Z</time>
      </trkpt>
      <trkpt lat="44.07747" lon="5.98917">
        <ele>530</ele>
        <time>2017-05-21T10:24:43.000Z</time>
      </trkpt>
      <trkpt lat="44.07765" lon="5.98928">
        <ele>530.40002441406</ele>
        <time>2017-05-21T10:24:53.000Z</time>
      </trkpt>
      <trkpt lat="44.0778" lon="5.98942">
        <ele>530.40002441406</ele>
        <time>2017-05-21T10:25:05.000Z</time>
      </trkpt>
      <trkpt lat="44.07789" lon="5.98921">
        <ele>534.79998779297</ele>
        <time>2017-05-21T10:25:26.000Z</time>
      </trkpt>
      <trkpt lat="44.07789" lon="5.98894">
        <ele>539</ele>
        <time>2017-05-21T10:25:40.000Z</time>
      </trkpt>
      <trkpt lat="44.07803" lon="5.98876">
        <ele>544.79998779297</ele>
        <time>2017-05-21T10:25:58.000Z</time>
      </trkpt>
      <trkpt lat="44.07815" lon="5.98874">
        <ele>547.40002441406</ele>
        <time>2017-05-21T10:26:17.000Z</time>
      </trkpt>
      <trkpt lat="44.07823" lon="5.98866">
        <ele>550.59997558594</ele>
        <time>2017-05-21T10:26:37.000Z</time>
      </trkpt>
      <trkpt lat="44.07822" lon="5.98865">
        <ele>550.79998779297</ele>
        <time>2017-05-21T10:26:38.000Z</time>
      </trkpt>
      <trkpt lat="44.07812" lon="5.98844">
        <ele>553</ele>
        <time>2017-05-21T10:26:50.000Z</time>
      </trkpt>
      <trkpt lat="44.07799" lon="5.98824">
        <ele>553.59997558594</ele>
        <time>2017-05-21T10:26:58.000Z</time>
      </trkpt>
      <trkpt lat="44.07786" lon="5.98807">
        <ele>554.20001220703</ele>
        <time>2017-05-21T10:27:08.000Z</time>
      </trkpt>
      <trkpt lat="44.07782" lon="5.98782">
        <ele>558.20001220703</ele>
        <time>2017-05-21T10:27:18.000Z</time>
      </trkpt>
      <trkpt lat="44.07779" lon="5.98755">
        <ele>562.79998779297</ele>
        <time>2017-05-21T10:27:30.000Z</time>
      </trkpt>
      <trkpt lat="44.07778" lon="5.98729">
        <ele>567.20001220703</ele>
        <time>2017-05-21T10:27:41.000Z</time>
      </trkpt>
      <trkpt lat="44.07769" lon="5.98706">
        <ele>569.79998779297</ele>
        <time>2017-05-21T10:27:53.000Z</time>
      </trkpt>
      <trkpt lat="44.0776" lon="5.98685">
        <ele>572.40002441406</ele>
        <time>2017-05-21T10:28:05.000Z</time>
      </trkpt>
      <trkpt lat="44.07749" lon="5.98665">
        <ele>575</ele>
        <time>2017-05-21T10:28:16.000Z</time>
      </trkpt>
      <trkpt lat="44.07739" lon="5.98642">
        <ele>577.59997558594</ele>
        <time>2017-05-21T10:28:29.000Z</time>
      </trkpt>
      <trkpt lat="44.07729" lon="5.9862">
        <ele>579</ele>
        <time>2017-05-21T10:28:40.000Z</time>
      </trkpt>
      <trkpt lat="44.07715" lon="5.98601">
        <ele>581.59997558594</ele>
        <time>2017-05-21T10:28:51.000Z</time>
      </trkpt>
      <trkpt lat="44.07703" lon="5.98581">
        <ele>583.59997558594</ele>
        <time>2017-05-21T10:28:59.000Z</time>
      </trkpt>
      <trkpt lat="44.07697" lon="5.98559">
        <ele>584.20001220703</ele>
        <time>2017-05-21T10:29:03.000Z</time>
      </trkpt>
      <trkpt lat="44.07707" lon="5.98544">
        <ele>580.79998779297</ele>
        <time>2017-05-21T10:29:08.000Z</time>
      </trkpt>
      <trkpt lat="44.07728" lon="5.98541">
        <ele>576.79998779297</ele>
        <time>2017-05-21T10:29:14.000Z</time>
      </trkpt>
      <trkpt lat="44.07748" lon="5.98544">
        <ele>573.79998779297</ele>
        <time>2017-05-21T10:29:20.000Z</time>
      </trkpt>
      <trkpt lat="44.07752" lon="5.98547">
        <ele>573.59997558594</ele>
        <time>2017-05-21T10:29:21.000Z</time>
      </trkpt>
      <trkpt lat="44.07761" lon="5.98552">
        <ele>572.79998779297</ele>
        <time>2017-05-21T10:29:23.000Z</time>
      </trkpt>
      <trkpt lat="44.07775" lon="5.98557">
        <ele>571</ele>
        <time>2017-05-21T10:29:26.000Z</time>
      </trkpt>
      <trkpt lat="44.07793" lon="5.98563">
        <ele>570.20001220703</ele>
        <time>2017-05-21T10:29:31.000Z</time>
      </trkpt>
      <trkpt lat="44.07811" lon="5.98575">
        <ele>568.40002441406</ele>
        <time>2017-05-21T10:29:38.000Z</time>
      </trkpt>
      <trkpt lat="44.07827" lon="5.98588">
        <ele>566.40002441406</ele>
        <time>2017-05-21T10:29:44.000Z</time>
      </trkpt>
      <trkpt lat="44.07846" lon="5.98603">
        <ele>564.20001220703</ele>
        <time>2017-05-21T10:29:48.000Z</time>
      </trkpt>
      <trkpt lat="44.07861" lon="5.98618">
        <ele>562.20001220703</ele>
        <time>2017-05-21T10:29:51.000Z</time>
      </trkpt>
      <trkpt lat="44.07878" lon="5.98636">
        <ele>560.20001220703</ele>
        <time>2017-05-21T10:29:55.000Z</time>
      </trkpt>
      <trkpt lat="44.07896" lon="5.98653">
        <ele>557.79998779297</ele>
        <time>2017-05-21T10:29:58.000Z</time>
      </trkpt>
      <trkpt lat="44.07903" lon="5.98657">
        <ele>557.20001220703</ele>
        <time>2017-05-21T10:29:59.000Z</time>
      </trkpt>
      <trkpt lat="44.07918" lon="5.9867">
        <ele>555.20001220703</ele>
        <time>2017-05-21T10:30:02.000Z</time>
      </trkpt>
      <trkpt lat="44.0793" lon="5.98696">
        <ele>551</ele>
        <time>2017-05-21T10:30:06.000Z</time>
      </trkpt>
      <trkpt lat="44.07932" lon="5.98702">
        <ele>549.79998779297</ele>
        <time>2017-05-21T10:30:07.000Z</time>
      </trkpt>
      <trkpt lat="44.07942" lon="5.98718">
        <ele>547.20001220703</ele>
        <time>2017-05-21T10:30:10.000Z</time>
      </trkpt>
      <trkpt lat="44.07958" lon="5.9873">
        <ele>545.40002441406</ele>
        <time>2017-05-21T10:30:13.000Z</time>
      </trkpt>
      <trkpt lat="44.07974" lon="5.98746">
        <ele>543</ele>
        <time>2017-05-21T10:30:16.000Z</time>
      </trkpt>
      <trkpt lat="44.07985" lon="5.98754">
        <ele>541.79998779297</ele>
        <time>2017-05-21T10:30:18.000Z</time>
      </trkpt>
      <trkpt lat="44.08" lon="5.98769">
        <ele>539.40002441406</ele>
        <time>2017-05-21T10:30:21.000Z</time>
      </trkpt>
      <trkpt lat="44.08005" lon="5.98775">
        <ele>538.40002441406</ele>
        <time>2017-05-21T10:30:22.000Z</time>
      </trkpt>
      <trkpt lat="44.08016" lon="5.98789">
        <ele>536.20001220703</ele>
        <time>2017-05-21T10:30:25.000Z</time>
      </trkpt>
      <trkpt lat="44.0801" lon="5.9879">
        <ele>535.79998779297</ele>
        <time>2017-05-21T10:30:29.000Z</time>
      </trkpt>
      <trkpt lat="44.07994" lon="5.98786">
        <ele>537</ele>
        <time>2017-05-21T10:30:33.000Z</time>
      </trkpt>
      <trkpt lat="44.07977" lon="5.98792">
        <ele>537.20001220703</ele>
        <time>2017-05-21T10:30:38.000Z</time>
      </trkpt>
      <trkpt lat="44.07987" lon="5.98816">
        <ele>534.40002441406</ele>
        <time>2017-05-21T10:30:42.000Z</time>
      </trkpt>
      <trkpt lat="44.07988" lon="5.98822">
        <ele>534</ele>
        <time>2017-05-21T10:30:43.000Z</time>
      </trkpt>
      <trkpt lat="44.07991" lon="5.98827">
        <ele>533.59997558594</ele>
        <time>2017-05-21T10:30:44.000Z</time>
      </trkpt>
      <trkpt lat="44.08004" lon="5.98856">
        <ele>531.20001220703</ele>
        <time>2017-05-21T10:30:48.000Z</time>
      </trkpt>
      <trkpt lat="44.08015" lon="5.98876">
        <ele>529.40002441406</ele>
        <time>2017-05-21T10:30:51.000Z</time>
      </trkpt>
      <trkpt lat="44.0802" lon="5.98878">
        <ele>529</ele>
        <time>2017-05-21T10:30:52.000Z</time>
      </trkpt>
      <trkpt lat="44.08039" lon="5.98885">
        <ele>528</ele>
        <time>2017-05-21T10:30:57.000Z</time>
      </trkpt>
      <trkpt lat="44.08047" lon="5.98897">
        <ele>526.59997558594</ele>
        <time>2017-05-21T10:31:00.000Z</time>
      </trkpt>
      <trkpt lat="44.0806" lon="5.98921">
        <ele>523.20001220703</ele>
        <time>2017-05-21T10:31:04.000Z</time>
      </trkpt>
      <trkpt lat="44.08064" lon="5.98925">
        <ele>522.59997558594</ele>
        <time>2017-05-21T10:31:05.000Z</time>
      </trkpt>
      <trkpt lat="44.08068" lon="5.98931">
        <ele>521.79998779297</ele>
        <time>2017-05-21T10:31:08.000Z</time>
      </trkpt>
      <trkpt lat="44.08057" lon="5.98933">
        <ele>523</ele>
        <time>2017-05-21T10:31:13.000Z</time>
      </trkpt>
      <trkpt lat="44.0805" lon="5.98936">
        <ele>523.79998779297</ele>
        <time>2017-05-21T10:31:15.000Z</time>
      </trkpt>
      <trkpt lat="44.0805" lon="5.98962">
        <ele>523.20001220703</ele>
        <time>2017-05-21T10:31:21.000Z</time>
      </trkpt>
      <trkpt lat="44.08061" lon="5.98983">
        <ele>520.59997558594</ele>
        <time>2017-05-21T10:31:26.000Z</time>
      </trkpt>
      <trkpt lat="44.08069" lon="5.99007">
        <ele>517.20001220703</ele>
        <time>2017-05-21T10:31:32.000Z</time>
      </trkpt>
      <trkpt lat="44.08073" lon="5.99018">
        <ele>515.79998779297</ele>
        <time>2017-05-21T10:31:34.000Z</time>
      </trkpt>
      <trkpt lat="44.08078" lon="5.99019">
        <ele>515</ele>
        <time>2017-05-21T10:31:36.000Z</time>
      </trkpt>
      <trkpt lat="44.08083" lon="5.99013">
        <ele>514.79998779297</ele>
        <time>2017-05-21T10:31:41.000Z</time>
      </trkpt>
      <trkpt lat="44.08091" lon="5.99022">
        <ele>513</ele>
        <time>2017-05-21T10:31:45.000Z</time>
      </trkpt>
      <trkpt lat="44.08109" lon="5.9904">
        <ele>508.79998779297</ele>
        <time>2017-05-21T10:31:51.000Z</time>
      </trkpt>
      <trkpt lat="44.08127" lon="5.99055">
        <ele>506.20001220703</ele>
        <time>2017-05-21T10:31:57.000Z</time>
      </trkpt>
      <trkpt lat="44.08136" lon="5.99071">
        <ele>503.79998779297</ele>
        <time>2017-05-21T10:32:00.000Z</time>
      </trkpt>
      <trkpt lat="44.08152" lon="5.99089">
        <ele>500.39999389648</ele>
        <time>2017-05-21T10:32:05.000Z</time>
      </trkpt>
      <trkpt lat="44.08165" lon="5.99109">
        <ele>497</ele>
        <time>2017-05-21T10:32:09.000Z</time>
      </trkpt>
      <trkpt lat="44.08179" lon="5.99131">
        <ele>493.39999389648</ele>
        <time>2017-05-21T10:32:14.000Z</time>
      </trkpt>
      <trkpt lat="44.08191" lon="5.99139">
        <ele>491.39999389648</ele>
        <time>2017-05-21T10:32:17.000Z</time>
      </trkpt>
      <trkpt lat="44.08182" lon="5.99156">
        <ele>491</ele>
        <time>2017-05-21T10:32:22.000Z</time>
      </trkpt>
      <trkpt lat="44.08174" lon="5.99166">
        <ele>491.20001220703</ele>
        <time>2017-05-21T10:32:24.000Z</time>
      </trkpt>
      <trkpt lat="44.0817" lon="5.9917">
        <ele>491.20001220703</ele>
        <time>2017-05-21T10:32:25.000Z</time>
      </trkpt>
      <trkpt lat="44.08154" lon="5.99184">
        <ele>491.79998779297</ele>
        <time>2017-05-21T10:32:28.000Z</time>
      </trkpt>
      <trkpt lat="44.08136" lon="5.99191">
        <ele>490.60000610352</ele>
        <time>2017-05-21T10:32:32.000Z</time>
      </trkpt>
      <trkpt lat="44.0813" lon="5.99189">
        <ele>490.60000610352</ele>
        <time>2017-05-21T10:32:34.000Z</time>
      </trkpt>
      <trkpt lat="44.0811" lon="5.99186">
        <ele>490.60000610352</ele>
        <time>2017-05-21T10:32:41.000Z</time>
      </trkpt>
      <trkpt lat="44.08091" lon="5.99182">
        <ele>492.79998779297</ele>
        <time>2017-05-21T10:32:51.000Z</time>
      </trkpt>
      <trkpt lat="44.08073" lon="5.99174">
        <ele>495.39999389648</ele>
        <time>2017-05-21T10:33:03.000Z</time>
      </trkpt>
      <trkpt lat="44.08056" lon="5.99164">
        <ele>498.39999389648</ele>
        <time>2017-05-21T10:33:15.000Z</time>
      </trkpt>
      <trkpt lat="44.08039" lon="5.99152">
        <ele>501.39999389648</ele>
        <time>2017-05-21T10:33:29.000Z</time>
      </trkpt>
      <trkpt lat="44.08019" lon="5.99148">
        <ele>503.20001220703</ele>
        <time>2017-05-21T10:33:39.000Z</time>
      </trkpt>
      <trkpt lat="44.08" lon="5.99145">
        <ele>505.60000610352</ele>
        <time>2017-05-21T10:33:48.000Z</time>
      </trkpt>
      <trkpt lat="44.07981" lon="5.99148">
        <ele>506.60000610352</ele>
        <time>2017-05-21T10:33:59.000Z</time>
      </trkpt>
      <trkpt lat="44.07962" lon="5.99156">
        <ele>506.60000610352</ele>
        <time>2017-05-21T10:34:10.000Z</time>
      </trkpt>
      <trkpt lat="44.07948" lon="5.99171">
        <ele>505.79998779297</ele>
        <time>2017-05-21T10:34:19.000Z</time>
      </trkpt>
      <trkpt lat="44.07939" lon="5.99181">
        <ele>504.79998779297</ele>
        <time>2017-05-21T10:34:25.000Z</time>
      </trkpt>
      <trkpt lat="44.07932" lon="5.99192">
        <ele>502.79998779297</ele>
        <time>2017-05-21T10:34:29.000Z</time>
      </trkpt>
      <trkpt lat="44.07916" lon="5.99204">
        <ele>500.20001220703</ele>
        <time>2017-05-21T10:34:36.000Z</time>
      </trkpt>
      <trkpt lat="44.07898" lon="5.99204">
        <ele>499.60000610352</ele>
        <time>2017-05-21T10:34:40.000Z</time>
      </trkpt>
      <trkpt lat="44.07893" lon="5.99202">
        <ele>499.79998779297</ele>
        <time>2017-05-21T10:34:41.000Z</time>
      </trkpt>
      <trkpt lat="44.07876" lon="5.99191">
        <ele>501</ele>
        <time>2017-05-21T10:34:46.000Z</time>
      </trkpt>
      <trkpt lat="44.07859" lon="5.99178">
        <ele>502.20001220703</ele>
        <time>2017-05-21T10:34:52.000Z</time>
      </trkpt>
      <trkpt lat="44.07844" lon="5.99164">
        <ele>502.39999389648</ele>
        <time>2017-05-21T10:34:57.000Z</time>
      </trkpt>
      <trkpt lat="44.07827" lon="5.99149">
        <ele>502.60000610352</ele>
        <time>2017-05-21T10:35:02.000Z</time>
      </trkpt>
      <trkpt lat="44.07812" lon="5.99135">
        <ele>503</ele>
        <time>2017-05-21T10:35:07.000Z</time>
      </trkpt>
      <trkpt lat="44.07798" lon="5.99119">
        <ele>504</ele>
        <time>2017-05-21T10:35:12.000Z</time>
      </trkpt>
      <trkpt lat="44.07782" lon="5.99103">
        <ele>504.79998779297</ele>
        <time>2017-05-21T10:35:17.000Z</time>
      </trkpt>
      <trkpt lat="44.07768" lon="5.99085">
        <ele>505.79998779297</ele>
        <time>2017-05-21T10:35:23.000Z</time>
      </trkpt>
      <trkpt lat="44.07754" lon="5.99067">
        <ele>507</ele>
        <time>2017-05-21T10:35:29.000Z</time>
      </trkpt>
      <trkpt lat="44.0774" lon="5.9905">
        <ele>507.39999389648</ele>
        <time>2017-05-21T10:35:34.000Z</time>
      </trkpt>
      <trkpt lat="44.07724" lon="5.99034">
        <ele>507</ele>
        <time>2017-05-21T10:35:38.000Z</time>
      </trkpt>
      <trkpt lat="44.07709" lon="5.99018">
        <ele>506.79998779297</ele>
        <time>2017-05-21T10:35:41.000Z</time>
      </trkpt>
      <trkpt lat="44.07692" lon="5.99002">
        <ele>506.39999389648</ele>
        <time>2017-05-21T10:35:44.000Z</time>
      </trkpt>
      <trkpt lat="44.07676" lon="5.99014">
        <ele>502.60000610352</ele>
        <time>2017-05-21T10:35:48.000Z</time>
      </trkpt>
      <trkpt lat="44.07673" lon="5.99022">
        <ele>501.20001220703</ele>
        <time>2017-05-21T10:35:49.000Z</time>
      </trkpt>
      <trkpt lat="44.07663" lon="5.99046">
        <ele>497</ele>
        <time>2017-05-21T10:35:52.000Z</time>
      </trkpt>
      <trkpt lat="44.07646" lon="5.99071">
        <ele>492.39999389648</ele>
        <time>2017-05-21T10:35:55.000Z</time>
      </trkpt>
      <trkpt lat="44.07632" lon="5.9909">
        <ele>489.20001220703</ele>
        <time>2017-05-21T10:35:57.000Z</time>
      </trkpt>
      <trkpt lat="44.07619" lon="5.9911">
        <ele>487.79998779297</ele>
        <time>2017-05-21T10:35:59.000Z</time>
      </trkpt>
      <trkpt lat="44.07605" lon="5.99127">
        <ele>486.20001220703</ele>
        <time>2017-05-21T10:36:01.000Z</time>
      </trkpt>
      <trkpt lat="44.07585" lon="5.99139">
        <ele>484</ele>
        <time>2017-05-21T10:36:03.000Z</time>
      </trkpt>
      <trkpt lat="44.07567" lon="5.99142">
        <ele>482.39999389648</ele>
        <time>2017-05-21T10:36:05.000Z</time>
      </trkpt>
      <trkpt lat="44.07558" lon="5.99142">
        <ele>481.60000610352</ele>
        <time>2017-05-21T10:36:06.000Z</time>
      </trkpt>
      <trkpt lat="44.07534" lon="5.99141">
        <ele>479.60000610352</ele>
        <time>2017-05-21T10:36:09.000Z</time>
      </trkpt>
      <trkpt lat="44.07513" lon="5.99139">
        <ele>478.39999389648</ele>
        <time>2017-05-21T10:36:13.000Z</time>
      </trkpt>
      <trkpt lat="44.07494" lon="5.99139">
        <ele>477.39999389648</ele>
        <time>2017-05-21T10:36:18.000Z</time>
      </trkpt>
      <trkpt lat="44.0748" lon="5.99164">
        <ele>476.20001220703</ele>
        <time>2017-05-21T10:36:22.000Z</time>
      </trkpt>
      <trkpt lat="44.07465" lon="5.99187">
        <ele>475.79998779297</ele>
        <time>2017-05-21T10:36:26.000Z</time>
      </trkpt>
      <trkpt lat="44.0746" lon="5.99196">
        <ele>475.79998779297</ele>
        <time>2017-05-21T10:36:28.000Z</time>
      </trkpt>
      <trkpt lat="44.07448" lon="5.99206">
        <ele>475.79998779297</ele>
        <time>2017-05-21T10:36:32.000Z</time>
      </trkpt>
      <trkpt lat="44.07435" lon="5.99227">
        <ele>475.39999389648</ele>
        <time>2017-05-21T10:37:19.000Z</time>
      </trkpt>
      <trkpt lat="44.07421" lon="5.99249">
        <ele>474.39999389648</ele>
        <time>2017-05-21T10:37:24.000Z</time>
      </trkpt>
      <trkpt lat="44.07408" lon="5.9927">
        <ele>473.39999389648</ele>
        <time>2017-05-21T10:37:28.000Z</time>
      </trkpt>
      <trkpt lat="44.07402" lon="5.99281">
        <ele>473.39999389648</ele>
        <time>2017-05-21T10:37:30.000Z</time>
      </trkpt>
      <trkpt lat="44.07398" lon="5.99308">
        <ele>474</ele>
        <time>2017-05-21T10:37:34.000Z</time>
      </trkpt>
      <trkpt lat="44.07395" lon="5.99334">
        <ele>473</ele>
        <time>2017-05-21T10:37:38.000Z</time>
      </trkpt>
      <trkpt lat="44.07392" lon="5.99366">
        <ele>472.39999389648</ele>
        <time>2017-05-21T10:37:42.000Z</time>
      </trkpt>
      <trkpt lat="44.07389" lon="5.99392">
        <ele>472</ele>
        <time>2017-05-21T10:37:45.000Z</time>
      </trkpt>
      <trkpt lat="44.07386" lon="5.99424">
        <ele>471.79998779297</ele>
        <time>2017-05-21T10:37:49.000Z</time>
      </trkpt>
      <trkpt lat="44.07384" lon="5.99445">
        <ele>471.20001220703</ele>
        <time>2017-05-21T10:37:52.000Z</time>
      </trkpt>
      <trkpt lat="44.0738" lon="5.99474">
        <ele>470.60000610352</ele>
        <time>2017-05-21T10:37:56.000Z</time>
      </trkpt>
      <trkpt lat="44.07378" lon="5.99499">
        <ele>470.20001220703</ele>
        <time>2017-05-21T10:37:59.000Z</time>
      </trkpt>
      <trkpt lat="44.07375" lon="5.99531">
        <ele>470.20001220703</ele>
        <time>2017-05-21T10:38:03.000Z</time>
      </trkpt>
      <trkpt lat="44.07372" lon="5.9956">
        <ele>470.20001220703</ele>
        <time>2017-05-21T10:38:07.000Z</time>
      </trkpt>
      <trkpt lat="44.07371" lon="5.99574">
        <ele>470.20001220703</ele>
        <time>2017-05-21T10:38:09.000Z</time>
      </trkpt>
      <trkpt lat="44.07368" lon="5.99599">
        <ele>470</ele>
        <time>2017-05-21T10:38:12.000Z</time>
      </trkpt>
      <trkpt lat="44.07365" lon="5.9963">
        <ele>470</ele>
        <time>2017-05-21T10:38:16.000Z</time>
      </trkpt>
      <trkpt lat="44.07362" lon="5.99661">
        <ele>470</ele>
        <time>2017-05-21T10:38:20.000Z</time>
      </trkpt>
      <trkpt lat="44.07361" lon="5.99692">
        <ele>470</ele>
        <time>2017-05-21T10:38:24.000Z</time>
      </trkpt>
      <trkpt lat="44.07359" lon="5.99723">
        <ele>470</ele>
        <time>2017-05-21T10:38:28.000Z</time>
      </trkpt>
      <trkpt lat="44.07356" lon="5.99755">
        <ele>469.20001220703</ele>
        <time>2017-05-21T10:38:32.000Z</time>
      </trkpt>
      <trkpt lat="44.07353" lon="5.99779">
        <ele>468.60000610352</ele>
        <time>2017-05-21T10:38:35.000Z</time>
      </trkpt>
      <trkpt lat="44.07334" lon="5.99796">
        <ele>468.39999389648</ele>
        <time>2017-05-21T10:38:39.000Z</time>
      </trkpt>
      <trkpt lat="44.07328" lon="5.99797">
        <ele>468.60000610352</ele>
        <time>2017-05-21T10:38:40.000Z</time>
      </trkpt>
      <trkpt lat="44.07305" lon="5.99797">
        <ele>469.20001220703</ele>
        <time>2017-05-21T10:38:44.000Z</time>
      </trkpt>
      <trkpt lat="44.07286" lon="5.99797">
        <ele>469.60000610352</ele>
        <time>2017-05-21T10:38:47.000Z</time>
      </trkpt>
      <trkpt lat="44.07267" lon="5.99796">
        <ele>469.79998779297</ele>
        <time>2017-05-21T10:38:50.000Z</time>
      </trkpt>
      <trkpt lat="44.07248" lon="5.99795">
        <ele>469.39999389648</ele>
        <time>2017-05-21T10:38:53.000Z</time>
      </trkpt>
      <trkpt lat="44.07229" lon="5.99794">
        <ele>468.79998779297</ele>
        <time>2017-05-21T10:38:56.000Z</time>
      </trkpt>
      <trkpt lat="44.07209" lon="5.99793">
        <ele>468.39999389648</ele>
        <time>2017-05-21T10:38:59.000Z</time>
      </trkpt>
      <trkpt lat="44.07189" lon="5.9979">
        <ele>467.79998779297</ele>
        <time>2017-05-21T10:39:02.000Z</time>
      </trkpt>
      <trkpt lat="44.07166" lon="5.99784">
        <ele>467.39999389648</ele>
        <time>2017-05-21T10:39:05.000Z</time>
      </trkpt>
      <trkpt lat="44.07144" lon="5.99779">
        <ele>466.79998779297</ele>
        <time>2017-05-21T10:39:08.000Z</time>
      </trkpt>
      <trkpt lat="44.07123" lon="5.99776">
        <ele>466.39999389648</ele>
        <time>2017-05-21T10:39:11.000Z</time>
      </trkpt>
      <trkpt lat="44.07103" lon="5.99771">
        <ele>466</ele>
        <time>2017-05-21T10:39:14.000Z</time>
      </trkpt>
      <trkpt lat="44.0708" lon="5.99766">
        <ele>465.60000610352</ele>
        <time>2017-05-21T10:39:17.000Z</time>
      </trkpt>
      <trkpt lat="44.07059" lon="5.99762">
        <ele>465.39999389648</ele>
        <time>2017-05-21T10:39:20.000Z</time>
      </trkpt>
      <trkpt lat="44.07039" lon="5.99758">
        <ele>465</ele>
        <time>2017-05-21T10:39:23.000Z</time>
      </trkpt>
      <trkpt lat="44.07018" lon="5.99752">
        <ele>464.39999389648</ele>
        <time>2017-05-21T10:39:26.000Z</time>
      </trkpt>
      <trkpt lat="44.06996" lon="5.99746">
        <ele>464</ele>
        <time>2017-05-21T10:39:29.000Z</time>
      </trkpt>
      <trkpt lat="44.06975" lon="5.99742">
        <ele>463.60000610352</ele>
        <time>2017-05-21T10:39:32.000Z</time>
      </trkpt>
      <trkpt lat="44.06953" lon="5.99739">
        <ele>462.79998779297</ele>
        <time>2017-05-21T10:39:35.000Z</time>
      </trkpt>
      <trkpt lat="44.06931" lon="5.99735">
        <ele>460.39999389648</ele>
        <time>2017-05-21T10:39:38.000Z</time>
      </trkpt>
      <trkpt lat="44.06912" lon="5.99732">
        <ele>458.79998779297</ele>
        <time>2017-05-21T10:39:41.000Z</time>
      </trkpt>
      <trkpt lat="44.06892" lon="5.99728">
        <ele>457.20001220703</ele>
        <time>2017-05-21T10:39:44.000Z</time>
      </trkpt>
      <trkpt lat="44.06874" lon="5.99725">
        <ele>455.39999389648</ele>
        <time>2017-05-21T10:39:47.000Z</time>
      </trkpt>
      <trkpt lat="44.06851" lon="5.99718">
        <ele>453.60000610352</ele>
        <time>2017-05-21T10:39:51.000Z</time>
      </trkpt>
      <trkpt lat="44.06846" lon="5.99693">
        <ele>455.79998779297</ele>
        <time>2017-05-21T10:39:55.000Z</time>
      </trkpt>
      <trkpt lat="44.06856" lon="5.99677">
        <ele>459.20001220703</ele>
        <time>2017-05-21T10:39:58.000Z</time>
      </trkpt>
      <trkpt lat="44.0687" lon="5.99656">
        <ele>463.39999389648</ele>
        <time>2017-05-21T10:40:02.000Z</time>
      </trkpt>
      <trkpt lat="44.06886" lon="5.99635">
        <ele>464.20001220703</ele>
        <time>2017-05-21T10:40:06.000Z</time>
      </trkpt>
      <trkpt lat="44.06902" lon="5.99612">
        <ele>464.79998779297</ele>
        <time>2017-05-21T10:40:10.000Z</time>
      </trkpt>
      <trkpt lat="44.06917" lon="5.9959">
        <ele>465.20001220703</ele>
        <time>2017-05-21T10:40:14.000Z</time>
      </trkpt>
      <trkpt lat="44.06933" lon="5.99566">
        <ele>465.79998779297</ele>
        <time>2017-05-21T10:40:18.000Z</time>
      </trkpt>
      <trkpt lat="44.06946" lon="5.99546">
        <ele>465.60000610352</ele>
        <time>2017-05-21T10:40:22.000Z</time>
      </trkpt>
      <trkpt lat="44.06952" lon="5.99535">
        <ele>465.39999389648</ele>
        <time>2017-05-21T10:40:24.000Z</time>
      </trkpt>
      <trkpt lat="44.06948" lon="5.99511">
        <ele>464.79998779297</ele>
        <time>2017-05-21T10:40:28.000Z</time>
      </trkpt>
      <trkpt lat="44.06944" lon="5.99505">
        <ele>464.79998779297</ele>
        <time>2017-05-21T10:40:29.000Z</time>
      </trkpt>
      <trkpt lat="44.06927" lon="5.99482">
        <ele>464.79998779297</ele>
        <time>2017-05-21T10:40:33.000Z</time>
      </trkpt>
      <trkpt lat="44.06912" lon="5.99465">
        <ele>464.79998779297</ele>
        <time>2017-05-21T10:40:36.000Z</time>
      </trkpt>
      <trkpt lat="44.06896" lon="5.99446">
        <ele>464.60000610352</ele>
        <time>2017-05-21T10:40:40.000Z</time>
      </trkpt>
      <trkpt lat="44.06881" lon="5.99428">
        <ele>464.60000610352</ele>
        <time>2017-05-21T10:40:44.000Z</time>
      </trkpt>
      <trkpt lat="44.06865" lon="5.99408">
        <ele>464.39999389648</ele>
        <time>2017-05-21T10:40:48.000Z</time>
      </trkpt>
      <trkpt lat="44.06849" lon="5.99386">
        <ele>464</ele>
        <time>2017-05-21T10:40:52.000Z</time>
      </trkpt>
      <trkpt lat="44.06833" lon="5.99364">
        <ele>463.39999389648</ele>
        <time>2017-05-21T10:40:56.000Z</time>
      </trkpt>
      <trkpt lat="44.06817" lon="5.99344">
        <ele>463</ele>
        <time>2017-05-21T10:41:00.000Z</time>
      </trkpt>
      <trkpt lat="44.06803" lon="5.99325">
        <ele>462.60000610352</ele>
        <time>2017-05-21T10:41:04.000Z</time>
      </trkpt>
      <trkpt lat="44.06788" lon="5.99305">
        <ele>462.20001220703</ele>
        <time>2017-05-21T10:41:09.000Z</time>
      </trkpt>
      <trkpt lat="44.0678" lon="5.99298">
        <ele>462.20001220703</ele>
        <time>2017-05-21T10:41:12.000Z</time>
      </trkpt>
      <trkpt lat="44.0677" lon="5.99302">
        <ele>462.20001220703</ele>
        <time>2017-05-21T10:41:16.000Z</time>
      </trkpt>
      <trkpt lat="44.06762" lon="5.99308">
        <ele>462.20001220703</ele>
        <time>2017-05-21T10:41:20.000Z</time>
      </trkpt>
      <trkpt lat="44.06747" lon="5.99294">
        <ele>462.60000610352</ele>
        <time>2017-05-21T10:41:27.000Z</time>
      </trkpt>
      <trkpt lat="44.06732" lon="5.99275">
        <ele>463</ele>
        <time>2017-05-21T10:41:32.000Z</time>
      </trkpt>
      <trkpt lat="44.06721" lon="5.99254">
        <ele>463.39999389648</ele>
        <time>2017-05-21T10:41:37.000Z</time>
      </trkpt>
      <trkpt lat="44.06709" lon="5.99235">
        <ele>463.60000610352</ele>
        <time>2017-05-21T10:41:43.000Z</time>
      </trkpt>
      <trkpt lat="44.06729" lon="5.9922">
        <ele>463.60000610352</ele>
        <time>2017-05-21T10:42:11.000Z</time>
      </trkpt>
      <trkpt lat="44.06746" lon="5.99211">
        <ele>463.60000610352</ele>
        <time>2017-05-21T10:42:16.000Z</time>
      </trkpt>
      <trkpt lat="44.06762" lon="5.99201">
        <ele>463.20001220703</ele>
        <time>2017-05-21T10:42:21.000Z</time>
      </trkpt>
      <trkpt lat="44.06778" lon="5.99185">
        <ele>462.60000610352</ele>
        <time>2017-05-21T10:42:28.000Z</time>
      </trkpt>
      <trkpt lat="44.06789" lon="5.9917">
        <ele>462.20001220703</ele>
        <time>2017-05-21T10:43:18.000Z</time>
      </trkpt>
    </trkseg>
  </trk>
</gpx>